<?xml version="1.0" encoding="UTF-8" standalone="no" ?>
<gpx xmlns="http://www.topografix.com/GPX/1/1" xmlns:xsi="http://www.w3.org/2001/XMLSchema-instance" xsi:schemaLocation="http://www.topografix.com/GPX/1/1 http://www.topografix.com/GPX/1/1/gpx.xsd" version="1.1" creator="VisuGPX - https://www.visugpx.com">
  <metadata>
    <name>Lacan et les sommets de Rieussec</name>
    <desc><![CDATA[Randonnée sportive dans la garrigue de Rieussec.]]></desc>
  </metadata>
  <trk>
    <name><![CDATA[06-FEV-14 18:16:00]]></name>
    <trkseg>
      <trkpt lat="43.40157" lon="2.75357">
        <ele>545.2</ele>
        <time>2014-02-06T13:12:34Z</time>
      </trkpt>
      <trkpt lat="43.40165" lon="2.75375">
        <ele>547.61</ele>
        <time>2014-02-06T13:12:47Z</time>
      </trkpt>
      <trkpt lat="43.40173" lon="2.75381">
        <ele>550.01</ele>
        <time>2014-02-06T13:12:55Z</time>
      </trkpt>
      <trkpt lat="43.40183" lon="2.75387">
        <ele>551.45</ele>
        <time>2014-02-06T13:13:05Z</time>
      </trkpt>
      <trkpt lat="43.40186" lon="2.75389">
        <ele>551.93</ele>
        <time>2014-02-06T13:13:08Z</time>
      </trkpt>
      <trkpt lat="43.40194" lon="2.75402">
        <ele>554.82</ele>
        <time>2014-02-06T13:13:19Z</time>
      </trkpt>
      <trkpt lat="43.40201" lon="2.75408">
        <ele>556.26</ele>
        <time>2014-02-06T13:13:28Z</time>
      </trkpt>
      <trkpt lat="43.40203" lon="2.75408">
        <ele>555.78</ele>
        <time>2014-02-06T13:13:33Z</time>
      </trkpt>
      <trkpt lat="43.40203" lon="2.75408">
        <ele>557.7</ele>
        <time>2014-02-06T13:13:34Z</time>
      </trkpt>
      <trkpt lat="43.40216" lon="2.75406">
        <ele>560.11</ele>
        <time>2014-02-06T13:13:48Z</time>
      </trkpt>
      <trkpt lat="43.40226" lon="2.75403">
        <ele>563.47</ele>
        <time>2014-02-06T13:13:59Z</time>
      </trkpt>
      <trkpt lat="43.40229" lon="2.75402">
        <ele>565.87</ele>
        <time>2014-02-06T13:14:04Z</time>
      </trkpt>
      <trkpt lat="43.4023" lon="2.75402">
        <ele>563.47</ele>
        <time>2014-02-06T13:14:05Z</time>
      </trkpt>
      <trkpt lat="43.4023" lon="2.75402">
        <ele>564.91</ele>
        <time>2014-02-06T13:14:06Z</time>
      </trkpt>
      <trkpt lat="43.40242" lon="2.75404">
        <ele>565.39</ele>
        <time>2014-02-06T13:14:19Z</time>
      </trkpt>
      <trkpt lat="43.40245" lon="2.75406">
        <ele>569.24</ele>
        <time>2014-02-06T13:14:24Z</time>
      </trkpt>
      <trkpt lat="43.40245" lon="2.75407">
        <ele>566.35</ele>
        <time>2014-02-06T13:14:25Z</time>
      </trkpt>
      <trkpt lat="43.40247" lon="2.75408">
        <ele>568.28</ele>
        <time>2014-02-06T13:14:26Z</time>
      </trkpt>
      <trkpt lat="43.40249" lon="2.75409">
        <ele>569.24</ele>
        <time>2014-02-06T13:14:29Z</time>
      </trkpt>
      <trkpt lat="43.4025" lon="2.75411">
        <ele>569.24</ele>
        <time>2014-02-06T13:14:32Z</time>
      </trkpt>
      <trkpt lat="43.40257" lon="2.75417">
        <ele>572.12</ele>
        <time>2014-02-06T13:14:42Z</time>
      </trkpt>
      <trkpt lat="43.40263" lon="2.75428">
        <ele>575.01</ele>
        <time>2014-02-06T13:14:55Z</time>
      </trkpt>
      <trkpt lat="43.40264" lon="2.75433">
        <ele>575.97</ele>
        <time>2014-02-06T13:15:00Z</time>
      </trkpt>
      <trkpt lat="43.40262" lon="2.75429">
        <ele>577.89</ele>
        <time>2014-02-06T13:15:14Z</time>
      </trkpt>
      <trkpt lat="43.40264" lon="2.75434">
        <ele>575.49</ele>
        <time>2014-02-06T13:15:19Z</time>
      </trkpt>
      <trkpt lat="43.40268" lon="2.75443">
        <ele>572.6</ele>
        <time>2014-02-06T13:15:28Z</time>
      </trkpt>
      <trkpt lat="43.40269" lon="2.75444">
        <ele>572.12</ele>
        <time>2014-02-06T13:15:29Z</time>
      </trkpt>
      <trkpt lat="43.40271" lon="2.75448">
        <ele>570.68</ele>
        <time>2014-02-06T13:15:33Z</time>
      </trkpt>
      <trkpt lat="43.40275" lon="2.75461">
        <ele>567.8</ele>
        <time>2014-02-06T13:15:45Z</time>
      </trkpt>
      <trkpt lat="43.40277" lon="2.75473">
        <ele>564.43</ele>
        <time>2014-02-06T13:15:58Z</time>
      </trkpt>
      <trkpt lat="43.4028" lon="2.75479">
        <ele>564.91</ele>
        <time>2014-02-06T13:16:04Z</time>
      </trkpt>
      <trkpt lat="43.40287" lon="2.75498">
        <ele>563.95</ele>
        <time>2014-02-06T13:16:18Z</time>
      </trkpt>
      <trkpt lat="43.40288" lon="2.755">
        <ele>563.95</ele>
        <time>2014-02-06T13:16:20Z</time>
      </trkpt>
      <trkpt lat="43.40299" lon="2.75514">
        <ele>564.91</ele>
        <time>2014-02-06T13:16:36Z</time>
      </trkpt>
      <trkpt lat="43.40301" lon="2.75515">
        <ele>564.91</ele>
        <time>2014-02-06T13:16:38Z</time>
      </trkpt>
      <trkpt lat="43.40307" lon="2.75519">
        <ele>567.32</ele>
        <time>2014-02-06T13:16:52Z</time>
      </trkpt>
      <trkpt lat="43.4032" lon="2.75527">
        <ele>569.24</ele>
        <time>2014-02-06T13:17:06Z</time>
      </trkpt>
      <trkpt lat="43.4033" lon="2.75533">
        <ele>572.6</ele>
        <time>2014-02-06T13:17:17Z</time>
      </trkpt>
      <trkpt lat="43.40333" lon="2.75535">
        <ele>573.56</ele>
        <time>2014-02-06T13:17:20Z</time>
      </trkpt>
      <trkpt lat="43.4034" lon="2.7554">
        <ele>575.01</ele>
        <time>2014-02-06T13:17:28Z</time>
      </trkpt>
      <trkpt lat="43.40347" lon="2.75544">
        <ele>575.49</ele>
        <time>2014-02-06T13:17:43Z</time>
      </trkpt>
      <trkpt lat="43.40353" lon="2.75545">
        <ele>575.49</ele>
        <time>2014-02-06T13:17:50Z</time>
      </trkpt>
      <trkpt lat="43.40364" lon="2.75551">
        <ele>577.89</ele>
        <time>2014-02-06T13:18:04Z</time>
      </trkpt>
      <trkpt lat="43.40368" lon="2.75555">
        <ele>578.85</ele>
        <time>2014-02-06T13:18:09Z</time>
      </trkpt>
      <trkpt lat="43.40375" lon="2.75562">
        <ele>580.29</ele>
        <time>2014-02-06T13:18:17Z</time>
      </trkpt>
      <trkpt lat="43.4039" lon="2.75567">
        <ele>582.22</ele>
        <time>2014-02-06T13:18:31Z</time>
      </trkpt>
      <trkpt lat="43.40393" lon="2.75566">
        <ele>581.73</ele>
        <time>2014-02-06T13:18:35Z</time>
      </trkpt>
      <trkpt lat="43.40407" lon="2.7555">
        <ele>581.73</ele>
        <time>2014-02-06T13:18:49Z</time>
      </trkpt>
      <trkpt lat="43.4042" lon="2.7554">
        <ele>583.18</ele>
        <time>2014-02-06T13:19:01Z</time>
      </trkpt>
      <trkpt lat="43.4043" lon="2.75525">
        <ele>584.14</ele>
        <time>2014-02-06T13:19:13Z</time>
      </trkpt>
      <trkpt lat="43.40431" lon="2.75523">
        <ele>584.62</ele>
        <time>2014-02-06T13:19:15Z</time>
      </trkpt>
      <trkpt lat="43.40432" lon="2.75521">
        <ele>585.1</ele>
        <time>2014-02-06T13:19:17Z</time>
      </trkpt>
      <trkpt lat="43.40437" lon="2.75514">
        <ele>586.54</ele>
        <time>2014-02-06T13:19:22Z</time>
      </trkpt>
      <trkpt lat="43.40445" lon="2.75497">
        <ele>588.46</ele>
        <time>2014-02-06T13:19:35Z</time>
      </trkpt>
      <trkpt lat="43.40446" lon="2.75491">
        <ele>588.95</ele>
        <time>2014-02-06T13:19:42Z</time>
      </trkpt>
      <trkpt lat="43.40446" lon="2.7549">
        <ele>588.46</ele>
        <time>2014-02-06T13:19:53Z</time>
      </trkpt>
      <trkpt lat="43.40453" lon="2.75479">
        <ele>587.98</ele>
        <time>2014-02-06T13:20:05Z</time>
      </trkpt>
      <trkpt lat="43.40459" lon="2.75474">
        <ele>588.95</ele>
        <time>2014-02-06T13:20:12Z</time>
      </trkpt>
      <trkpt lat="43.40463" lon="2.7547">
        <ele>588.46</ele>
        <time>2014-02-06T13:20:16Z</time>
      </trkpt>
      <trkpt lat="43.40476" lon="2.75462">
        <ele>588.95</ele>
        <time>2014-02-06T13:20:29Z</time>
      </trkpt>
      <trkpt lat="43.40479" lon="2.7546">
        <ele>588.46</ele>
        <time>2014-02-06T13:20:37Z</time>
      </trkpt>
      <trkpt lat="43.40486" lon="2.75446">
        <ele>585.58</ele>
        <time>2014-02-06T13:20:50Z</time>
      </trkpt>
      <trkpt lat="43.40492" lon="2.75435">
        <ele>584.14</ele>
        <time>2014-02-06T13:21:00Z</time>
      </trkpt>
      <trkpt lat="43.40498" lon="2.75423">
        <ele>581.73</ele>
        <time>2014-02-06T13:21:10Z</time>
      </trkpt>
      <trkpt lat="43.40502" lon="2.75418">
        <ele>581.25</ele>
        <time>2014-02-06T13:21:15Z</time>
      </trkpt>
      <trkpt lat="43.40514" lon="2.75417">
        <ele>582.22</ele>
        <time>2014-02-06T13:21:25Z</time>
      </trkpt>
      <trkpt lat="43.40525" lon="2.75411">
        <ele>582.7</ele>
        <time>2014-02-06T13:21:38Z</time>
      </trkpt>
      <trkpt lat="43.40533" lon="2.75406">
        <ele>583.66</ele>
        <time>2014-02-06T13:21:48Z</time>
      </trkpt>
      <trkpt lat="43.40537" lon="2.75402">
        <ele>583.66</ele>
        <time>2014-02-06T13:21:53Z</time>
      </trkpt>
      <trkpt lat="43.40541" lon="2.75397">
        <ele>584.14</ele>
        <time>2014-02-06T13:21:58Z</time>
      </trkpt>
      <trkpt lat="43.40553" lon="2.75381">
        <ele>585.1</ele>
        <time>2014-02-06T13:22:14Z</time>
      </trkpt>
      <trkpt lat="43.40557" lon="2.75379">
        <ele>585.58</ele>
        <time>2014-02-06T13:22:18Z</time>
      </trkpt>
      <trkpt lat="43.4057" lon="2.75379">
        <ele>588.46</ele>
        <time>2014-02-06T13:22:31Z</time>
      </trkpt>
      <trkpt lat="43.40575" lon="2.75378">
        <ele>588.46</ele>
        <time>2014-02-06T13:22:35Z</time>
      </trkpt>
      <trkpt lat="43.40582" lon="2.75377">
        <ele>589.91</ele>
        <time>2014-02-06T13:22:44Z</time>
      </trkpt>
      <trkpt lat="43.40588" lon="2.75375">
        <ele>590.39</ele>
        <time>2014-02-06T13:22:49Z</time>
      </trkpt>
      <trkpt lat="43.40591" lon="2.75375">
        <ele>591.83</ele>
        <time>2014-02-06T13:22:52Z</time>
      </trkpt>
      <trkpt lat="43.40601" lon="2.75369">
        <ele>592.31</ele>
        <time>2014-02-06T13:23:01Z</time>
      </trkpt>
      <trkpt lat="43.40605" lon="2.75368">
        <ele>591.83</ele>
        <time>2014-02-06T13:23:05Z</time>
      </trkpt>
      <trkpt lat="43.40622" lon="2.75367">
        <ele>593.27</ele>
        <time>2014-02-06T13:23:20Z</time>
      </trkpt>
      <trkpt lat="43.40637" lon="2.75371">
        <ele>596.15</ele>
        <time>2014-02-06T13:23:36Z</time>
      </trkpt>
      <trkpt lat="43.40645" lon="2.7537">
        <ele>597.6</ele>
        <time>2014-02-06T13:23:46Z</time>
      </trkpt>
      <trkpt lat="43.40653" lon="2.75367">
        <ele>600</ele>
        <time>2014-02-06T13:23:54Z</time>
      </trkpt>
      <trkpt lat="43.4067" lon="2.75366">
        <ele>603.36</ele>
        <time>2014-02-06T13:24:11Z</time>
      </trkpt>
      <trkpt lat="43.40683" lon="2.75371">
        <ele>604.33</ele>
        <time>2014-02-06T13:24:26Z</time>
      </trkpt>
      <trkpt lat="43.40693" lon="2.75376">
        <ele>606.25</ele>
        <time>2014-02-06T13:24:39Z</time>
      </trkpt>
      <trkpt lat="43.40701" lon="2.75377">
        <ele>607.21</ele>
        <time>2014-02-06T13:24:47Z</time>
      </trkpt>
      <trkpt lat="43.40714" lon="2.75381">
        <ele>610.57</ele>
        <time>2014-02-06T13:25:02Z</time>
      </trkpt>
      <trkpt lat="43.40718" lon="2.75383">
        <ele>611.06</ele>
        <time>2014-02-06T13:25:06Z</time>
      </trkpt>
      <trkpt lat="43.4072" lon="2.75384">
        <ele>612.02</ele>
        <time>2014-02-06T13:25:08Z</time>
      </trkpt>
      <trkpt lat="43.40736" lon="2.7539">
        <ele>613.94</ele>
        <time>2014-02-06T13:25:24Z</time>
      </trkpt>
      <trkpt lat="43.40738" lon="2.75389">
        <ele>613.94</ele>
        <time>2014-02-06T13:25:33Z</time>
      </trkpt>
      <trkpt lat="43.40747" lon="2.75392">
        <ele>617.3</ele>
        <time>2014-02-06T13:25:46Z</time>
      </trkpt>
      <trkpt lat="43.40756" lon="2.75395">
        <ele>619.23</ele>
        <time>2014-02-06T13:25:58Z</time>
      </trkpt>
      <trkpt lat="43.40761" lon="2.75396">
        <ele>619.23</ele>
        <time>2014-02-06T13:26:12Z</time>
      </trkpt>
      <trkpt lat="43.40771" lon="2.75399">
        <ele>621.63</ele>
        <time>2014-02-06T13:26:25Z</time>
      </trkpt>
      <trkpt lat="43.40781" lon="2.75401">
        <ele>624.03</ele>
        <time>2014-02-06T13:26:39Z</time>
      </trkpt>
      <trkpt lat="43.40791" lon="2.75404">
        <ele>627.4</ele>
        <time>2014-02-06T13:26:52Z</time>
      </trkpt>
      <trkpt lat="43.40798" lon="2.75405">
        <ele>627.88</ele>
        <time>2014-02-06T13:27:07Z</time>
      </trkpt>
      <trkpt lat="43.40806" lon="2.75409">
        <ele>630.76</ele>
        <time>2014-02-06T13:27:22Z</time>
      </trkpt>
      <trkpt lat="43.40809" lon="2.75409">
        <ele>631.24</ele>
        <time>2014-02-06T13:27:30Z</time>
      </trkpt>
      <trkpt lat="43.40816" lon="2.75405">
        <ele>634.61</ele>
        <time>2014-02-06T13:27:43Z</time>
      </trkpt>
      <trkpt lat="43.40824" lon="2.75399">
        <ele>637.01</ele>
        <time>2014-02-06T13:27:57Z</time>
      </trkpt>
      <trkpt lat="43.4083" lon="2.75397">
        <ele>639.41</ele>
        <time>2014-02-06T13:28:12Z</time>
      </trkpt>
      <trkpt lat="43.4084" lon="2.75399">
        <ele>640.86</ele>
        <time>2014-02-06T13:28:29Z</time>
      </trkpt>
      <trkpt lat="43.40849" lon="2.754">
        <ele>642.78</ele>
        <time>2014-02-06T13:28:43Z</time>
      </trkpt>
      <trkpt lat="43.40854" lon="2.754">
        <ele>643.74</ele>
        <time>2014-02-06T13:28:49Z</time>
      </trkpt>
      <trkpt lat="43.40864" lon="2.75401">
        <ele>647.59</ele>
        <time>2014-02-06T13:29:00Z</time>
      </trkpt>
      <trkpt lat="43.40865" lon="2.75402">
        <ele>647.1</ele>
        <time>2014-02-06T13:29:01Z</time>
      </trkpt>
      <trkpt lat="43.40867" lon="2.75402">
        <ele>647.59</ele>
        <time>2014-02-06T13:29:03Z</time>
      </trkpt>
      <trkpt lat="43.40874" lon="2.75404">
        <ele>649.51</ele>
        <time>2014-02-06T13:29:17Z</time>
      </trkpt>
      <trkpt lat="43.40885" lon="2.75413">
        <ele>650.95</ele>
        <time>2014-02-06T13:29:31Z</time>
      </trkpt>
      <trkpt lat="43.40894" lon="2.75419">
        <ele>652.39</ele>
        <time>2014-02-06T13:29:47Z</time>
      </trkpt>
      <trkpt lat="43.409" lon="2.75422">
        <ele>653.83</ele>
        <time>2014-02-06T13:29:54Z</time>
      </trkpt>
      <trkpt lat="43.40905" lon="2.75425">
        <ele>655.28</ele>
        <time>2014-02-06T13:30:10Z</time>
      </trkpt>
      <trkpt lat="43.40913" lon="2.75429">
        <ele>658.16</ele>
        <time>2014-02-06T13:30:23Z</time>
      </trkpt>
      <trkpt lat="43.40918" lon="2.75433">
        <ele>659.6</ele>
        <time>2014-02-06T13:30:29Z</time>
      </trkpt>
      <trkpt lat="43.40932" lon="2.75442">
        <ele>660.08</ele>
        <time>2014-02-06T13:30:44Z</time>
      </trkpt>
      <trkpt lat="43.40936" lon="2.75446">
        <ele>661.52</ele>
        <time>2014-02-06T13:30:49Z</time>
      </trkpt>
      <trkpt lat="43.40946" lon="2.75459">
        <ele>662.97</ele>
        <time>2014-02-06T13:31:03Z</time>
      </trkpt>
      <trkpt lat="43.4095" lon="2.75463">
        <ele>665.37</ele>
        <time>2014-02-06T13:31:08Z</time>
      </trkpt>
      <trkpt lat="43.40959" lon="2.75478">
        <ele>666.33</ele>
        <time>2014-02-06T13:31:23Z</time>
      </trkpt>
      <trkpt lat="43.40963" lon="2.75483">
        <ele>667.77</ele>
        <time>2014-02-06T13:31:30Z</time>
      </trkpt>
      <trkpt lat="43.40972" lon="2.75491">
        <ele>670.18</ele>
        <time>2014-02-06T13:31:42Z</time>
      </trkpt>
      <trkpt lat="43.40987" lon="2.75492">
        <ele>669.7</ele>
        <time>2014-02-06T13:31:59Z</time>
      </trkpt>
      <trkpt lat="43.40992" lon="2.75492">
        <ele>669.7</ele>
        <time>2014-02-06T13:32:09Z</time>
      </trkpt>
      <trkpt lat="43.40996" lon="2.75493">
        <ele>670.18</ele>
        <time>2014-02-06T13:32:12Z</time>
      </trkpt>
      <trkpt lat="43.41013" lon="2.75495">
        <ele>669.22</ele>
        <time>2014-02-06T13:32:26Z</time>
      </trkpt>
      <trkpt lat="43.41018" lon="2.75496">
        <ele>665.37</ele>
        <time>2014-02-06T13:32:31Z</time>
      </trkpt>
      <trkpt lat="43.41018" lon="2.75497">
        <ele>667.29</ele>
        <time>2014-02-06T13:32:37Z</time>
      </trkpt>
      <trkpt lat="43.41019" lon="2.75499">
        <ele>668.73</ele>
        <time>2014-02-06T13:32:39Z</time>
      </trkpt>
      <trkpt lat="43.41023" lon="2.75499">
        <ele>667.77</ele>
        <time>2014-02-06T13:32:42Z</time>
      </trkpt>
      <trkpt lat="43.41033" lon="2.75505">
        <ele>666.81</ele>
        <time>2014-02-06T13:32:50Z</time>
      </trkpt>
      <trkpt lat="43.41037" lon="2.75505">
        <ele>668.25</ele>
        <time>2014-02-06T13:32:58Z</time>
      </trkpt>
      <trkpt lat="43.4104" lon="2.75508">
        <ele>667.29</ele>
        <time>2014-02-06T13:33:01Z</time>
      </trkpt>
      <trkpt lat="43.4106" lon="2.75515">
        <ele>665.37</ele>
        <time>2014-02-06T13:33:15Z</time>
      </trkpt>
      <trkpt lat="43.41075" lon="2.75525">
        <ele>663.45</ele>
        <time>2014-02-06T13:33:28Z</time>
      </trkpt>
      <trkpt lat="43.4108" lon="2.75529">
        <ele>664.41</ele>
        <time>2014-02-06T13:33:33Z</time>
      </trkpt>
      <trkpt lat="43.41093" lon="2.7554">
        <ele>661.04</ele>
        <time>2014-02-06T13:33:44Z</time>
      </trkpt>
      <trkpt lat="43.41102" lon="2.75553">
        <ele>659.12</ele>
        <time>2014-02-06T13:33:53Z</time>
      </trkpt>
      <trkpt lat="43.41108" lon="2.7556">
        <ele>657.68</ele>
        <time>2014-02-06T13:33:59Z</time>
      </trkpt>
      <trkpt lat="43.41113" lon="2.75561">
        <ele>656.24</ele>
        <time>2014-02-06T13:34:03Z</time>
      </trkpt>
      <trkpt lat="43.4112" lon="2.7556">
        <ele>657.68</ele>
        <time>2014-02-06T13:34:09Z</time>
      </trkpt>
      <trkpt lat="43.41122" lon="2.75561">
        <ele>658.16</ele>
        <time>2014-02-06T13:34:12Z</time>
      </trkpt>
      <trkpt lat="43.41135" lon="2.75569">
        <ele>656.24</ele>
        <time>2014-02-06T13:34:24Z</time>
      </trkpt>
      <trkpt lat="43.41139" lon="2.75575">
        <ele>656.24</ele>
        <time>2014-02-06T13:34:29Z</time>
      </trkpt>
      <trkpt lat="43.41143" lon="2.75581">
        <ele>653.83</ele>
        <time>2014-02-06T13:34:34Z</time>
      </trkpt>
      <trkpt lat="43.41147" lon="2.75586">
        <ele>656.24</ele>
        <time>2014-02-06T13:34:39Z</time>
      </trkpt>
      <trkpt lat="43.41148" lon="2.75589">
        <ele>654.31</ele>
        <time>2014-02-06T13:34:41Z</time>
      </trkpt>
      <trkpt lat="43.41151" lon="2.75591">
        <ele>653.35</ele>
        <time>2014-02-06T13:34:43Z</time>
      </trkpt>
      <trkpt lat="43.41154" lon="2.75592">
        <ele>653.35</ele>
        <time>2014-02-06T13:34:46Z</time>
      </trkpt>
      <trkpt lat="43.41168" lon="2.75606">
        <ele>651.91</ele>
        <time>2014-02-06T13:35:00Z</time>
      </trkpt>
      <trkpt lat="43.41177" lon="2.75616">
        <ele>650.95</ele>
        <time>2014-02-06T13:35:10Z</time>
      </trkpt>
      <trkpt lat="43.41182" lon="2.7562">
        <ele>649.51</ele>
        <time>2014-02-06T13:35:14Z</time>
      </trkpt>
      <trkpt lat="43.41186" lon="2.75623">
        <ele>649.03</ele>
        <time>2014-02-06T13:35:28Z</time>
      </trkpt>
      <trkpt lat="43.4119" lon="2.75629">
        <ele>648.07</ele>
        <time>2014-02-06T13:35:36Z</time>
      </trkpt>
      <trkpt lat="43.41193" lon="2.75632">
        <ele>652.87</ele>
        <time>2014-02-06T13:35:45Z</time>
      </trkpt>
      <trkpt lat="43.41196" lon="2.75632">
        <ele>648.55</ele>
        <time>2014-02-06T13:35:47Z</time>
      </trkpt>
      <trkpt lat="43.41197" lon="2.75633">
        <ele>648.07</ele>
        <time>2014-02-06T13:35:48Z</time>
      </trkpt>
      <trkpt lat="43.41204" lon="2.75631">
        <ele>648.07</ele>
        <time>2014-02-06T13:36:01Z</time>
      </trkpt>
      <trkpt lat="43.41205" lon="2.75631">
        <ele>648.07</ele>
        <time>2014-02-06T13:36:12Z</time>
      </trkpt>
      <trkpt lat="43.41209" lon="2.75637">
        <ele>646.14</ele>
        <time>2014-02-06T13:36:25Z</time>
      </trkpt>
      <trkpt lat="43.41209" lon="2.75634">
        <ele>647.59</ele>
        <time>2014-02-06T13:36:37Z</time>
      </trkpt>
      <trkpt lat="43.41207" lon="2.75632">
        <ele>645.66</ele>
        <time>2014-02-06T13:36:41Z</time>
      </trkpt>
      <trkpt lat="43.41204" lon="2.75629">
        <ele>647.59</ele>
        <time>2014-02-06T13:36:45Z</time>
      </trkpt>
      <trkpt lat="43.41205" lon="2.75632">
        <ele>648.55</ele>
        <time>2014-02-06T13:36:57Z</time>
      </trkpt>
      <trkpt lat="43.41205" lon="2.75635">
        <ele>648.07</ele>
        <time>2014-02-06T13:36:59Z</time>
      </trkpt>
      <trkpt lat="43.41206" lon="2.75659">
        <ele>649.03</ele>
        <time>2014-02-06T13:37:15Z</time>
      </trkpt>
      <trkpt lat="43.41206" lon="2.75671">
        <ele>647.1</ele>
        <time>2014-02-06T13:37:22Z</time>
      </trkpt>
      <trkpt lat="43.41208" lon="2.75692">
        <ele>646.62</ele>
        <time>2014-02-06T13:37:34Z</time>
      </trkpt>
      <trkpt lat="43.41208" lon="2.75715">
        <ele>645.18</ele>
        <time>2014-02-06T13:37:48Z</time>
      </trkpt>
      <trkpt lat="43.41207" lon="2.75722">
        <ele>644.7</ele>
        <time>2014-02-06T13:37:53Z</time>
      </trkpt>
      <trkpt lat="43.41209" lon="2.75735">
        <ele>645.66</ele>
        <time>2014-02-06T13:38:02Z</time>
      </trkpt>
      <trkpt lat="43.41215" lon="2.75758">
        <ele>647.1</ele>
        <time>2014-02-06T13:38:19Z</time>
      </trkpt>
      <trkpt lat="43.41224" lon="2.75774">
        <ele>649.03</ele>
        <time>2014-02-06T13:38:36Z</time>
      </trkpt>
      <trkpt lat="43.41225" lon="2.75776">
        <ele>649.03</ele>
        <time>2014-02-06T13:38:38Z</time>
      </trkpt>
      <trkpt lat="43.41237" lon="2.75789">
        <ele>651.91</ele>
        <time>2014-02-06T13:38:54Z</time>
      </trkpt>
      <trkpt lat="43.41246" lon="2.75798">
        <ele>655.28</ele>
        <time>2014-02-06T13:39:06Z</time>
      </trkpt>
      <trkpt lat="43.41257" lon="2.75809">
        <ele>658.16</ele>
        <time>2014-02-06T13:39:22Z</time>
      </trkpt>
      <trkpt lat="43.4127" lon="2.7582">
        <ele>661.04</ele>
        <time>2014-02-06T13:39:38Z</time>
      </trkpt>
      <trkpt lat="43.41281" lon="2.7583">
        <ele>662.97</ele>
        <time>2014-02-06T13:39:52Z</time>
      </trkpt>
      <trkpt lat="43.41292" lon="2.75842">
        <ele>666.33</ele>
        <time>2014-02-06T13:40:07Z</time>
      </trkpt>
      <trkpt lat="43.41293" lon="2.75844">
        <ele>666.81</ele>
        <time>2014-02-06T13:40:09Z</time>
      </trkpt>
      <trkpt lat="43.41303" lon="2.7586">
        <ele>670.18</ele>
        <time>2014-02-06T13:40:26Z</time>
      </trkpt>
      <trkpt lat="43.41305" lon="2.75861">
        <ele>670.66</ele>
        <time>2014-02-06T13:40:28Z</time>
      </trkpt>
      <trkpt lat="43.41311" lon="2.75871">
        <ele>673.06</ele>
        <time>2014-02-06T13:40:39Z</time>
      </trkpt>
      <trkpt lat="43.41316" lon="2.75883">
        <ele>676.42</ele>
        <time>2014-02-06T13:40:53Z</time>
      </trkpt>
      <trkpt lat="43.41316" lon="2.75883">
        <ele>676.91</ele>
        <time>2014-02-06T13:41:01Z</time>
      </trkpt>
      <trkpt lat="43.41315" lon="2.75886">
        <ele>679.31</ele>
        <time>2014-02-06T13:41:06Z</time>
      </trkpt>
      <trkpt lat="43.41315" lon="2.75887">
        <ele>676.91</ele>
        <time>2014-02-06T13:41:09Z</time>
      </trkpt>
      <trkpt lat="43.41316" lon="2.75889">
        <ele>676.91</ele>
        <time>2014-02-06T13:41:12Z</time>
      </trkpt>
      <trkpt lat="43.41317" lon="2.75896">
        <ele>675.46</ele>
        <time>2014-02-06T13:41:17Z</time>
      </trkpt>
      <trkpt lat="43.41319" lon="2.75914">
        <ele>674.5</ele>
        <time>2014-02-06T13:41:30Z</time>
      </trkpt>
      <trkpt lat="43.41319" lon="2.75917">
        <ele>673.06</ele>
        <time>2014-02-06T13:41:32Z</time>
      </trkpt>
      <trkpt lat="43.41322" lon="2.75937">
        <ele>671.14</ele>
        <time>2014-02-06T13:41:44Z</time>
      </trkpt>
      <trkpt lat="43.41325" lon="2.75943">
        <ele>670.66</ele>
        <time>2014-02-06T13:41:49Z</time>
      </trkpt>
      <trkpt lat="43.41337" lon="2.75943">
        <ele>672.58</ele>
        <time>2014-02-06T13:42:03Z</time>
      </trkpt>
      <trkpt lat="43.41338" lon="2.75943">
        <ele>672.58</ele>
        <time>2014-02-06T13:42:04Z</time>
      </trkpt>
      <trkpt lat="43.41343" lon="2.75945">
        <ele>672.58</ele>
        <time>2014-02-06T13:42:16Z</time>
      </trkpt>
      <trkpt lat="43.41343" lon="2.75946">
        <ele>670.66</ele>
        <time>2014-02-06T13:42:20Z</time>
      </trkpt>
      <trkpt lat="43.41347" lon="2.75949">
        <ele>669.7</ele>
        <time>2014-02-06T13:42:26Z</time>
      </trkpt>
      <trkpt lat="43.41351" lon="2.7595">
        <ele>668.25</ele>
        <time>2014-02-06T13:42:30Z</time>
      </trkpt>
      <trkpt lat="43.41356" lon="2.75953">
        <ele>665.85</ele>
        <time>2014-02-06T13:42:38Z</time>
      </trkpt>
      <trkpt lat="43.41363" lon="2.75953">
        <ele>663.93</ele>
        <time>2014-02-06T13:42:46Z</time>
      </trkpt>
      <trkpt lat="43.41366" lon="2.75952">
        <ele>663.45</ele>
        <time>2014-02-06T13:42:49Z</time>
      </trkpt>
      <trkpt lat="43.41369" lon="2.75952">
        <ele>662.01</ele>
        <time>2014-02-06T13:42:53Z</time>
      </trkpt>
      <trkpt lat="43.41369" lon="2.75951">
        <ele>661.04</ele>
        <time>2014-02-06T13:42:54Z</time>
      </trkpt>
      <trkpt lat="43.41375" lon="2.75946">
        <ele>659.6</ele>
        <time>2014-02-06T13:43:01Z</time>
      </trkpt>
      <trkpt lat="43.41382" lon="2.75946">
        <ele>657.2</ele>
        <time>2014-02-06T13:43:10Z</time>
      </trkpt>
      <trkpt lat="43.41386" lon="2.75948">
        <ele>654.8</ele>
        <time>2014-02-06T13:43:15Z</time>
      </trkpt>
      <trkpt lat="43.41392" lon="2.75951">
        <ele>650.95</ele>
        <time>2014-02-06T13:43:26Z</time>
      </trkpt>
      <trkpt lat="43.41393" lon="2.75951">
        <ele>650.95</ele>
        <time>2014-02-06T13:43:27Z</time>
      </trkpt>
      <trkpt lat="43.41399" lon="2.75952">
        <ele>647.59</ele>
        <time>2014-02-06T13:43:38Z</time>
      </trkpt>
      <trkpt lat="43.41407" lon="2.75951">
        <ele>644.22</ele>
        <time>2014-02-06T13:43:50Z</time>
      </trkpt>
      <trkpt lat="43.41408" lon="2.75951">
        <ele>644.22</ele>
        <time>2014-02-06T13:43:51Z</time>
      </trkpt>
      <trkpt lat="43.4141" lon="2.75951">
        <ele>640.86</ele>
        <time>2014-02-06T13:43:58Z</time>
      </trkpt>
      <trkpt lat="43.41411" lon="2.75951">
        <ele>640.86</ele>
        <time>2014-02-06T13:43:59Z</time>
      </trkpt>
      <trkpt lat="43.41417" lon="2.75944">
        <ele>638.45</ele>
        <time>2014-02-06T13:44:07Z</time>
      </trkpt>
      <trkpt lat="43.41419" lon="2.75943">
        <ele>637.49</ele>
        <time>2014-02-06T13:44:09Z</time>
      </trkpt>
      <trkpt lat="43.41421" lon="2.75941">
        <ele>637.49</ele>
        <time>2014-02-06T13:44:11Z</time>
      </trkpt>
      <trkpt lat="43.41427" lon="2.75934">
        <ele>635.57</ele>
        <time>2014-02-06T13:44:23Z</time>
      </trkpt>
      <trkpt lat="43.41434" lon="2.75931">
        <ele>633.65</ele>
        <time>2014-02-06T13:44:35Z</time>
      </trkpt>
      <trkpt lat="43.41439" lon="2.75922">
        <ele>631.72</ele>
        <time>2014-02-06T13:44:46Z</time>
      </trkpt>
      <trkpt lat="43.41447" lon="2.75915">
        <ele>628.84</ele>
        <time>2014-02-06T13:44:58Z</time>
      </trkpt>
      <trkpt lat="43.41449" lon="2.75915">
        <ele>628.84</ele>
        <time>2014-02-06T13:45:00Z</time>
      </trkpt>
      <trkpt lat="43.41452" lon="2.75912">
        <ele>628.36</ele>
        <time>2014-02-06T13:45:07Z</time>
      </trkpt>
      <trkpt lat="43.41454" lon="2.75905">
        <ele>627.4</ele>
        <time>2014-02-06T13:45:12Z</time>
      </trkpt>
      <trkpt lat="43.41458" lon="2.75894">
        <ele>627.88</ele>
        <time>2014-02-06T13:45:21Z</time>
      </trkpt>
      <trkpt lat="43.41463" lon="2.75887">
        <ele>628.84</ele>
        <time>2014-02-06T13:45:29Z</time>
      </trkpt>
      <trkpt lat="43.41468" lon="2.75875">
        <ele>625.96</ele>
        <time>2014-02-06T13:45:38Z</time>
      </trkpt>
      <trkpt lat="43.41471" lon="2.75869">
        <ele>624.99</ele>
        <time>2014-02-06T13:45:43Z</time>
      </trkpt>
      <trkpt lat="43.41473" lon="2.75869">
        <ele>623.55</ele>
        <time>2014-02-06T13:45:45Z</time>
      </trkpt>
      <trkpt lat="43.41474" lon="2.75869">
        <ele>623.07</ele>
        <time>2014-02-06T13:45:46Z</time>
      </trkpt>
      <trkpt lat="43.41477" lon="2.75868">
        <ele>621.63</ele>
        <time>2014-02-06T13:45:49Z</time>
      </trkpt>
      <trkpt lat="43.41479" lon="2.75865">
        <ele>619.71</ele>
        <time>2014-02-06T13:45:52Z</time>
      </trkpt>
      <trkpt lat="43.41483" lon="2.7586">
        <ele>617.78</ele>
        <time>2014-02-06T13:45:56Z</time>
      </trkpt>
      <trkpt lat="43.41486" lon="2.75848">
        <ele>614.42</ele>
        <time>2014-02-06T13:46:05Z</time>
      </trkpt>
      <trkpt lat="43.41488" lon="2.75845">
        <ele>612.98</ele>
        <time>2014-02-06T13:46:09Z</time>
      </trkpt>
      <trkpt lat="43.41492" lon="2.7584">
        <ele>611.06</ele>
        <time>2014-02-06T13:46:14Z</time>
      </trkpt>
      <trkpt lat="43.41499" lon="2.75832">
        <ele>608.65</ele>
        <time>2014-02-06T13:46:24Z</time>
      </trkpt>
      <trkpt lat="43.41504" lon="2.75828">
        <ele>606.25</ele>
        <time>2014-02-06T13:46:29Z</time>
      </trkpt>
      <trkpt lat="43.41516" lon="2.75822">
        <ele>603.85</ele>
        <time>2014-02-06T13:46:40Z</time>
      </trkpt>
      <trkpt lat="43.41522" lon="2.75828">
        <ele>604.81</ele>
        <time>2014-02-06T13:46:49Z</time>
      </trkpt>
      <trkpt lat="43.41523" lon="2.75827">
        <ele>603.85</ele>
        <time>2014-02-06T13:46:51Z</time>
      </trkpt>
      <trkpt lat="43.41522" lon="2.75828">
        <ele>604.33</ele>
        <time>2014-02-06T13:47:18Z</time>
      </trkpt>
      <trkpt lat="43.41523" lon="2.75828">
        <ele>603.36</ele>
        <time>2014-02-06T13:47:34Z</time>
      </trkpt>
      <trkpt lat="43.41531" lon="2.75832">
        <ele>604.81</ele>
        <time>2014-02-06T13:47:51Z</time>
      </trkpt>
      <trkpt lat="43.41546" lon="2.75824">
        <ele>604.33</ele>
        <time>2014-02-06T13:48:04Z</time>
      </trkpt>
      <trkpt lat="43.4155" lon="2.7582">
        <ele>604.33</ele>
        <time>2014-02-06T13:48:09Z</time>
      </trkpt>
      <trkpt lat="43.41554" lon="2.75816">
        <ele>604.81</ele>
        <time>2014-02-06T13:48:13Z</time>
      </trkpt>
      <trkpt lat="43.41565" lon="2.75798">
        <ele>607.21</ele>
        <time>2014-02-06T13:48:28Z</time>
      </trkpt>
      <trkpt lat="43.41574" lon="2.75778">
        <ele>607.69</ele>
        <time>2014-02-06T13:48:42Z</time>
      </trkpt>
      <trkpt lat="43.41582" lon="2.75758">
        <ele>607.69</ele>
        <time>2014-02-06T13:48:55Z</time>
      </trkpt>
      <trkpt lat="43.41582" lon="2.75755">
        <ele>608.65</ele>
        <time>2014-02-06T13:48:57Z</time>
      </trkpt>
      <trkpt lat="43.41589" lon="2.75739">
        <ele>608.65</ele>
        <time>2014-02-06T13:49:10Z</time>
      </trkpt>
      <trkpt lat="43.41593" lon="2.75728">
        <ele>609.61</ele>
        <time>2014-02-06T13:49:17Z</time>
      </trkpt>
      <trkpt lat="43.41603" lon="2.7571">
        <ele>610.09</ele>
        <time>2014-02-06T13:49:31Z</time>
      </trkpt>
      <trkpt lat="43.41605" lon="2.75706">
        <ele>610.09</ele>
        <time>2014-02-06T13:49:34Z</time>
      </trkpt>
      <trkpt lat="43.41616" lon="2.75691">
        <ele>612.5</ele>
        <time>2014-02-06T13:49:48Z</time>
      </trkpt>
      <trkpt lat="43.41618" lon="2.75688">
        <ele>612.98</ele>
        <time>2014-02-06T13:49:51Z</time>
      </trkpt>
      <trkpt lat="43.41625" lon="2.75672">
        <ele>612.98</ele>
        <time>2014-02-06T13:50:04Z</time>
      </trkpt>
      <trkpt lat="43.41635" lon="2.75656">
        <ele>612.5</ele>
        <time>2014-02-06T13:50:16Z</time>
      </trkpt>
      <trkpt lat="43.41637" lon="2.75652">
        <ele>613.94</ele>
        <time>2014-02-06T13:50:19Z</time>
      </trkpt>
      <trkpt lat="43.41646" lon="2.75634">
        <ele>613.94</ele>
        <time>2014-02-06T13:50:33Z</time>
      </trkpt>
      <trkpt lat="43.41646" lon="2.75632">
        <ele>613.46</ele>
        <time>2014-02-06T13:50:34Z</time>
      </trkpt>
      <trkpt lat="43.41649" lon="2.75628">
        <ele>614.42</ele>
        <time>2014-02-06T13:50:37Z</time>
      </trkpt>
      <trkpt lat="43.41653" lon="2.75611">
        <ele>613.46</ele>
        <time>2014-02-06T13:50:48Z</time>
      </trkpt>
      <trkpt lat="43.41653" lon="2.75604">
        <ele>613.94</ele>
        <time>2014-02-06T13:50:51Z</time>
      </trkpt>
      <trkpt lat="43.41654" lon="2.75594">
        <ele>613.46</ele>
        <time>2014-02-06T13:50:57Z</time>
      </trkpt>
      <trkpt lat="43.41654" lon="2.75591">
        <ele>613.46</ele>
        <time>2014-02-06T13:50:59Z</time>
      </trkpt>
      <trkpt lat="43.41655" lon="2.75567">
        <ele>612.98</ele>
        <time>2014-02-06T13:51:14Z</time>
      </trkpt>
      <trkpt lat="43.41655" lon="2.75542">
        <ele>612.98</ele>
        <time>2014-02-06T13:51:28Z</time>
      </trkpt>
      <trkpt lat="43.41655" lon="2.75523">
        <ele>612.5</ele>
        <time>2014-02-06T13:51:40Z</time>
      </trkpt>
      <trkpt lat="43.41655" lon="2.75507">
        <ele>613.46</ele>
        <time>2014-02-06T13:51:49Z</time>
      </trkpt>
      <trkpt lat="43.41656" lon="2.75504">
        <ele>612.98</ele>
        <time>2014-02-06T13:51:51Z</time>
      </trkpt>
      <trkpt lat="43.41654" lon="2.75482">
        <ele>613.94</ele>
        <time>2014-02-06T13:52:05Z</time>
      </trkpt>
      <trkpt lat="43.41654" lon="2.75479">
        <ele>614.42</ele>
        <time>2014-02-06T13:52:07Z</time>
      </trkpt>
      <trkpt lat="43.41655" lon="2.75469">
        <ele>614.42</ele>
        <time>2014-02-06T13:52:15Z</time>
      </trkpt>
      <trkpt lat="43.41653" lon="2.75459">
        <ele>615.38</ele>
        <time>2014-02-06T13:52:20Z</time>
      </trkpt>
      <trkpt lat="43.41653" lon="2.75454">
        <ele>614.42</ele>
        <time>2014-02-06T13:52:23Z</time>
      </trkpt>
      <trkpt lat="43.41652" lon="2.75429">
        <ele>613.94</ele>
        <time>2014-02-06T13:52:36Z</time>
      </trkpt>
      <trkpt lat="43.41652" lon="2.75417">
        <ele>614.9</ele>
        <time>2014-02-06T13:52:43Z</time>
      </trkpt>
      <trkpt lat="43.41651" lon="2.75404">
        <ele>615.86</ele>
        <time>2014-02-06T13:52:49Z</time>
      </trkpt>
      <trkpt lat="43.41652" lon="2.75387">
        <ele>615.38</ele>
        <time>2014-02-06T13:52:59Z</time>
      </trkpt>
      <trkpt lat="43.41652" lon="2.75375">
        <ele>615.38</ele>
        <time>2014-02-06T13:53:06Z</time>
      </trkpt>
      <trkpt lat="43.41652" lon="2.75363">
        <ele>615.86</ele>
        <time>2014-02-06T13:53:12Z</time>
      </trkpt>
      <trkpt lat="43.41654" lon="2.75341">
        <ele>615.86</ele>
        <time>2014-02-06T13:53:25Z</time>
      </trkpt>
      <trkpt lat="43.41654" lon="2.75335">
        <ele>616.34</ele>
        <time>2014-02-06T13:53:28Z</time>
      </trkpt>
      <trkpt lat="43.41655" lon="2.75332">
        <ele>616.82</ele>
        <time>2014-02-06T13:53:31Z</time>
      </trkpt>
      <trkpt lat="43.41661" lon="2.7531">
        <ele>617.78</ele>
        <time>2014-02-06T13:53:45Z</time>
      </trkpt>
      <trkpt lat="43.41663" lon="2.75304">
        <ele>617.78</ele>
        <time>2014-02-06T13:53:49Z</time>
      </trkpt>
      <trkpt lat="43.41668" lon="2.75292">
        <ele>617.3</ele>
        <time>2014-02-06T13:53:57Z</time>
      </trkpt>
      <trkpt lat="43.41674" lon="2.7527">
        <ele>618.26</ele>
        <time>2014-02-06T13:54:11Z</time>
      </trkpt>
      <trkpt lat="43.41674" lon="2.75268">
        <ele>618.26</ele>
        <time>2014-02-06T13:54:12Z</time>
      </trkpt>
      <trkpt lat="43.41677" lon="2.75255">
        <ele>618.75</ele>
        <time>2014-02-06T13:54:20Z</time>
      </trkpt>
      <trkpt lat="43.41678" lon="2.7525">
        <ele>620.19</ele>
        <time>2014-02-06T13:54:23Z</time>
      </trkpt>
      <trkpt lat="43.41678" lon="2.75246">
        <ele>618.75</ele>
        <time>2014-02-06T13:54:25Z</time>
      </trkpt>
      <trkpt lat="43.41679" lon="2.75241">
        <ele>620.19</ele>
        <time>2014-02-06T13:54:28Z</time>
      </trkpt>
      <trkpt lat="43.41681" lon="2.75236">
        <ele>619.71</ele>
        <time>2014-02-06T13:54:32Z</time>
      </trkpt>
      <trkpt lat="43.41685" lon="2.75211">
        <ele>619.71</ele>
        <time>2014-02-06T13:54:48Z</time>
      </trkpt>
      <trkpt lat="43.41682" lon="2.75192">
        <ele>618.26</ele>
        <time>2014-02-06T13:55:00Z</time>
      </trkpt>
      <trkpt lat="43.41678" lon="2.75169">
        <ele>616.34</ele>
        <time>2014-02-06T13:55:13Z</time>
      </trkpt>
      <trkpt lat="43.41674" lon="2.75149">
        <ele>615.38</ele>
        <time>2014-02-06T13:55:25Z</time>
      </trkpt>
      <trkpt lat="43.41666" lon="2.7513">
        <ele>614.9</ele>
        <time>2014-02-06T13:55:37Z</time>
      </trkpt>
      <trkpt lat="43.41665" lon="2.75124">
        <ele>613.46</ele>
        <time>2014-02-06T13:55:41Z</time>
      </trkpt>
      <trkpt lat="43.41664" lon="2.75114">
        <ele>611.54</ele>
        <time>2014-02-06T13:55:47Z</time>
      </trkpt>
      <trkpt lat="43.4166" lon="2.75094">
        <ele>610.57</ele>
        <time>2014-02-06T13:55:59Z</time>
      </trkpt>
      <trkpt lat="43.41657" lon="2.75073">
        <ele>608.65</ele>
        <time>2014-02-06T13:56:12Z</time>
      </trkpt>
      <trkpt lat="43.41657" lon="2.75069">
        <ele>608.65</ele>
        <time>2014-02-06T13:56:14Z</time>
      </trkpt>
      <trkpt lat="43.41657" lon="2.7506">
        <ele>607.69</ele>
        <time>2014-02-06T13:56:19Z</time>
      </trkpt>
      <trkpt lat="43.41656" lon="2.75054">
        <ele>606.73</ele>
        <time>2014-02-06T13:56:22Z</time>
      </trkpt>
      <trkpt lat="43.41656" lon="2.75043">
        <ele>607.21</ele>
        <time>2014-02-06T13:56:28Z</time>
      </trkpt>
      <trkpt lat="43.41658" lon="2.75027">
        <ele>604.33</ele>
        <time>2014-02-06T13:56:37Z</time>
      </trkpt>
      <trkpt lat="43.4166" lon="2.75019">
        <ele>603.85</ele>
        <time>2014-02-06T13:56:42Z</time>
      </trkpt>
      <trkpt lat="43.41664" lon="2.74997">
        <ele>601.92</ele>
        <time>2014-02-06T13:56:55Z</time>
      </trkpt>
      <trkpt lat="43.41665" lon="2.74992">
        <ele>600.96</ele>
        <time>2014-02-06T13:56:58Z</time>
      </trkpt>
      <trkpt lat="43.4167" lon="2.74972">
        <ele>599.52</ele>
        <time>2014-02-06T13:57:10Z</time>
      </trkpt>
      <trkpt lat="43.4167" lon="2.74968">
        <ele>598.56</ele>
        <time>2014-02-06T13:57:13Z</time>
      </trkpt>
      <trkpt lat="43.41672" lon="2.74955">
        <ele>598.08</ele>
        <time>2014-02-06T13:57:20Z</time>
      </trkpt>
      <trkpt lat="43.41672" lon="2.74932">
        <ele>597.12</ele>
        <time>2014-02-06T13:57:32Z</time>
      </trkpt>
      <trkpt lat="43.41671" lon="2.7492">
        <ele>597.12</ele>
        <time>2014-02-06T13:57:38Z</time>
      </trkpt>
      <trkpt lat="43.4167" lon="2.74915">
        <ele>597.12</ele>
        <time>2014-02-06T13:57:41Z</time>
      </trkpt>
      <trkpt lat="43.4166" lon="2.74891">
        <ele>596.15</ele>
        <time>2014-02-06T13:57:56Z</time>
      </trkpt>
      <trkpt lat="43.41649" lon="2.74874">
        <ele>594.71</ele>
        <time>2014-02-06T13:58:08Z</time>
      </trkpt>
      <trkpt lat="43.4164" lon="2.74858">
        <ele>594.71</ele>
        <time>2014-02-06T13:58:19Z</time>
      </trkpt>
      <trkpt lat="43.41636" lon="2.74848">
        <ele>594.71</ele>
        <time>2014-02-06T13:58:25Z</time>
      </trkpt>
      <trkpt lat="43.41629" lon="2.74836">
        <ele>594.23</ele>
        <time>2014-02-06T13:58:34Z</time>
      </trkpt>
      <trkpt lat="43.41622" lon="2.74817">
        <ele>593.75</ele>
        <time>2014-02-06T13:58:46Z</time>
      </trkpt>
      <trkpt lat="43.41618" lon="2.74803">
        <ele>592.79</ele>
        <time>2014-02-06T13:58:55Z</time>
      </trkpt>
      <trkpt lat="43.41611" lon="2.74782">
        <ele>591.35</ele>
        <time>2014-02-06T13:59:09Z</time>
      </trkpt>
      <trkpt lat="43.41609" lon="2.74775">
        <ele>590.39</ele>
        <time>2014-02-06T13:59:14Z</time>
      </trkpt>
      <trkpt lat="43.416" lon="2.74751">
        <ele>587.5</ele>
        <time>2014-02-06T13:59:29Z</time>
      </trkpt>
      <trkpt lat="43.41592" lon="2.74729">
        <ele>584.62</ele>
        <time>2014-02-06T13:59:43Z</time>
      </trkpt>
      <trkpt lat="43.4159" lon="2.74725">
        <ele>583.18</ele>
        <time>2014-02-06T13:59:47Z</time>
      </trkpt>
      <trkpt lat="43.41582" lon="2.74703">
        <ele>581.25</ele>
        <time>2014-02-06T14:00:01Z</time>
      </trkpt>
      <trkpt lat="43.41581" lon="2.74685">
        <ele>580.29</ele>
        <time>2014-02-06T14:00:12Z</time>
      </trkpt>
      <trkpt lat="43.41587" lon="2.74685">
        <ele>578.85</ele>
        <time>2014-02-06T14:00:19Z</time>
      </trkpt>
      <trkpt lat="43.41598" lon="2.74692">
        <ele>577.41</ele>
        <time>2014-02-06T14:00:31Z</time>
      </trkpt>
      <trkpt lat="43.41605" lon="2.74697">
        <ele>577.41</ele>
        <time>2014-02-06T14:00:36Z</time>
      </trkpt>
      <trkpt lat="43.41607" lon="2.74699">
        <ele>576.45</ele>
        <time>2014-02-06T14:00:38Z</time>
      </trkpt>
      <trkpt lat="43.41615" lon="2.74704">
        <ele>575.49</ele>
        <time>2014-02-06T14:00:46Z</time>
      </trkpt>
      <trkpt lat="43.41629" lon="2.74706">
        <ele>574.53</ele>
        <time>2014-02-06T14:00:57Z</time>
      </trkpt>
      <trkpt lat="43.41647" lon="2.74712">
        <ele>573.08</ele>
        <time>2014-02-06T14:01:11Z</time>
      </trkpt>
      <trkpt lat="43.41659" lon="2.74715">
        <ele>571.64</ele>
        <time>2014-02-06T14:01:22Z</time>
      </trkpt>
      <trkpt lat="43.41665" lon="2.74716">
        <ele>571.16</ele>
        <time>2014-02-06T14:01:26Z</time>
      </trkpt>
      <trkpt lat="43.41678" lon="2.74716">
        <ele>570.2</ele>
        <time>2014-02-06T14:01:36Z</time>
      </trkpt>
      <trkpt lat="43.41687" lon="2.74716">
        <ele>568.76</ele>
        <time>2014-02-06T14:01:44Z</time>
      </trkpt>
      <trkpt lat="43.41696" lon="2.74716">
        <ele>567.32</ele>
        <time>2014-02-06T14:01:51Z</time>
      </trkpt>
      <trkpt lat="43.41703" lon="2.74715">
        <ele>565.87</ele>
        <time>2014-02-06T14:01:55Z</time>
      </trkpt>
      <trkpt lat="43.4172" lon="2.74716">
        <ele>564.43</ele>
        <time>2014-02-06T14:02:09Z</time>
      </trkpt>
      <trkpt lat="43.4173" lon="2.74713">
        <ele>562.51</ele>
        <time>2014-02-06T14:02:18Z</time>
      </trkpt>
      <trkpt lat="43.41733" lon="2.74713">
        <ele>561.55</ele>
        <time>2014-02-06T14:02:20Z</time>
      </trkpt>
      <trkpt lat="43.41738" lon="2.74713">
        <ele>561.55</ele>
        <time>2014-02-06T14:02:24Z</time>
      </trkpt>
      <trkpt lat="43.41754" lon="2.74714">
        <ele>558.18</ele>
        <time>2014-02-06T14:02:37Z</time>
      </trkpt>
      <trkpt lat="43.41769" lon="2.74718">
        <ele>556.74</ele>
        <time>2014-02-06T14:02:49Z</time>
      </trkpt>
      <trkpt lat="43.41782" lon="2.74727">
        <ele>554.34</ele>
        <time>2014-02-06T14:03:01Z</time>
      </trkpt>
      <trkpt lat="43.41789" lon="2.74743">
        <ele>552.9</ele>
        <time>2014-02-06T14:03:12Z</time>
      </trkpt>
      <trkpt lat="43.41802" lon="2.74744">
        <ele>549.53</ele>
        <time>2014-02-06T14:03:25Z</time>
      </trkpt>
      <trkpt lat="43.41802" lon="2.7474">
        <ele>548.57</ele>
        <time>2014-02-06T14:03:29Z</time>
      </trkpt>
      <trkpt lat="43.41802" lon="2.74737">
        <ele>548.57</ele>
        <time>2014-02-06T14:03:31Z</time>
      </trkpt>
      <trkpt lat="43.41801" lon="2.74728">
        <ele>547.61</ele>
        <time>2014-02-06T14:03:35Z</time>
      </trkpt>
      <trkpt lat="43.418" lon="2.74724">
        <ele>547.13</ele>
        <time>2014-02-06T14:03:37Z</time>
      </trkpt>
      <trkpt lat="43.41799" lon="2.74721">
        <ele>546.17</ele>
        <time>2014-02-06T14:03:39Z</time>
      </trkpt>
      <trkpt lat="43.41795" lon="2.747">
        <ele>543.28</ele>
        <time>2014-02-06T14:03:51Z</time>
      </trkpt>
      <trkpt lat="43.41795" lon="2.74676">
        <ele>540.88</ele>
        <time>2014-02-06T14:04:05Z</time>
      </trkpt>
      <trkpt lat="43.41795" lon="2.74672">
        <ele>539.92</ele>
        <time>2014-02-06T14:04:07Z</time>
      </trkpt>
      <trkpt lat="43.41785" lon="2.74653">
        <ele>538.48</ele>
        <time>2014-02-06T14:04:17Z</time>
      </trkpt>
      <trkpt lat="43.41769" lon="2.74643">
        <ele>534.63</ele>
        <time>2014-02-06T14:04:31Z</time>
      </trkpt>
      <trkpt lat="43.41765" lon="2.74638">
        <ele>533.67</ele>
        <time>2014-02-06T14:04:36Z</time>
      </trkpt>
      <trkpt lat="43.41758" lon="2.74627">
        <ele>531.75</ele>
        <time>2014-02-06T14:04:48Z</time>
      </trkpt>
      <trkpt lat="43.41757" lon="2.74626">
        <ele>531.27</ele>
        <time>2014-02-06T14:04:49Z</time>
      </trkpt>
      <trkpt lat="43.41751" lon="2.7462">
        <ele>530.3</ele>
        <time>2014-02-06T14:04:54Z</time>
      </trkpt>
      <trkpt lat="43.41748" lon="2.74614">
        <ele>528.86</ele>
        <time>2014-02-06T14:04:58Z</time>
      </trkpt>
      <trkpt lat="43.4175" lon="2.74608">
        <ele>527.42</ele>
        <time>2014-02-06T14:05:03Z</time>
      </trkpt>
      <trkpt lat="43.41755" lon="2.74605">
        <ele>525.98</ele>
        <time>2014-02-06T14:05:09Z</time>
      </trkpt>
      <trkpt lat="43.41767" lon="2.74605">
        <ele>524.54</ele>
        <time>2014-02-06T14:05:21Z</time>
      </trkpt>
      <trkpt lat="43.41772" lon="2.74603">
        <ele>523.58</ele>
        <time>2014-02-06T14:05:25Z</time>
      </trkpt>
      <trkpt lat="43.41777" lon="2.74599">
        <ele>523.09</ele>
        <time>2014-02-06T14:05:28Z</time>
      </trkpt>
      <trkpt lat="43.4179" lon="2.74587">
        <ele>521.17</ele>
        <time>2014-02-06T14:05:42Z</time>
      </trkpt>
      <trkpt lat="43.41799" lon="2.7458">
        <ele>520.21</ele>
        <time>2014-02-06T14:05:54Z</time>
      </trkpt>
      <trkpt lat="43.41808" lon="2.74575">
        <ele>519.25</ele>
        <time>2014-02-06T14:06:06Z</time>
      </trkpt>
      <trkpt lat="43.41813" lon="2.74573">
        <ele>517.81</ele>
        <time>2014-02-06T14:06:18Z</time>
      </trkpt>
      <trkpt lat="43.41817" lon="2.74569">
        <ele>517.81</ele>
        <time>2014-02-06T14:06:38Z</time>
      </trkpt>
      <trkpt lat="43.41826" lon="2.74565">
        <ele>516.37</ele>
        <time>2014-02-06T14:06:49Z</time>
      </trkpt>
      <trkpt lat="43.4184" lon="2.74561">
        <ele>514.92</ele>
        <time>2014-02-06T14:07:05Z</time>
      </trkpt>
      <trkpt lat="43.4184" lon="2.7456">
        <ele>515.88</ele>
        <time>2014-02-06T14:07:09Z</time>
      </trkpt>
      <trkpt lat="43.41857" lon="2.74558">
        <ele>513</ele>
        <time>2014-02-06T14:07:22Z</time>
      </trkpt>
      <trkpt lat="43.4186" lon="2.74556">
        <ele>512.52</ele>
        <time>2014-02-06T14:07:25Z</time>
      </trkpt>
      <trkpt lat="43.41868" lon="2.74549">
        <ele>511.56</ele>
        <time>2014-02-06T14:07:33Z</time>
      </trkpt>
      <trkpt lat="43.41876" lon="2.74541">
        <ele>509.64</ele>
        <time>2014-02-06T14:07:45Z</time>
      </trkpt>
      <trkpt lat="43.41876" lon="2.7454">
        <ele>509.16</ele>
        <time>2014-02-06T14:07:47Z</time>
      </trkpt>
      <trkpt lat="43.41885" lon="2.7453">
        <ele>508.19</ele>
        <time>2014-02-06T14:08:00Z</time>
      </trkpt>
      <trkpt lat="43.41886" lon="2.74528">
        <ele>508.19</ele>
        <time>2014-02-06T14:08:02Z</time>
      </trkpt>
      <trkpt lat="43.41896" lon="2.74512">
        <ele>504.83</ele>
        <time>2014-02-06T14:08:17Z</time>
      </trkpt>
      <trkpt lat="43.41899" lon="2.7451">
        <ele>504.35</ele>
        <time>2014-02-06T14:08:31Z</time>
      </trkpt>
      <trkpt lat="43.41902" lon="2.74509">
        <ele>503.87</ele>
        <time>2014-02-06T14:08:33Z</time>
      </trkpt>
      <trkpt lat="43.41912" lon="2.74501">
        <ele>501.46</ele>
        <time>2014-02-06T14:08:41Z</time>
      </trkpt>
      <trkpt lat="43.41915" lon="2.74491">
        <ele>500.02</ele>
        <time>2014-02-06T14:08:48Z</time>
      </trkpt>
      <trkpt lat="43.41913" lon="2.74488">
        <ele>499.54</ele>
        <time>2014-02-06T14:08:51Z</time>
      </trkpt>
      <trkpt lat="43.41911" lon="2.74486">
        <ele>499.06</ele>
        <time>2014-02-06T14:08:53Z</time>
      </trkpt>
      <trkpt lat="43.41904" lon="2.74475">
        <ele>497.14</ele>
        <time>2014-02-06T14:09:09Z</time>
      </trkpt>
      <trkpt lat="43.41904" lon="2.74474">
        <ele>497.14</ele>
        <time>2014-02-06T14:09:13Z</time>
      </trkpt>
      <trkpt lat="43.41901" lon="2.74471">
        <ele>496.66</ele>
        <time>2014-02-06T14:09:16Z</time>
      </trkpt>
      <trkpt lat="43.41898" lon="2.74465">
        <ele>495.7</ele>
        <time>2014-02-06T14:09:20Z</time>
      </trkpt>
      <trkpt lat="43.41901" lon="2.74448">
        <ele>492.33</ele>
        <time>2014-02-06T14:09:31Z</time>
      </trkpt>
      <trkpt lat="43.41908" lon="2.74437">
        <ele>490.41</ele>
        <time>2014-02-06T14:09:39Z</time>
      </trkpt>
      <trkpt lat="43.41919" lon="2.74424">
        <ele>489.45</ele>
        <time>2014-02-06T14:09:49Z</time>
      </trkpt>
      <trkpt lat="43.4193" lon="2.74414">
        <ele>489.45</ele>
        <time>2014-02-06T14:09:59Z</time>
      </trkpt>
      <trkpt lat="43.41937" lon="2.74407">
        <ele>488.49</ele>
        <time>2014-02-06T14:10:12Z</time>
      </trkpt>
      <trkpt lat="43.41947" lon="2.74401">
        <ele>489.45</ele>
        <time>2014-02-06T14:10:23Z</time>
      </trkpt>
      <trkpt lat="43.41951" lon="2.74398">
        <ele>489.93</ele>
        <time>2014-02-06T14:10:26Z</time>
      </trkpt>
      <trkpt lat="43.41964" lon="2.74387">
        <ele>491.85</ele>
        <time>2014-02-06T14:10:38Z</time>
      </trkpt>
      <trkpt lat="43.41976" lon="2.74387">
        <ele>493.77</ele>
        <time>2014-02-06T14:10:50Z</time>
      </trkpt>
      <trkpt lat="43.41983" lon="2.74394">
        <ele>493.77</ele>
        <time>2014-02-06T14:11:02Z</time>
      </trkpt>
      <trkpt lat="43.41993" lon="2.74402">
        <ele>493.29</ele>
        <time>2014-02-06T14:11:15Z</time>
      </trkpt>
      <trkpt lat="43.41999" lon="2.74407">
        <ele>493.29</ele>
        <time>2014-02-06T14:11:22Z</time>
      </trkpt>
      <trkpt lat="43.42003" lon="2.74411">
        <ele>493.29</ele>
        <time>2014-02-06T14:11:26Z</time>
      </trkpt>
      <trkpt lat="43.42021" lon="2.74424">
        <ele>494.74</ele>
        <time>2014-02-06T14:11:42Z</time>
      </trkpt>
      <trkpt lat="43.42027" lon="2.74422">
        <ele>495.22</ele>
        <time>2014-02-06T14:11:46Z</time>
      </trkpt>
      <trkpt lat="43.42037" lon="2.74419">
        <ele>495.7</ele>
        <time>2014-02-06T14:11:55Z</time>
      </trkpt>
      <trkpt lat="43.42039" lon="2.74418">
        <ele>494.74</ele>
        <time>2014-02-06T14:11:58Z</time>
      </trkpt>
      <trkpt lat="43.42044" lon="2.74417">
        <ele>494.74</ele>
        <time>2014-02-06T14:12:03Z</time>
      </trkpt>
      <trkpt lat="43.42046" lon="2.74416">
        <ele>494.74</ele>
        <time>2014-02-06T14:12:05Z</time>
      </trkpt>
      <trkpt lat="43.42067" lon="2.74418">
        <ele>496.18</ele>
        <time>2014-02-06T14:12:21Z</time>
      </trkpt>
      <trkpt lat="43.42082" lon="2.7442">
        <ele>497.14</ele>
        <time>2014-02-06T14:12:35Z</time>
      </trkpt>
      <trkpt lat="43.42098" lon="2.74421">
        <ele>498.58</ele>
        <time>2014-02-06T14:12:49Z</time>
      </trkpt>
      <trkpt lat="43.42113" lon="2.74424">
        <ele>499.06</ele>
        <time>2014-02-06T14:13:01Z</time>
      </trkpt>
      <trkpt lat="43.42129" lon="2.74423">
        <ele>499.54</ele>
        <time>2014-02-06T14:13:14Z</time>
      </trkpt>
      <trkpt lat="43.42135" lon="2.7442">
        <ele>499.54</ele>
        <time>2014-02-06T14:13:20Z</time>
      </trkpt>
      <trkpt lat="43.42141" lon="2.74416">
        <ele>499.54</ele>
        <time>2014-02-06T14:13:27Z</time>
      </trkpt>
      <trkpt lat="43.4216" lon="2.74412">
        <ele>500.02</ele>
        <time>2014-02-06T14:13:42Z</time>
      </trkpt>
      <trkpt lat="43.42161" lon="2.74413">
        <ele>500.02</ele>
        <time>2014-02-06T14:13:43Z</time>
      </trkpt>
      <trkpt lat="43.42168" lon="2.74419">
        <ele>500.02</ele>
        <time>2014-02-06T14:13:54Z</time>
      </trkpt>
      <trkpt lat="43.42173" lon="2.7442">
        <ele>500.02</ele>
        <time>2014-02-06T14:13:58Z</time>
      </trkpt>
      <trkpt lat="43.42191" lon="2.74422">
        <ele>501.46</ele>
        <time>2014-02-06T14:14:12Z</time>
      </trkpt>
      <trkpt lat="43.42196" lon="2.74419">
        <ele>502.43</ele>
        <time>2014-02-06T14:14:18Z</time>
      </trkpt>
      <trkpt lat="43.42201" lon="2.74416">
        <ele>502.91</ele>
        <time>2014-02-06T14:14:24Z</time>
      </trkpt>
      <trkpt lat="43.42215" lon="2.74411">
        <ele>504.83</ele>
        <time>2014-02-06T14:14:37Z</time>
      </trkpt>
      <trkpt lat="43.42228" lon="2.74403">
        <ele>505.31</ele>
        <time>2014-02-06T14:14:48Z</time>
      </trkpt>
      <trkpt lat="43.42231" lon="2.74401">
        <ele>505.79</ele>
        <time>2014-02-06T14:14:50Z</time>
      </trkpt>
      <trkpt lat="43.42236" lon="2.74397">
        <ele>505.79</ele>
        <time>2014-02-06T14:14:55Z</time>
      </trkpt>
      <trkpt lat="43.42248" lon="2.7438">
        <ele>507.71</ele>
        <time>2014-02-06T14:15:09Z</time>
      </trkpt>
      <trkpt lat="43.42249" lon="2.74378">
        <ele>507.23</ele>
        <time>2014-02-06T14:15:11Z</time>
      </trkpt>
      <trkpt lat="43.42251" lon="2.7437">
        <ele>507.23</ele>
        <time>2014-02-06T14:15:17Z</time>
      </trkpt>
      <trkpt lat="43.42256" lon="2.74354">
        <ele>508.67</ele>
        <time>2014-02-06T14:15:29Z</time>
      </trkpt>
      <trkpt lat="43.42258" lon="2.74351">
        <ele>508.19</ele>
        <time>2014-02-06T14:15:32Z</time>
      </trkpt>
      <trkpt lat="43.42263" lon="2.74329">
        <ele>509.16</ele>
        <time>2014-02-06T14:15:45Z</time>
      </trkpt>
      <trkpt lat="43.42269" lon="2.74305">
        <ele>510.12</ele>
        <time>2014-02-06T14:16:00Z</time>
      </trkpt>
      <trkpt lat="43.42274" lon="2.74289">
        <ele>511.08</ele>
        <time>2014-02-06T14:16:11Z</time>
      </trkpt>
      <trkpt lat="43.42279" lon="2.74278">
        <ele>512.52</ele>
        <time>2014-02-06T14:16:18Z</time>
      </trkpt>
      <trkpt lat="43.42281" lon="2.74271">
        <ele>511.56</ele>
        <time>2014-02-06T14:16:22Z</time>
      </trkpt>
      <trkpt lat="43.42282" lon="2.74267">
        <ele>512.04</ele>
        <time>2014-02-06T14:16:24Z</time>
      </trkpt>
      <trkpt lat="43.42284" lon="2.74255">
        <ele>512.52</ele>
        <time>2014-02-06T14:16:31Z</time>
      </trkpt>
      <trkpt lat="43.42287" lon="2.74248">
        <ele>512.04</ele>
        <time>2014-02-06T14:16:36Z</time>
      </trkpt>
      <trkpt lat="43.42289" lon="2.74244">
        <ele>512.52</ele>
        <time>2014-02-06T14:16:40Z</time>
      </trkpt>
      <trkpt lat="43.42291" lon="2.74242">
        <ele>513</ele>
        <time>2014-02-06T14:16:42Z</time>
      </trkpt>
      <trkpt lat="43.42295" lon="2.74238">
        <ele>513.96</ele>
        <time>2014-02-06T14:16:46Z</time>
      </trkpt>
      <trkpt lat="43.42296" lon="2.74235">
        <ele>513.48</ele>
        <time>2014-02-06T14:16:48Z</time>
      </trkpt>
      <trkpt lat="43.42309" lon="2.74223">
        <ele>514.92</ele>
        <time>2014-02-06T14:17:02Z</time>
      </trkpt>
      <trkpt lat="43.42322" lon="2.74215">
        <ele>516.85</ele>
        <time>2014-02-06T14:17:16Z</time>
      </trkpt>
      <trkpt lat="43.42336" lon="2.74205">
        <ele>516.85</ele>
        <time>2014-02-06T14:17:29Z</time>
      </trkpt>
      <trkpt lat="43.42346" lon="2.74197">
        <ele>517.81</ele>
        <time>2014-02-06T14:17:41Z</time>
      </trkpt>
      <trkpt lat="43.4235" lon="2.74194">
        <ele>518.29</ele>
        <time>2014-02-06T14:17:46Z</time>
      </trkpt>
      <trkpt lat="43.42362" lon="2.74184">
        <ele>518.29</ele>
        <time>2014-02-06T14:17:58Z</time>
      </trkpt>
      <trkpt lat="43.42365" lon="2.74182">
        <ele>519.73</ele>
        <time>2014-02-06T14:18:01Z</time>
      </trkpt>
      <trkpt lat="43.42377" lon="2.74175">
        <ele>519.25</ele>
        <time>2014-02-06T14:18:12Z</time>
      </trkpt>
      <trkpt lat="43.42394" lon="2.74174">
        <ele>520.69</ele>
        <time>2014-02-06T14:18:27Z</time>
      </trkpt>
      <trkpt lat="43.42393" lon="2.74179">
        <ele>521.65</ele>
        <time>2014-02-06T14:18:33Z</time>
      </trkpt>
      <trkpt lat="43.42392" lon="2.74181">
        <ele>522.13</ele>
        <time>2014-02-06T14:18:37Z</time>
      </trkpt>
      <trkpt lat="43.42386" lon="2.74185">
        <ele>522.13</ele>
        <time>2014-02-06T14:18:43Z</time>
      </trkpt>
      <trkpt lat="43.42382" lon="2.74187">
        <ele>523.09</ele>
        <time>2014-02-06T14:18:47Z</time>
      </trkpt>
      <trkpt lat="43.42378" lon="2.7419">
        <ele>523.09</ele>
        <time>2014-02-06T14:18:52Z</time>
      </trkpt>
      <trkpt lat="43.42376" lon="2.74194">
        <ele>524.06</ele>
        <time>2014-02-06T14:18:55Z</time>
      </trkpt>
      <trkpt lat="43.4237" lon="2.74211">
        <ele>524.54</ele>
        <time>2014-02-06T14:19:09Z</time>
      </trkpt>
      <trkpt lat="43.42363" lon="2.74228">
        <ele>526.46</ele>
        <time>2014-02-06T14:19:23Z</time>
      </trkpt>
      <trkpt lat="43.42356" lon="2.74246">
        <ele>527.42</ele>
        <time>2014-02-06T14:19:36Z</time>
      </trkpt>
      <trkpt lat="43.42346" lon="2.74265">
        <ele>527.9</ele>
        <time>2014-02-06T14:19:52Z</time>
      </trkpt>
      <trkpt lat="43.42341" lon="2.74276">
        <ele>529.82</ele>
        <time>2014-02-06T14:20:07Z</time>
      </trkpt>
      <trkpt lat="43.42336" lon="2.74292">
        <ele>530.3</ele>
        <time>2014-02-06T14:20:17Z</time>
      </trkpt>
      <trkpt lat="43.42328" lon="2.74307">
        <ele>531.27</ele>
        <time>2014-02-06T14:20:28Z</time>
      </trkpt>
      <trkpt lat="43.42326" lon="2.74312">
        <ele>531.27</ele>
        <time>2014-02-06T14:20:31Z</time>
      </trkpt>
      <trkpt lat="43.42322" lon="2.74322">
        <ele>532.23</ele>
        <time>2014-02-06T14:20:38Z</time>
      </trkpt>
      <trkpt lat="43.42319" lon="2.74335">
        <ele>531.75</ele>
        <time>2014-02-06T14:20:47Z</time>
      </trkpt>
      <trkpt lat="43.42314" lon="2.74356">
        <ele>534.15</ele>
        <time>2014-02-06T14:21:01Z</time>
      </trkpt>
      <trkpt lat="43.4231" lon="2.74369">
        <ele>534.63</ele>
        <time>2014-02-06T14:21:10Z</time>
      </trkpt>
      <trkpt lat="43.42308" lon="2.74375">
        <ele>535.59</ele>
        <time>2014-02-06T14:21:14Z</time>
      </trkpt>
      <trkpt lat="43.42301" lon="2.74394">
        <ele>535.59</ele>
        <time>2014-02-06T14:21:28Z</time>
      </trkpt>
      <trkpt lat="43.423" lon="2.74401">
        <ele>536.07</ele>
        <time>2014-02-06T14:21:33Z</time>
      </trkpt>
      <trkpt lat="43.42298" lon="2.74408">
        <ele>537.03</ele>
        <time>2014-02-06T14:21:38Z</time>
      </trkpt>
      <trkpt lat="43.42297" lon="2.74411">
        <ele>537.03</ele>
        <time>2014-02-06T14:21:40Z</time>
      </trkpt>
      <trkpt lat="43.4229" lon="2.7443">
        <ele>537.51</ele>
        <time>2014-02-06T14:21:54Z</time>
      </trkpt>
      <trkpt lat="43.42284" lon="2.74441">
        <ele>538.48</ele>
        <time>2014-02-06T14:22:02Z</time>
      </trkpt>
      <trkpt lat="43.42271" lon="2.74454">
        <ele>539.92</ele>
        <time>2014-02-06T14:22:16Z</time>
      </trkpt>
      <trkpt lat="43.42267" lon="2.74458">
        <ele>540.4</ele>
        <time>2014-02-06T14:22:21Z</time>
      </trkpt>
      <trkpt lat="43.42263" lon="2.74461">
        <ele>541.36</ele>
        <time>2014-02-06T14:22:24Z</time>
      </trkpt>
      <trkpt lat="43.42259" lon="2.74464">
        <ele>541.36</ele>
        <time>2014-02-06T14:22:28Z</time>
      </trkpt>
      <trkpt lat="43.42245" lon="2.74473">
        <ele>542.32</ele>
        <time>2014-02-06T14:22:42Z</time>
      </trkpt>
      <trkpt lat="43.42233" lon="2.74482">
        <ele>543.28</ele>
        <time>2014-02-06T14:22:55Z</time>
      </trkpt>
      <trkpt lat="43.42226" lon="2.74489">
        <ele>543.76</ele>
        <time>2014-02-06T14:23:07Z</time>
      </trkpt>
      <trkpt lat="43.42224" lon="2.74496">
        <ele>543.76</ele>
        <time>2014-02-06T14:23:17Z</time>
      </trkpt>
      <trkpt lat="43.42222" lon="2.74506">
        <ele>543.76</ele>
        <time>2014-02-06T14:23:23Z</time>
      </trkpt>
      <trkpt lat="43.42223" lon="2.74529">
        <ele>544.24</ele>
        <time>2014-02-06T14:23:37Z</time>
      </trkpt>
      <trkpt lat="43.42224" lon="2.74542">
        <ele>543.76</ele>
        <time>2014-02-06T14:23:51Z</time>
      </trkpt>
      <trkpt lat="43.42225" lon="2.74544">
        <ele>543.28</ele>
        <time>2014-02-06T14:24:20Z</time>
      </trkpt>
      <trkpt lat="43.42228" lon="2.74537">
        <ele>544.24</ele>
        <time>2014-02-06T14:24:26Z</time>
      </trkpt>
      <trkpt lat="43.42239" lon="2.74525">
        <ele>546.17</ele>
        <time>2014-02-06T14:24:40Z</time>
      </trkpt>
      <trkpt lat="43.42243" lon="2.74529">
        <ele>547.13</ele>
        <time>2014-02-06T14:24:45Z</time>
      </trkpt>
      <trkpt lat="43.42253" lon="2.74543">
        <ele>549.53</ele>
        <time>2014-02-06T14:24:59Z</time>
      </trkpt>
      <trkpt lat="43.42269" lon="2.74551">
        <ele>552.9</ele>
        <time>2014-02-06T14:25:16Z</time>
      </trkpt>
      <trkpt lat="43.42276" lon="2.74555">
        <ele>553.86</ele>
        <time>2014-02-06T14:25:23Z</time>
      </trkpt>
      <trkpt lat="43.42286" lon="2.7457">
        <ele>556.26</ele>
        <time>2014-02-06T14:25:38Z</time>
      </trkpt>
      <trkpt lat="43.42293" lon="2.74583">
        <ele>557.7</ele>
        <time>2014-02-06T14:25:48Z</time>
      </trkpt>
      <trkpt lat="43.42299" lon="2.74601">
        <ele>560.11</ele>
        <time>2014-02-06T14:26:01Z</time>
      </trkpt>
      <trkpt lat="43.42303" lon="2.74606">
        <ele>559.62</ele>
        <time>2014-02-06T14:26:05Z</time>
      </trkpt>
      <trkpt lat="43.42314" lon="2.74622">
        <ele>562.99</ele>
        <time>2014-02-06T14:26:21Z</time>
      </trkpt>
      <trkpt lat="43.42324" lon="2.74636">
        <ele>563.95</ele>
        <time>2014-02-06T14:26:35Z</time>
      </trkpt>
      <trkpt lat="43.42326" lon="2.74638">
        <ele>563.95</ele>
        <time>2014-02-06T14:26:37Z</time>
      </trkpt>
      <trkpt lat="43.42328" lon="2.74641">
        <ele>564.43</ele>
        <time>2014-02-06T14:26:39Z</time>
      </trkpt>
      <trkpt lat="43.42335" lon="2.74651">
        <ele>564.43</ele>
        <time>2014-02-06T14:26:48Z</time>
      </trkpt>
      <trkpt lat="43.42348" lon="2.74671">
        <ele>565.87</ele>
        <time>2014-02-06T14:27:04Z</time>
      </trkpt>
      <trkpt lat="43.42361" lon="2.74687">
        <ele>565.87</ele>
        <time>2014-02-06T14:27:18Z</time>
      </trkpt>
      <trkpt lat="43.42365" lon="2.74692">
        <ele>565.87</ele>
        <time>2014-02-06T14:27:23Z</time>
      </trkpt>
      <trkpt lat="43.4238" lon="2.74704">
        <ele>566.35</ele>
        <time>2014-02-06T14:27:38Z</time>
      </trkpt>
      <trkpt lat="43.42394" lon="2.74714">
        <ele>565.39</ele>
        <time>2014-02-06T14:27:50Z</time>
      </trkpt>
      <trkpt lat="43.42404" lon="2.74726">
        <ele>565.39</ele>
        <time>2014-02-06T14:28:05Z</time>
      </trkpt>
      <trkpt lat="43.42414" lon="2.74731">
        <ele>566.35</ele>
        <time>2014-02-06T14:28:17Z</time>
      </trkpt>
      <trkpt lat="43.42427" lon="2.74738">
        <ele>567.8</ele>
        <time>2014-02-06T14:28:28Z</time>
      </trkpt>
      <trkpt lat="43.42445" lon="2.74739">
        <ele>571.64</ele>
        <time>2014-02-06T14:28:41Z</time>
      </trkpt>
      <trkpt lat="43.42453" lon="2.74738">
        <ele>572.6</ele>
        <time>2014-02-06T14:28:50Z</time>
      </trkpt>
      <trkpt lat="43.42468" lon="2.74732">
        <ele>575.97</ele>
        <time>2014-02-06T14:29:03Z</time>
      </trkpt>
      <trkpt lat="43.42469" lon="2.74732">
        <ele>575.97</ele>
        <time>2014-02-06T14:29:04Z</time>
      </trkpt>
      <trkpt lat="43.42482" lon="2.74734">
        <ele>577.41</ele>
        <time>2014-02-06T14:29:17Z</time>
      </trkpt>
      <trkpt lat="43.42496" lon="2.74734">
        <ele>579.81</ele>
        <time>2014-02-06T14:29:31Z</time>
      </trkpt>
      <trkpt lat="43.42509" lon="2.74731">
        <ele>582.22</ele>
        <time>2014-02-06T14:29:45Z</time>
      </trkpt>
      <trkpt lat="43.42522" lon="2.74727">
        <ele>584.62</ele>
        <time>2014-02-06T14:29:57Z</time>
      </trkpt>
      <trkpt lat="43.42537" lon="2.74722">
        <ele>586.54</ele>
        <time>2014-02-06T14:30:11Z</time>
      </trkpt>
      <trkpt lat="43.42548" lon="2.74715">
        <ele>588.95</ele>
        <time>2014-02-06T14:30:23Z</time>
      </trkpt>
      <trkpt lat="43.42562" lon="2.7471">
        <ele>592.31</ele>
        <time>2014-02-06T14:30:37Z</time>
      </trkpt>
      <trkpt lat="43.42575" lon="2.74706">
        <ele>594.71</ele>
        <time>2014-02-06T14:30:51Z</time>
      </trkpt>
      <trkpt lat="43.42587" lon="2.74698">
        <ele>597.12</ele>
        <time>2014-02-06T14:31:05Z</time>
      </trkpt>
      <trkpt lat="43.42596" lon="2.7469">
        <ele>599.52</ele>
        <time>2014-02-06T14:31:16Z</time>
      </trkpt>
      <trkpt lat="43.42606" lon="2.74682">
        <ele>602.4</ele>
        <time>2014-02-06T14:31:29Z</time>
      </trkpt>
      <trkpt lat="43.42615" lon="2.74677">
        <ele>604.81</ele>
        <time>2014-02-06T14:31:40Z</time>
      </trkpt>
      <trkpt lat="43.42627" lon="2.7467">
        <ele>606.25</ele>
        <time>2014-02-06T14:31:55Z</time>
      </trkpt>
      <trkpt lat="43.4264" lon="2.74666">
        <ele>609.13</ele>
        <time>2014-02-06T14:32:12Z</time>
      </trkpt>
      <trkpt lat="43.42651" lon="2.7466">
        <ele>612.02</ele>
        <time>2014-02-06T14:32:27Z</time>
      </trkpt>
      <trkpt lat="43.4266" lon="2.74654">
        <ele>614.42</ele>
        <time>2014-02-06T14:32:37Z</time>
      </trkpt>
      <trkpt lat="43.4267" lon="2.74647">
        <ele>615.38</ele>
        <time>2014-02-06T14:32:49Z</time>
      </trkpt>
      <trkpt lat="43.42679" lon="2.74637">
        <ele>617.78</ele>
        <time>2014-02-06T14:33:02Z</time>
      </trkpt>
      <trkpt lat="43.42686" lon="2.74634">
        <ele>618.75</ele>
        <time>2014-02-06T14:33:10Z</time>
      </trkpt>
      <trkpt lat="43.42698" lon="2.74632">
        <ele>619.23</ele>
        <time>2014-02-06T14:33:22Z</time>
      </trkpt>
      <trkpt lat="43.42699" lon="2.74632">
        <ele>619.71</ele>
        <time>2014-02-06T14:33:23Z</time>
      </trkpt>
      <trkpt lat="43.42714" lon="2.74635">
        <ele>620.19</ele>
        <time>2014-02-06T14:33:37Z</time>
      </trkpt>
      <trkpt lat="43.42725" lon="2.74644">
        <ele>623.55</ele>
        <time>2014-02-06T14:33:50Z</time>
      </trkpt>
      <trkpt lat="43.42726" lon="2.74645">
        <ele>623.55</ele>
        <time>2014-02-06T14:33:51Z</time>
      </trkpt>
      <trkpt lat="43.42733" lon="2.74649">
        <ele>623.07</ele>
        <time>2014-02-06T14:33:58Z</time>
      </trkpt>
      <trkpt lat="43.4274" lon="2.7466">
        <ele>624.51</ele>
        <time>2014-02-06T14:34:08Z</time>
      </trkpt>
      <trkpt lat="43.42743" lon="2.74662">
        <ele>624.51</ele>
        <time>2014-02-06T14:34:20Z</time>
      </trkpt>
      <trkpt lat="43.42743" lon="2.74662">
        <ele>614.42</ele>
        <time>2014-02-06T14:34:32Z</time>
      </trkpt>
      <trkpt lat="43.42743" lon="2.74662">
        <ele>627.88</ele>
        <time>2014-02-06T14:34:33Z</time>
      </trkpt>
      <trkpt lat="43.42749" lon="2.74669">
        <ele>625.96</ele>
        <time>2014-02-06T14:34:41Z</time>
      </trkpt>
      <trkpt lat="43.42753" lon="2.74672">
        <ele>625.96</ele>
        <time>2014-02-06T14:34:45Z</time>
      </trkpt>
      <trkpt lat="43.4276" lon="2.74678">
        <ele>627.4</ele>
        <time>2014-02-06T14:34:53Z</time>
      </trkpt>
      <trkpt lat="43.4277" lon="2.74687">
        <ele>629.32</ele>
        <time>2014-02-06T14:35:07Z</time>
      </trkpt>
      <trkpt lat="43.42772" lon="2.7469">
        <ele>629.8</ele>
        <time>2014-02-06T14:35:10Z</time>
      </trkpt>
      <trkpt lat="43.42783" lon="2.747">
        <ele>632.2</ele>
        <time>2014-02-06T14:35:24Z</time>
      </trkpt>
      <trkpt lat="43.42791" lon="2.74708">
        <ele>634.61</ele>
        <time>2014-02-06T14:35:37Z</time>
      </trkpt>
      <trkpt lat="43.42798" lon="2.74714">
        <ele>635.57</ele>
        <time>2014-02-06T14:35:51Z</time>
      </trkpt>
      <trkpt lat="43.428" lon="2.74717">
        <ele>636.53</ele>
        <time>2014-02-06T14:36:02Z</time>
      </trkpt>
      <trkpt lat="43.42801" lon="2.74719">
        <ele>637.01</ele>
        <time>2014-02-06T14:36:04Z</time>
      </trkpt>
      <trkpt lat="43.4281" lon="2.74729">
        <ele>639.41</ele>
        <time>2014-02-06T14:36:18Z</time>
      </trkpt>
      <trkpt lat="43.42815" lon="2.74732">
        <ele>639.89</ele>
        <time>2014-02-06T14:36:25Z</time>
      </trkpt>
      <trkpt lat="43.42827" lon="2.74741">
        <ele>641.82</ele>
        <time>2014-02-06T14:36:39Z</time>
      </trkpt>
      <trkpt lat="43.42836" lon="2.74747">
        <ele>643.26</ele>
        <time>2014-02-06T14:36:54Z</time>
      </trkpt>
      <trkpt lat="43.42843" lon="2.74755">
        <ele>645.18</ele>
        <time>2014-02-06T14:37:06Z</time>
      </trkpt>
      <trkpt lat="43.42853" lon="2.74762">
        <ele>647.1</ele>
        <time>2014-02-06T14:37:20Z</time>
      </trkpt>
      <trkpt lat="43.4286" lon="2.74767">
        <ele>648.55</ele>
        <time>2014-02-06T14:37:34Z</time>
      </trkpt>
      <trkpt lat="43.42866" lon="2.74773">
        <ele>651.91</ele>
        <time>2014-02-06T14:37:45Z</time>
      </trkpt>
      <trkpt lat="43.42875" lon="2.74778">
        <ele>653.35</ele>
        <time>2014-02-06T14:37:58Z</time>
      </trkpt>
      <trkpt lat="43.4288" lon="2.74782">
        <ele>654.31</ele>
        <time>2014-02-06T14:38:16Z</time>
      </trkpt>
      <trkpt lat="43.42888" lon="2.74789">
        <ele>657.68</ele>
        <time>2014-02-06T14:38:28Z</time>
      </trkpt>
      <trkpt lat="43.42896" lon="2.74796">
        <ele>659.12</ele>
        <time>2014-02-06T14:38:41Z</time>
      </trkpt>
      <trkpt lat="43.42901" lon="2.74799">
        <ele>661.04</ele>
        <time>2014-02-06T14:38:54Z</time>
      </trkpt>
      <trkpt lat="43.42907" lon="2.74804">
        <ele>662.49</ele>
        <time>2014-02-06T14:39:08Z</time>
      </trkpt>
      <trkpt lat="43.42915" lon="2.74812">
        <ele>664.41</ele>
        <time>2014-02-06T14:39:21Z</time>
      </trkpt>
      <trkpt lat="43.42921" lon="2.74818">
        <ele>667.77</ele>
        <time>2014-02-06T14:39:33Z</time>
      </trkpt>
      <trkpt lat="43.42924" lon="2.74823">
        <ele>668.73</ele>
        <time>2014-02-06T14:39:46Z</time>
      </trkpt>
      <trkpt lat="43.4293" lon="2.74824">
        <ele>670.18</ele>
        <time>2014-02-06T14:40:01Z</time>
      </trkpt>
      <trkpt lat="43.42938" lon="2.74829">
        <ele>672.1</ele>
        <time>2014-02-06T14:40:13Z</time>
      </trkpt>
      <trkpt lat="43.42947" lon="2.74835">
        <ele>675.46</ele>
        <time>2014-02-06T14:40:26Z</time>
      </trkpt>
      <trkpt lat="43.42952" lon="2.74839">
        <ele>676.42</ele>
        <time>2014-02-06T14:40:38Z</time>
      </trkpt>
      <trkpt lat="43.4296" lon="2.74848">
        <ele>679.31</ele>
        <time>2014-02-06T14:40:52Z</time>
      </trkpt>
      <trkpt lat="43.42968" lon="2.7486">
        <ele>680.75</ele>
        <time>2014-02-06T14:41:05Z</time>
      </trkpt>
      <trkpt lat="43.42972" lon="2.74866">
        <ele>682.19</ele>
        <time>2014-02-06T14:41:20Z</time>
      </trkpt>
      <trkpt lat="43.42976" lon="2.74875">
        <ele>682.19</ele>
        <time>2014-02-06T14:41:26Z</time>
      </trkpt>
      <trkpt lat="43.42981" lon="2.74881">
        <ele>682.67</ele>
        <time>2014-02-06T14:41:33Z</time>
      </trkpt>
      <trkpt lat="43.42983" lon="2.74886">
        <ele>682.67</ele>
        <time>2014-02-06T14:41:37Z</time>
      </trkpt>
      <trkpt lat="43.42987" lon="2.74893">
        <ele>684.6</ele>
        <time>2014-02-06T14:41:50Z</time>
      </trkpt>
      <trkpt lat="43.42987" lon="2.74893">
        <ele>683.63</ele>
        <time>2014-02-06T14:42:04Z</time>
      </trkpt>
      <trkpt lat="43.42986" lon="2.74891">
        <ele>683.63</ele>
        <time>2014-02-06T14:42:23Z</time>
      </trkpt>
      <trkpt lat="43.42986" lon="2.74891">
        <ele>683.15</ele>
        <time>2014-02-06T14:42:51Z</time>
      </trkpt>
      <trkpt lat="43.42986" lon="2.74893">
        <ele>684.12</ele>
        <time>2014-02-06T14:43:12Z</time>
      </trkpt>
      <trkpt lat="43.42986" lon="2.74893">
        <ele>683.63</ele>
        <time>2014-02-06T14:43:35Z</time>
      </trkpt>
      <trkpt lat="43.42986" lon="2.74893">
        <ele>683.63</ele>
        <time>2014-02-06T14:43:55Z</time>
      </trkpt>
      <trkpt lat="43.42987" lon="2.7491">
        <ele>683.63</ele>
        <time>2014-02-06T14:44:08Z</time>
      </trkpt>
      <trkpt lat="43.42988" lon="2.74911">
        <ele>683.63</ele>
        <time>2014-02-06T14:44:09Z</time>
      </trkpt>
      <trkpt lat="43.42993" lon="2.74929">
        <ele>683.15</ele>
        <time>2014-02-06T14:44:21Z</time>
      </trkpt>
      <trkpt lat="43.42994" lon="2.74932">
        <ele>682.19</ele>
        <time>2014-02-06T14:44:23Z</time>
      </trkpt>
      <trkpt lat="43.42996" lon="2.74935">
        <ele>681.23</ele>
        <time>2014-02-06T14:44:25Z</time>
      </trkpt>
      <trkpt lat="43.42998" lon="2.74944">
        <ele>682.67</ele>
        <time>2014-02-06T14:44:30Z</time>
      </trkpt>
      <trkpt lat="43.43" lon="2.74947">
        <ele>682.19</ele>
        <time>2014-02-06T14:44:32Z</time>
      </trkpt>
      <trkpt lat="43.43004" lon="2.74962">
        <ele>683.15</ele>
        <time>2014-02-06T14:44:42Z</time>
      </trkpt>
      <trkpt lat="43.43007" lon="2.74985">
        <ele>683.63</ele>
        <time>2014-02-06T14:44:55Z</time>
      </trkpt>
      <trkpt lat="43.43009" lon="2.75005">
        <ele>681.71</ele>
        <time>2014-02-06T14:45:07Z</time>
      </trkpt>
      <trkpt lat="43.43011" lon="2.75024">
        <ele>680.75</ele>
        <time>2014-02-06T14:45:19Z</time>
      </trkpt>
      <trkpt lat="43.43006" lon="2.75047">
        <ele>680.27</ele>
        <time>2014-02-06T14:45:31Z</time>
      </trkpt>
      <trkpt lat="43.43005" lon="2.75055">
        <ele>680.27</ele>
        <time>2014-02-06T14:45:35Z</time>
      </trkpt>
      <trkpt lat="43.43006" lon="2.75066">
        <ele>680.27</ele>
        <time>2014-02-06T14:45:42Z</time>
      </trkpt>
      <trkpt lat="43.43006" lon="2.75078">
        <ele>679.31</ele>
        <time>2014-02-06T14:45:48Z</time>
      </trkpt>
      <trkpt lat="43.43008" lon="2.75101">
        <ele>680.27</ele>
        <time>2014-02-06T14:46:01Z</time>
      </trkpt>
      <trkpt lat="43.43004" lon="2.75116">
        <ele>679.31</ele>
        <time>2014-02-06T14:46:09Z</time>
      </trkpt>
      <trkpt lat="43.43" lon="2.75141">
        <ele>679.31</ele>
        <time>2014-02-06T14:46:24Z</time>
      </trkpt>
      <trkpt lat="43.43" lon="2.75143">
        <ele>679.79</ele>
        <time>2014-02-06T14:46:25Z</time>
      </trkpt>
      <trkpt lat="43.43001" lon="2.7515">
        <ele>678.35</ele>
        <time>2014-02-06T14:46:29Z</time>
      </trkpt>
      <trkpt lat="43.43004" lon="2.75173">
        <ele>677.39</ele>
        <time>2014-02-06T14:46:42Z</time>
      </trkpt>
      <trkpt lat="43.43006" lon="2.75181">
        <ele>676.42</ele>
        <time>2014-02-06T14:46:47Z</time>
      </trkpt>
      <trkpt lat="43.43005" lon="2.75201">
        <ele>674.02</ele>
        <time>2014-02-06T14:47:00Z</time>
      </trkpt>
      <trkpt lat="43.43005" lon="2.75202">
        <ele>674.02</ele>
        <time>2014-02-06T14:47:01Z</time>
      </trkpt>
      <trkpt lat="43.43007" lon="2.75226">
        <ele>672.58</ele>
        <time>2014-02-06T14:47:14Z</time>
      </trkpt>
      <trkpt lat="43.43006" lon="2.7524">
        <ele>673.06</ele>
        <time>2014-02-06T14:47:21Z</time>
      </trkpt>
      <trkpt lat="43.43005" lon="2.75252">
        <ele>672.1</ele>
        <time>2014-02-06T14:47:28Z</time>
      </trkpt>
      <trkpt lat="43.43004" lon="2.75264">
        <ele>672.1</ele>
        <time>2014-02-06T14:47:35Z</time>
      </trkpt>
      <trkpt lat="43.43003" lon="2.75292">
        <ele>671.14</ele>
        <time>2014-02-06T14:47:49Z</time>
      </trkpt>
      <trkpt lat="43.43003" lon="2.75299">
        <ele>671.62</ele>
        <time>2014-02-06T14:47:52Z</time>
      </trkpt>
      <trkpt lat="43.43005" lon="2.75321">
        <ele>670.66</ele>
        <time>2014-02-06T14:48:04Z</time>
      </trkpt>
      <trkpt lat="43.43008" lon="2.75344">
        <ele>670.18</ele>
        <time>2014-02-06T14:48:17Z</time>
      </trkpt>
      <trkpt lat="43.43012" lon="2.75364">
        <ele>670.66</ele>
        <time>2014-02-06T14:48:29Z</time>
      </trkpt>
      <trkpt lat="43.43015" lon="2.75387">
        <ele>669.7</ele>
        <time>2014-02-06T14:48:43Z</time>
      </trkpt>
      <trkpt lat="43.43018" lon="2.75397">
        <ele>669.22</ele>
        <time>2014-02-06T14:48:51Z</time>
      </trkpt>
      <trkpt lat="43.43021" lon="2.75425">
        <ele>670.18</ele>
        <time>2014-02-06T14:49:06Z</time>
      </trkpt>
      <trkpt lat="43.43018" lon="2.75443">
        <ele>669.7</ele>
        <time>2014-02-06T14:49:16Z</time>
      </trkpt>
      <trkpt lat="43.43016" lon="2.7545">
        <ele>671.62</ele>
        <time>2014-02-06T14:49:20Z</time>
      </trkpt>
      <trkpt lat="43.43017" lon="2.75453">
        <ele>670.18</ele>
        <time>2014-02-06T14:49:22Z</time>
      </trkpt>
      <trkpt lat="43.43021" lon="2.75473">
        <ele>672.58</ele>
        <time>2014-02-06T14:49:35Z</time>
      </trkpt>
      <trkpt lat="43.43024" lon="2.75477">
        <ele>672.58</ele>
        <time>2014-02-06T14:49:39Z</time>
      </trkpt>
      <trkpt lat="43.43026" lon="2.75485">
        <ele>672.58</ele>
        <time>2014-02-06T14:49:44Z</time>
      </trkpt>
      <trkpt lat="43.43025" lon="2.75494">
        <ele>673.54</ele>
        <time>2014-02-06T14:49:50Z</time>
      </trkpt>
      <trkpt lat="43.43022" lon="2.75507">
        <ele>674.5</ele>
        <time>2014-02-06T14:49:59Z</time>
      </trkpt>
      <trkpt lat="43.4303" lon="2.75527">
        <ele>676.42</ele>
        <time>2014-02-06T14:50:13Z</time>
      </trkpt>
      <trkpt lat="43.43033" lon="2.75532">
        <ele>676.91</ele>
        <time>2014-02-06T14:50:17Z</time>
      </trkpt>
      <trkpt lat="43.4304" lon="2.75553">
        <ele>679.31</ele>
        <time>2014-02-06T14:50:33Z</time>
      </trkpt>
      <trkpt lat="43.43042" lon="2.7557">
        <ele>680.27</ele>
        <time>2014-02-06T14:50:45Z</time>
      </trkpt>
      <trkpt lat="43.43044" lon="2.75577">
        <ele>681.23</ele>
        <time>2014-02-06T14:50:52Z</time>
      </trkpt>
      <trkpt lat="43.43048" lon="2.75585">
        <ele>681.71</ele>
        <time>2014-02-06T14:50:59Z</time>
      </trkpt>
      <trkpt lat="43.43051" lon="2.75593">
        <ele>684.12</ele>
        <time>2014-02-06T14:51:05Z</time>
      </trkpt>
      <trkpt lat="43.43057" lon="2.75609">
        <ele>685.56</ele>
        <time>2014-02-06T14:51:18Z</time>
      </trkpt>
      <trkpt lat="43.43064" lon="2.75624">
        <ele>688.92</ele>
        <time>2014-02-06T14:51:30Z</time>
      </trkpt>
      <trkpt lat="43.43074" lon="2.75631">
        <ele>689.4</ele>
        <time>2014-02-06T14:51:42Z</time>
      </trkpt>
      <trkpt lat="43.43076" lon="2.75637">
        <ele>690.84</ele>
        <time>2014-02-06T14:51:48Z</time>
      </trkpt>
      <trkpt lat="43.43076" lon="2.75642">
        <ele>690.84</ele>
        <time>2014-02-06T14:51:52Z</time>
      </trkpt>
      <trkpt lat="43.43079" lon="2.75657">
        <ele>693.25</ele>
        <time>2014-02-06T14:52:04Z</time>
      </trkpt>
      <trkpt lat="43.43083" lon="2.75664">
        <ele>693.25</ele>
        <time>2014-02-06T14:52:10Z</time>
      </trkpt>
      <trkpt lat="43.43087" lon="2.75669">
        <ele>694.21</ele>
        <time>2014-02-06T14:52:15Z</time>
      </trkpt>
      <trkpt lat="43.431" lon="2.7568">
        <ele>696.61</ele>
        <time>2014-02-06T14:52:28Z</time>
      </trkpt>
      <trkpt lat="43.43108" lon="2.7569">
        <ele>698.53</ele>
        <time>2014-02-06T14:52:40Z</time>
      </trkpt>
      <trkpt lat="43.43114" lon="2.75698">
        <ele>699.98</ele>
        <time>2014-02-06T14:52:49Z</time>
      </trkpt>
      <trkpt lat="43.43122" lon="2.75705">
        <ele>700.94</ele>
        <time>2014-02-06T14:52:57Z</time>
      </trkpt>
      <trkpt lat="43.43133" lon="2.75715">
        <ele>701.9</ele>
        <time>2014-02-06T14:53:10Z</time>
      </trkpt>
      <trkpt lat="43.4314" lon="2.75728">
        <ele>703.82</ele>
        <time>2014-02-06T14:53:23Z</time>
      </trkpt>
      <trkpt lat="43.43143" lon="2.75735">
        <ele>704.3</ele>
        <time>2014-02-06T14:53:29Z</time>
      </trkpt>
      <trkpt lat="43.43145" lon="2.75739">
        <ele>705.26</ele>
        <time>2014-02-06T14:53:32Z</time>
      </trkpt>
      <trkpt lat="43.43149" lon="2.75745">
        <ele>706.23</ele>
        <time>2014-02-06T14:53:37Z</time>
      </trkpt>
      <trkpt lat="43.43158" lon="2.75765">
        <ele>707.19</ele>
        <time>2014-02-06T14:53:52Z</time>
      </trkpt>
      <trkpt lat="43.4316" lon="2.75771">
        <ele>707.19</ele>
        <time>2014-02-06T14:53:56Z</time>
      </trkpt>
      <trkpt lat="43.43164" lon="2.75776">
        <ele>708.15</ele>
        <time>2014-02-06T14:54:01Z</time>
      </trkpt>
      <trkpt lat="43.43168" lon="2.7578">
        <ele>708.63</ele>
        <time>2014-02-06T14:54:05Z</time>
      </trkpt>
      <trkpt lat="43.43179" lon="2.75786">
        <ele>708.15</ele>
        <time>2014-02-06T14:54:16Z</time>
      </trkpt>
      <trkpt lat="43.43183" lon="2.75789">
        <ele>708.63</ele>
        <time>2014-02-06T14:54:21Z</time>
      </trkpt>
      <trkpt lat="43.43186" lon="2.75791">
        <ele>708.15</ele>
        <time>2014-02-06T14:54:24Z</time>
      </trkpt>
      <trkpt lat="43.4319" lon="2.75798">
        <ele>708.63</ele>
        <time>2014-02-06T14:54:29Z</time>
      </trkpt>
      <trkpt lat="43.43198" lon="2.7581">
        <ele>709.59</ele>
        <time>2014-02-06T14:54:41Z</time>
      </trkpt>
      <trkpt lat="43.43203" lon="2.75813">
        <ele>709.59</ele>
        <time>2014-02-06T14:54:46Z</time>
      </trkpt>
      <trkpt lat="43.43213" lon="2.75815">
        <ele>710.07</ele>
        <time>2014-02-06T14:54:57Z</time>
      </trkpt>
      <trkpt lat="43.43223" lon="2.7582">
        <ele>711.51</ele>
        <time>2014-02-06T14:55:08Z</time>
      </trkpt>
      <trkpt lat="43.43226" lon="2.7582">
        <ele>711.99</ele>
        <time>2014-02-06T14:55:22Z</time>
      </trkpt>
      <trkpt lat="43.43226" lon="2.75821">
        <ele>711.51</ele>
        <time>2014-02-06T14:55:43Z</time>
      </trkpt>
      <trkpt lat="43.43228" lon="2.75824">
        <ele>711.99</ele>
        <time>2014-02-06T14:55:56Z</time>
      </trkpt>
      <trkpt lat="43.43229" lon="2.75825">
        <ele>712.95</ele>
        <time>2014-02-06T14:55:58Z</time>
      </trkpt>
      <trkpt lat="43.43236" lon="2.75826">
        <ele>713.92</ele>
        <time>2014-02-06T14:56:06Z</time>
      </trkpt>
      <trkpt lat="43.43238" lon="2.75826">
        <ele>712.95</ele>
        <time>2014-02-06T14:56:08Z</time>
      </trkpt>
      <trkpt lat="43.43242" lon="2.75828">
        <ele>713.92</ele>
        <time>2014-02-06T14:56:12Z</time>
      </trkpt>
      <trkpt lat="43.43257" lon="2.7584">
        <ele>715.84</ele>
        <time>2014-02-06T14:56:27Z</time>
      </trkpt>
      <trkpt lat="43.43261" lon="2.75843">
        <ele>716.8</ele>
        <time>2014-02-06T14:56:31Z</time>
      </trkpt>
      <trkpt lat="43.43276" lon="2.75854">
        <ele>717.76</ele>
        <time>2014-02-06T14:56:45Z</time>
      </trkpt>
      <trkpt lat="43.43277" lon="2.75857">
        <ele>718.24</ele>
        <time>2014-02-06T14:56:47Z</time>
      </trkpt>
      <trkpt lat="43.43286" lon="2.75869">
        <ele>720.16</ele>
        <time>2014-02-06T14:57:00Z</time>
      </trkpt>
      <trkpt lat="43.43289" lon="2.75871">
        <ele>720.16</ele>
        <time>2014-02-06T14:57:03Z</time>
      </trkpt>
      <trkpt lat="43.43293" lon="2.75876">
        <ele>721.61</ele>
        <time>2014-02-06T14:57:09Z</time>
      </trkpt>
      <trkpt lat="43.43306" lon="2.75888">
        <ele>723.05</ele>
        <time>2014-02-06T14:57:24Z</time>
      </trkpt>
      <trkpt lat="43.4331" lon="2.75894">
        <ele>724.01</ele>
        <time>2014-02-06T14:57:29Z</time>
      </trkpt>
      <trkpt lat="43.43321" lon="2.75907">
        <ele>724.97</ele>
        <time>2014-02-06T14:57:42Z</time>
      </trkpt>
      <trkpt lat="43.43332" lon="2.7592">
        <ele>725.93</ele>
        <time>2014-02-06T14:57:55Z</time>
      </trkpt>
      <trkpt lat="43.43335" lon="2.75922">
        <ele>725.93</ele>
        <time>2014-02-06T14:57:58Z</time>
      </trkpt>
      <trkpt lat="43.43346" lon="2.75924">
        <ele>727.37</ele>
        <time>2014-02-06T14:58:09Z</time>
      </trkpt>
      <trkpt lat="43.43351" lon="2.75928">
        <ele>728.34</ele>
        <time>2014-02-06T14:58:17Z</time>
      </trkpt>
      <trkpt lat="43.43353" lon="2.75929">
        <ele>727.86</ele>
        <time>2014-02-06T14:58:19Z</time>
      </trkpt>
      <trkpt lat="43.43355" lon="2.75932">
        <ele>729.3</ele>
        <time>2014-02-06T14:58:25Z</time>
      </trkpt>
      <trkpt lat="43.43357" lon="2.75935">
        <ele>728.34</ele>
        <time>2014-02-06T14:58:27Z</time>
      </trkpt>
      <trkpt lat="43.43359" lon="2.75941">
        <ele>728.82</ele>
        <time>2014-02-06T14:58:32Z</time>
      </trkpt>
      <trkpt lat="43.43366" lon="2.75951">
        <ele>729.3</ele>
        <time>2014-02-06T14:58:40Z</time>
      </trkpt>
      <trkpt lat="43.43372" lon="2.75968">
        <ele>731.22</ele>
        <time>2014-02-06T14:58:55Z</time>
      </trkpt>
      <trkpt lat="43.43375" lon="2.75973">
        <ele>731.22</ele>
        <time>2014-02-06T14:58:59Z</time>
      </trkpt>
      <trkpt lat="43.4338" lon="2.75985">
        <ele>732.18</ele>
        <time>2014-02-06T14:59:09Z</time>
      </trkpt>
      <trkpt lat="43.43377" lon="2.76008">
        <ele>730.74</ele>
        <time>2014-02-06T14:59:22Z</time>
      </trkpt>
      <trkpt lat="43.43375" lon="2.76022">
        <ele>731.22</ele>
        <time>2014-02-06T14:59:32Z</time>
      </trkpt>
      <trkpt lat="43.43385" lon="2.76043">
        <ele>732.18</ele>
        <time>2014-02-06T14:59:49Z</time>
      </trkpt>
      <trkpt lat="43.43391" lon="2.76047">
        <ele>731.7</ele>
        <time>2014-02-06T15:00:01Z</time>
      </trkpt>
      <trkpt lat="43.43396" lon="2.76054">
        <ele>731.7</ele>
        <time>2014-02-06T15:00:09Z</time>
      </trkpt>
      <trkpt lat="43.43403" lon="2.76057">
        <ele>732.18</ele>
        <time>2014-02-06T15:00:14Z</time>
      </trkpt>
      <trkpt lat="43.4342" lon="2.76056">
        <ele>733.62</ele>
        <time>2014-02-06T15:00:27Z</time>
      </trkpt>
      <trkpt lat="43.43424" lon="2.76056">
        <ele>734.1</ele>
        <time>2014-02-06T15:00:31Z</time>
      </trkpt>
      <trkpt lat="43.43434" lon="2.76059">
        <ele>734.1</ele>
        <time>2014-02-06T15:00:40Z</time>
      </trkpt>
      <trkpt lat="43.43437" lon="2.76062">
        <ele>734.1</ele>
        <time>2014-02-06T15:00:43Z</time>
      </trkpt>
      <trkpt lat="43.4344" lon="2.76066">
        <ele>734.58</ele>
        <time>2014-02-06T15:00:46Z</time>
      </trkpt>
      <trkpt lat="43.43449" lon="2.76087">
        <ele>735.55</ele>
        <time>2014-02-06T15:01:00Z</time>
      </trkpt>
      <trkpt lat="43.4345" lon="2.76093">
        <ele>735.07</ele>
        <time>2014-02-06T15:01:04Z</time>
      </trkpt>
      <trkpt lat="43.4346" lon="2.76107">
        <ele>735.07</ele>
        <time>2014-02-06T15:01:16Z</time>
      </trkpt>
      <trkpt lat="43.43475" lon="2.76119">
        <ele>735.55</ele>
        <time>2014-02-06T15:01:31Z</time>
      </trkpt>
      <trkpt lat="43.43485" lon="2.76135">
        <ele>735.07</ele>
        <time>2014-02-06T15:01:44Z</time>
      </trkpt>
      <trkpt lat="43.43488" lon="2.76145">
        <ele>734.58</ele>
        <time>2014-02-06T15:01:50Z</time>
      </trkpt>
      <trkpt lat="43.43489" lon="2.76153">
        <ele>735.07</ele>
        <time>2014-02-06T15:01:55Z</time>
      </trkpt>
      <trkpt lat="43.43494" lon="2.7616">
        <ele>735.55</ele>
        <time>2014-02-06T15:02:01Z</time>
      </trkpt>
      <trkpt lat="43.43503" lon="2.76162">
        <ele>736.03</ele>
        <time>2014-02-06T15:02:14Z</time>
      </trkpt>
      <trkpt lat="43.43506" lon="2.76162">
        <ele>735.55</ele>
        <time>2014-02-06T15:02:29Z</time>
      </trkpt>
      <trkpt lat="43.43506" lon="2.76162">
        <ele>736.03</ele>
        <time>2014-02-06T15:02:50Z</time>
      </trkpt>
      <trkpt lat="43.43506" lon="2.76162">
        <ele>736.03</ele>
        <time>2014-02-06T15:03:06Z</time>
      </trkpt>
      <trkpt lat="43.43516" lon="2.76167">
        <ele>736.99</ele>
        <time>2014-02-06T15:03:18Z</time>
      </trkpt>
      <trkpt lat="43.4352" lon="2.76168">
        <ele>736.51</ele>
        <time>2014-02-06T15:03:22Z</time>
      </trkpt>
      <trkpt lat="43.43532" lon="2.76171">
        <ele>737.47</ele>
        <time>2014-02-06T15:03:36Z</time>
      </trkpt>
      <trkpt lat="43.43535" lon="2.76171">
        <ele>737.95</ele>
        <time>2014-02-06T15:03:39Z</time>
      </trkpt>
      <trkpt lat="43.43548" lon="2.76172">
        <ele>738.91</ele>
        <time>2014-02-06T15:03:53Z</time>
      </trkpt>
      <trkpt lat="43.43559" lon="2.76171">
        <ele>739.87</ele>
        <time>2014-02-06T15:04:06Z</time>
      </trkpt>
      <trkpt lat="43.4357" lon="2.76173">
        <ele>741.31</ele>
        <time>2014-02-06T15:04:18Z</time>
      </trkpt>
      <trkpt lat="43.43582" lon="2.76177">
        <ele>742.76</ele>
        <time>2014-02-06T15:04:31Z</time>
      </trkpt>
      <trkpt lat="43.43593" lon="2.76182">
        <ele>744.68</ele>
        <time>2014-02-06T15:04:42Z</time>
      </trkpt>
      <trkpt lat="43.43599" lon="2.76177">
        <ele>743.24</ele>
        <time>2014-02-06T15:04:50Z</time>
      </trkpt>
      <trkpt lat="43.43603" lon="2.76167">
        <ele>743.24</ele>
        <time>2014-02-06T15:04:58Z</time>
      </trkpt>
      <trkpt lat="43.43613" lon="2.76168">
        <ele>743.24</ele>
        <time>2014-02-06T15:05:10Z</time>
      </trkpt>
      <trkpt lat="43.43622" lon="2.76177">
        <ele>743.72</ele>
        <time>2014-02-06T15:05:20Z</time>
      </trkpt>
      <trkpt lat="43.43624" lon="2.76187">
        <ele>743.72</ele>
        <time>2014-02-06T15:05:28Z</time>
      </trkpt>
      <trkpt lat="43.43627" lon="2.76202">
        <ele>746.6</ele>
        <time>2014-02-06T15:05:38Z</time>
      </trkpt>
      <trkpt lat="43.43627" lon="2.76206">
        <ele>746.6</ele>
        <time>2014-02-06T15:05:40Z</time>
      </trkpt>
      <trkpt lat="43.43628" lon="2.76209">
        <ele>747.08</ele>
        <time>2014-02-06T15:05:42Z</time>
      </trkpt>
      <trkpt lat="43.43629" lon="2.76212">
        <ele>746.12</ele>
        <time>2014-02-06T15:05:45Z</time>
      </trkpt>
      <trkpt lat="43.43632" lon="2.76223">
        <ele>746.6</ele>
        <time>2014-02-06T15:05:58Z</time>
      </trkpt>
      <trkpt lat="43.43633" lon="2.76225">
        <ele>746.6</ele>
        <time>2014-02-06T15:06:09Z</time>
      </trkpt>
      <trkpt lat="43.43635" lon="2.76227">
        <ele>746.6</ele>
        <time>2014-02-06T15:06:12Z</time>
      </trkpt>
      <trkpt lat="43.43642" lon="2.76229">
        <ele>745.64</ele>
        <time>2014-02-06T15:06:24Z</time>
      </trkpt>
      <trkpt lat="43.43645" lon="2.76227">
        <ele>745.16</ele>
        <time>2014-02-06T15:06:38Z</time>
      </trkpt>
      <trkpt lat="43.43651" lon="2.76228">
        <ele>745.16</ele>
        <time>2014-02-06T15:06:52Z</time>
      </trkpt>
      <trkpt lat="43.43662" lon="2.76225">
        <ele>744.2</ele>
        <time>2014-02-06T15:07:04Z</time>
      </trkpt>
      <trkpt lat="43.43677" lon="2.76224">
        <ele>743.72</ele>
        <time>2014-02-06T15:07:17Z</time>
      </trkpt>
      <trkpt lat="43.43693" lon="2.76219">
        <ele>742.28</ele>
        <time>2014-02-06T15:07:30Z</time>
      </trkpt>
      <trkpt lat="43.437" lon="2.76218">
        <ele>741.79</ele>
        <time>2014-02-06T15:07:41Z</time>
      </trkpt>
      <trkpt lat="43.43707" lon="2.76213">
        <ele>741.79</ele>
        <time>2014-02-06T15:07:53Z</time>
      </trkpt>
      <trkpt lat="43.43713" lon="2.76214">
        <ele>741.31</ele>
        <time>2014-02-06T15:08:06Z</time>
      </trkpt>
      <trkpt lat="43.43716" lon="2.76213">
        <ele>740.83</ele>
        <time>2014-02-06T15:08:11Z</time>
      </trkpt>
      <trkpt lat="43.43722" lon="2.76212">
        <ele>740.35</ele>
        <time>2014-02-06T15:08:24Z</time>
      </trkpt>
      <trkpt lat="43.43728" lon="2.76208">
        <ele>740.35</ele>
        <time>2014-02-06T15:08:36Z</time>
      </trkpt>
      <trkpt lat="43.43741" lon="2.76203">
        <ele>739.39</ele>
        <time>2014-02-06T15:08:50Z</time>
      </trkpt>
      <trkpt lat="43.43749" lon="2.76207">
        <ele>738.91</ele>
        <time>2014-02-06T15:09:00Z</time>
      </trkpt>
      <trkpt lat="43.43753" lon="2.76219">
        <ele>739.87</ele>
        <time>2014-02-06T15:09:10Z</time>
      </trkpt>
      <trkpt lat="43.43754" lon="2.76238">
        <ele>741.31</ele>
        <time>2014-02-06T15:09:23Z</time>
      </trkpt>
      <trkpt lat="43.43754" lon="2.76242">
        <ele>740.35</ele>
        <time>2014-02-06T15:09:26Z</time>
      </trkpt>
      <trkpt lat="43.43755" lon="2.76258">
        <ele>742.76</ele>
        <time>2014-02-06T15:09:38Z</time>
      </trkpt>
      <trkpt lat="43.43757" lon="2.76266">
        <ele>743.24</ele>
        <time>2014-02-06T15:09:43Z</time>
      </trkpt>
      <trkpt lat="43.43762" lon="2.76289">
        <ele>742.76</ele>
        <time>2014-02-06T15:09:57Z</time>
      </trkpt>
      <trkpt lat="43.43768" lon="2.76313">
        <ele>742.28</ele>
        <time>2014-02-06T15:10:11Z</time>
      </trkpt>
      <trkpt lat="43.43772" lon="2.7634">
        <ele>742.28</ele>
        <time>2014-02-06T15:10:26Z</time>
      </trkpt>
      <trkpt lat="43.43771" lon="2.76355">
        <ele>741.79</ele>
        <time>2014-02-06T15:10:36Z</time>
      </trkpt>
      <trkpt lat="43.4377" lon="2.76368">
        <ele>741.79</ele>
        <time>2014-02-06T15:10:44Z</time>
      </trkpt>
      <trkpt lat="43.43767" lon="2.76383">
        <ele>742.28</ele>
        <time>2014-02-06T15:10:51Z</time>
      </trkpt>
      <trkpt lat="43.43761" lon="2.76405">
        <ele>741.79</ele>
        <time>2014-02-06T15:11:04Z</time>
      </trkpt>
      <trkpt lat="43.43761" lon="2.76407">
        <ele>742.28</ele>
        <time>2014-02-06T15:11:05Z</time>
      </trkpt>
      <trkpt lat="43.43758" lon="2.76432">
        <ele>741.31</ele>
        <time>2014-02-06T15:11:20Z</time>
      </trkpt>
      <trkpt lat="43.43758" lon="2.76435">
        <ele>741.79</ele>
        <time>2014-02-06T15:11:22Z</time>
      </trkpt>
      <trkpt lat="43.43757" lon="2.76449">
        <ele>741.31</ele>
        <time>2014-02-06T15:11:30Z</time>
      </trkpt>
      <trkpt lat="43.43757" lon="2.76454">
        <ele>741.31</ele>
        <time>2014-02-06T15:11:33Z</time>
      </trkpt>
      <trkpt lat="43.43754" lon="2.76466">
        <ele>741.31</ele>
        <time>2014-02-06T15:11:41Z</time>
      </trkpt>
      <trkpt lat="43.43753" lon="2.76469">
        <ele>741.79</ele>
        <time>2014-02-06T15:11:43Z</time>
      </trkpt>
      <trkpt lat="43.43752" lon="2.76487">
        <ele>741.31</ele>
        <time>2014-02-06T15:11:55Z</time>
      </trkpt>
      <trkpt lat="43.43752" lon="2.76492">
        <ele>742.28</ele>
        <time>2014-02-06T15:11:57Z</time>
      </trkpt>
      <trkpt lat="43.43753" lon="2.76504">
        <ele>741.79</ele>
        <time>2014-02-06T15:12:05Z</time>
      </trkpt>
      <trkpt lat="43.43752" lon="2.76514">
        <ele>740.35</ele>
        <time>2014-02-06T15:12:10Z</time>
      </trkpt>
      <trkpt lat="43.43752" lon="2.7652">
        <ele>740.83</ele>
        <time>2014-02-06T15:12:14Z</time>
      </trkpt>
      <trkpt lat="43.43752" lon="2.76533">
        <ele>742.28</ele>
        <time>2014-02-06T15:12:22Z</time>
      </trkpt>
      <trkpt lat="43.43755" lon="2.76549">
        <ele>743.24</ele>
        <time>2014-02-06T15:12:32Z</time>
      </trkpt>
      <trkpt lat="43.43755" lon="2.76556">
        <ele>742.28</ele>
        <time>2014-02-06T15:12:37Z</time>
      </trkpt>
      <trkpt lat="43.43756" lon="2.76579">
        <ele>744.2</ele>
        <time>2014-02-06T15:12:51Z</time>
      </trkpt>
      <trkpt lat="43.43756" lon="2.76583">
        <ele>744.68</ele>
        <time>2014-02-06T15:12:53Z</time>
      </trkpt>
      <trkpt lat="43.43757" lon="2.76587">
        <ele>743.24</ele>
        <time>2014-02-06T15:12:56Z</time>
      </trkpt>
      <trkpt lat="43.43757" lon="2.76596">
        <ele>744.2</ele>
        <time>2014-02-06T15:13:01Z</time>
      </trkpt>
      <trkpt lat="43.43759" lon="2.76603">
        <ele>744.2</ele>
        <time>2014-02-06T15:13:05Z</time>
      </trkpt>
      <trkpt lat="43.43763" lon="2.7662">
        <ele>745.64</ele>
        <time>2014-02-06T15:13:18Z</time>
      </trkpt>
      <trkpt lat="43.43764" lon="2.76627">
        <ele>745.16</ele>
        <time>2014-02-06T15:13:24Z</time>
      </trkpt>
      <trkpt lat="43.43764" lon="2.76631">
        <ele>746.12</ele>
        <time>2014-02-06T15:13:26Z</time>
      </trkpt>
      <trkpt lat="43.43766" lon="2.76638">
        <ele>746.6</ele>
        <time>2014-02-06T15:13:31Z</time>
      </trkpt>
      <trkpt lat="43.43768" lon="2.76659">
        <ele>747.08</ele>
        <time>2014-02-06T15:13:42Z</time>
      </trkpt>
      <trkpt lat="43.43769" lon="2.76667">
        <ele>747.08</ele>
        <time>2014-02-06T15:13:47Z</time>
      </trkpt>
      <trkpt lat="43.43771" lon="2.7669">
        <ele>748.52</ele>
        <time>2014-02-06T15:13:59Z</time>
      </trkpt>
      <trkpt lat="43.43771" lon="2.76691">
        <ele>749</ele>
        <time>2014-02-06T15:14:00Z</time>
      </trkpt>
      <trkpt lat="43.43772" lon="2.76701">
        <ele>748.52</ele>
        <time>2014-02-06T15:14:06Z</time>
      </trkpt>
      <trkpt lat="43.43773" lon="2.76712">
        <ele>749</ele>
        <time>2014-02-06T15:14:13Z</time>
      </trkpt>
      <trkpt lat="43.43773" lon="2.7672">
        <ele>749</ele>
        <time>2014-02-06T15:14:18Z</time>
      </trkpt>
      <trkpt lat="43.43776" lon="2.76734">
        <ele>750.45</ele>
        <time>2014-02-06T15:14:27Z</time>
      </trkpt>
      <trkpt lat="43.43778" lon="2.76738">
        <ele>749.49</ele>
        <time>2014-02-06T15:14:30Z</time>
      </trkpt>
      <trkpt lat="43.43782" lon="2.7675">
        <ele>750.45</ele>
        <time>2014-02-06T15:14:38Z</time>
      </trkpt>
      <trkpt lat="43.43784" lon="2.76757">
        <ele>750.45</ele>
        <time>2014-02-06T15:14:42Z</time>
      </trkpt>
      <trkpt lat="43.43789" lon="2.76776">
        <ele>751.89</ele>
        <time>2014-02-06T15:14:55Z</time>
      </trkpt>
      <trkpt lat="43.43793" lon="2.76798">
        <ele>752.37</ele>
        <time>2014-02-06T15:15:10Z</time>
      </trkpt>
      <trkpt lat="43.43794" lon="2.76801">
        <ele>752.85</ele>
        <time>2014-02-06T15:15:12Z</time>
      </trkpt>
      <trkpt lat="43.43794" lon="2.7681">
        <ele>753.81</ele>
        <time>2014-02-06T15:15:17Z</time>
      </trkpt>
      <trkpt lat="43.43795" lon="2.76824">
        <ele>753.81</ele>
        <time>2014-02-06T15:15:25Z</time>
      </trkpt>
      <trkpt lat="43.43796" lon="2.76841">
        <ele>754.77</ele>
        <time>2014-02-06T15:15:36Z</time>
      </trkpt>
      <trkpt lat="43.43798" lon="2.76848">
        <ele>754.77</ele>
        <time>2014-02-06T15:15:41Z</time>
      </trkpt>
      <trkpt lat="43.438" lon="2.76856">
        <ele>755.25</ele>
        <time>2014-02-06T15:15:45Z</time>
      </trkpt>
      <trkpt lat="43.43801" lon="2.76868">
        <ele>756.21</ele>
        <time>2014-02-06T15:15:54Z</time>
      </trkpt>
      <trkpt lat="43.43803" lon="2.76879">
        <ele>757.18</ele>
        <time>2014-02-06T15:16:01Z</time>
      </trkpt>
      <trkpt lat="43.43806" lon="2.76894">
        <ele>759.1</ele>
        <time>2014-02-06T15:16:14Z</time>
      </trkpt>
      <trkpt lat="43.43811" lon="2.76909">
        <ele>759.58</ele>
        <time>2014-02-06T15:16:25Z</time>
      </trkpt>
      <trkpt lat="43.43812" lon="2.76912">
        <ele>759.58</ele>
        <time>2014-02-06T15:16:28Z</time>
      </trkpt>
      <trkpt lat="43.43817" lon="2.76932">
        <ele>760.54</ele>
        <time>2014-02-06T15:16:42Z</time>
      </trkpt>
      <trkpt lat="43.43819" lon="2.76947">
        <ele>760.06</ele>
        <time>2014-02-06T15:16:49Z</time>
      </trkpt>
      <trkpt lat="43.4382" lon="2.76951">
        <ele>761.02</ele>
        <time>2014-02-06T15:16:52Z</time>
      </trkpt>
      <trkpt lat="43.43823" lon="2.76967">
        <ele>760.06</ele>
        <time>2014-02-06T15:17:00Z</time>
      </trkpt>
      <trkpt lat="43.43826" lon="2.76976">
        <ele>759.58</ele>
        <time>2014-02-06T15:17:07Z</time>
      </trkpt>
      <trkpt lat="43.43832" lon="2.76992">
        <ele>759.1</ele>
        <time>2014-02-06T15:17:18Z</time>
      </trkpt>
      <trkpt lat="43.43833" lon="2.76995">
        <ele>759.1</ele>
        <time>2014-02-06T15:17:20Z</time>
      </trkpt>
      <trkpt lat="43.43836" lon="2.77011">
        <ele>758.62</ele>
        <time>2014-02-06T15:17:29Z</time>
      </trkpt>
      <trkpt lat="43.43838" lon="2.77022">
        <ele>758.62</ele>
        <time>2014-02-06T15:17:36Z</time>
      </trkpt>
      <trkpt lat="43.43842" lon="2.77045">
        <ele>759.58</ele>
        <time>2014-02-06T15:17:50Z</time>
      </trkpt>
      <trkpt lat="43.43845" lon="2.77064">
        <ele>759.58</ele>
        <time>2014-02-06T15:18:02Z</time>
      </trkpt>
      <trkpt lat="43.43846" lon="2.77084">
        <ele>761.5</ele>
        <time>2014-02-06T15:18:15Z</time>
      </trkpt>
      <trkpt lat="43.43847" lon="2.77095">
        <ele>761.5</ele>
        <time>2014-02-06T15:18:22Z</time>
      </trkpt>
      <trkpt lat="43.43847" lon="2.77116">
        <ele>761.98</ele>
        <time>2014-02-06T15:18:34Z</time>
      </trkpt>
      <trkpt lat="43.43847" lon="2.7714">
        <ele>763.9</ele>
        <time>2014-02-06T15:18:47Z</time>
      </trkpt>
      <trkpt lat="43.43848" lon="2.77156">
        <ele>764.39</ele>
        <time>2014-02-06T15:18:57Z</time>
      </trkpt>
      <trkpt lat="43.43848" lon="2.77163">
        <ele>765.83</ele>
        <time>2014-02-06T15:19:02Z</time>
      </trkpt>
      <trkpt lat="43.43846" lon="2.77171">
        <ele>764.87</ele>
        <time>2014-02-06T15:19:07Z</time>
      </trkpt>
      <trkpt lat="43.43844" lon="2.77176">
        <ele>765.35</ele>
        <time>2014-02-06T15:19:11Z</time>
      </trkpt>
      <trkpt lat="43.43841" lon="2.7718">
        <ele>767.27</ele>
        <time>2014-02-06T15:19:18Z</time>
      </trkpt>
      <trkpt lat="43.43841" lon="2.77181">
        <ele>766.79</ele>
        <time>2014-02-06T15:19:35Z</time>
      </trkpt>
      <trkpt lat="43.43838" lon="2.77184">
        <ele>767.27</ele>
        <time>2014-02-06T15:19:52Z</time>
      </trkpt>
      <trkpt lat="43.43837" lon="2.77187">
        <ele>767.27</ele>
        <time>2014-02-06T15:19:55Z</time>
      </trkpt>
      <trkpt lat="43.43831" lon="2.77193">
        <ele>769.19</ele>
        <time>2014-02-06T15:20:05Z</time>
      </trkpt>
      <trkpt lat="43.43831" lon="2.77193">
        <ele>767.75</ele>
        <time>2014-02-06T15:20:08Z</time>
      </trkpt>
      <trkpt lat="43.43825" lon="2.77201">
        <ele>768.23</ele>
        <time>2014-02-06T15:20:19Z</time>
      </trkpt>
      <trkpt lat="43.43824" lon="2.77203">
        <ele>769.19</ele>
        <time>2014-02-06T15:20:22Z</time>
      </trkpt>
      <trkpt lat="43.43821" lon="2.77207">
        <ele>769.19</ele>
        <time>2014-02-06T15:20:27Z</time>
      </trkpt>
      <trkpt lat="43.43811" lon="2.77218">
        <ele>772.08</ele>
        <time>2014-02-06T15:20:39Z</time>
      </trkpt>
      <trkpt lat="43.43801" lon="2.77228">
        <ele>772.08</ele>
        <time>2014-02-06T15:20:52Z</time>
      </trkpt>
      <trkpt lat="43.43792" lon="2.77241">
        <ele>771.11</ele>
        <time>2014-02-06T15:21:05Z</time>
      </trkpt>
      <trkpt lat="43.43791" lon="2.77243">
        <ele>771.6</ele>
        <time>2014-02-06T15:21:06Z</time>
      </trkpt>
      <trkpt lat="43.43788" lon="2.77249">
        <ele>773.04</ele>
        <time>2014-02-06T15:21:15Z</time>
      </trkpt>
      <trkpt lat="43.43788" lon="2.77249">
        <ele>773.04</ele>
        <time>2014-02-06T15:21:24Z</time>
      </trkpt>
      <trkpt lat="43.43787" lon="2.77251">
        <ele>769.19</ele>
        <time>2014-02-06T15:21:26Z</time>
      </trkpt>
      <trkpt lat="43.43783" lon="2.77256">
        <ele>767.27</ele>
        <time>2014-02-06T15:21:29Z</time>
      </trkpt>
      <trkpt lat="43.43777" lon="2.77265">
        <ele>770.63</ele>
        <time>2014-02-06T15:21:32Z</time>
      </trkpt>
      <trkpt lat="43.43776" lon="2.77267">
        <ele>770.63</ele>
        <time>2014-02-06T15:21:33Z</time>
      </trkpt>
      <trkpt lat="43.43776" lon="2.77268">
        <ele>773.04</ele>
        <time>2014-02-06T15:21:35Z</time>
      </trkpt>
      <trkpt lat="43.43776" lon="2.77268">
        <ele>772.08</ele>
        <time>2014-02-06T15:21:36Z</time>
      </trkpt>
      <trkpt lat="43.43776" lon="2.77281">
        <ele>769.67</ele>
        <time>2014-02-06T15:21:44Z</time>
      </trkpt>
      <trkpt lat="43.43774" lon="2.77287">
        <ele>767.75</ele>
        <time>2014-02-06T15:21:48Z</time>
      </trkpt>
      <trkpt lat="43.43771" lon="2.77296">
        <ele>770.15</ele>
        <time>2014-02-06T15:21:54Z</time>
      </trkpt>
      <trkpt lat="43.4377" lon="2.77299">
        <ele>771.11</ele>
        <time>2014-02-06T15:22:08Z</time>
      </trkpt>
      <trkpt lat="43.4377" lon="2.77298">
        <ele>765.83</ele>
        <time>2014-02-06T15:22:26Z</time>
      </trkpt>
      <trkpt lat="43.4377" lon="2.77298">
        <ele>774.48</ele>
        <time>2014-02-06T15:22:27Z</time>
      </trkpt>
      <trkpt lat="43.4377" lon="2.77298">
        <ele>769.67</ele>
        <time>2014-02-06T15:22:28Z</time>
      </trkpt>
      <trkpt lat="43.43772" lon="2.77302">
        <ele>769.67</ele>
        <time>2014-02-06T15:22:40Z</time>
      </trkpt>
      <trkpt lat="43.43773" lon="2.77302">
        <ele>768.71</ele>
        <time>2014-02-06T15:22:44Z</time>
      </trkpt>
      <trkpt lat="43.43771" lon="2.773">
        <ele>770.63</ele>
        <time>2014-02-06T15:22:58Z</time>
      </trkpt>
      <trkpt lat="43.4377" lon="2.77302">
        <ele>769.67</ele>
        <time>2014-02-06T15:23:01Z</time>
      </trkpt>
      <trkpt lat="43.43768" lon="2.77305">
        <ele>769.19</ele>
        <time>2014-02-06T15:23:04Z</time>
      </trkpt>
      <trkpt lat="43.43765" lon="2.77325">
        <ele>770.63</ele>
        <time>2014-02-06T15:23:18Z</time>
      </trkpt>
      <trkpt lat="43.43764" lon="2.77329">
        <ele>768.71</ele>
        <time>2014-02-06T15:23:26Z</time>
      </trkpt>
      <trkpt lat="43.43764" lon="2.77329">
        <ele>769.19</ele>
        <time>2014-02-06T15:23:28Z</time>
      </trkpt>
      <trkpt lat="43.43763" lon="2.77332">
        <ele>769.19</ele>
        <time>2014-02-06T15:23:31Z</time>
      </trkpt>
      <trkpt lat="43.43762" lon="2.7734">
        <ele>769.67</ele>
        <time>2014-02-06T15:23:35Z</time>
      </trkpt>
      <trkpt lat="43.43761" lon="2.77355">
        <ele>770.15</ele>
        <time>2014-02-06T15:23:44Z</time>
      </trkpt>
      <trkpt lat="43.43757" lon="2.77375">
        <ele>771.11</ele>
        <time>2014-02-06T15:23:56Z</time>
      </trkpt>
      <trkpt lat="43.43757" lon="2.77376">
        <ele>769.67</ele>
        <time>2014-02-06T15:23:57Z</time>
      </trkpt>
      <trkpt lat="43.43756" lon="2.77379">
        <ele>769.19</ele>
        <time>2014-02-06T15:23:59Z</time>
      </trkpt>
      <trkpt lat="43.43753" lon="2.77387">
        <ele>769.67</ele>
        <time>2014-02-06T15:24:04Z</time>
      </trkpt>
      <trkpt lat="43.43747" lon="2.77392">
        <ele>769.19</ele>
        <time>2014-02-06T15:24:10Z</time>
      </trkpt>
      <trkpt lat="43.43745" lon="2.77392">
        <ele>769.67</ele>
        <time>2014-02-06T15:24:12Z</time>
      </trkpt>
      <trkpt lat="43.43742" lon="2.77393">
        <ele>770.63</ele>
        <time>2014-02-06T15:24:17Z</time>
      </trkpt>
      <trkpt lat="43.43735" lon="2.77393">
        <ele>771.11</ele>
        <time>2014-02-06T15:24:23Z</time>
      </trkpt>
      <trkpt lat="43.43728" lon="2.77393">
        <ele>770.15</ele>
        <time>2014-02-06T15:24:35Z</time>
      </trkpt>
      <trkpt lat="43.43722" lon="2.77396">
        <ele>768.71</ele>
        <time>2014-02-06T15:24:43Z</time>
      </trkpt>
      <trkpt lat="43.43717" lon="2.774">
        <ele>767.27</ele>
        <time>2014-02-06T15:24:49Z</time>
      </trkpt>
      <trkpt lat="43.43716" lon="2.77403">
        <ele>768.23</ele>
        <time>2014-02-06T15:24:54Z</time>
      </trkpt>
      <trkpt lat="43.43711" lon="2.77402">
        <ele>769.19</ele>
        <time>2014-02-06T15:24:59Z</time>
      </trkpt>
      <trkpt lat="43.43706" lon="2.77402">
        <ele>767.75</ele>
        <time>2014-02-06T15:25:02Z</time>
      </trkpt>
      <trkpt lat="43.43696" lon="2.77402">
        <ele>765.83</ele>
        <time>2014-02-06T15:25:10Z</time>
      </trkpt>
      <trkpt lat="43.43681" lon="2.77403">
        <ele>764.39</ele>
        <time>2014-02-06T15:25:21Z</time>
      </trkpt>
      <trkpt lat="43.43664" lon="2.77406">
        <ele>760.54</ele>
        <time>2014-02-06T15:25:31Z</time>
      </trkpt>
      <trkpt lat="43.43663" lon="2.77406">
        <ele>760.54</ele>
        <time>2014-02-06T15:25:32Z</time>
      </trkpt>
      <trkpt lat="43.43652" lon="2.77408">
        <ele>757.66</ele>
        <time>2014-02-06T15:25:39Z</time>
      </trkpt>
      <trkpt lat="43.43646" lon="2.77409">
        <ele>756.21</ele>
        <time>2014-02-06T15:25:43Z</time>
      </trkpt>
      <trkpt lat="43.43633" lon="2.77411">
        <ele>756.69</ele>
        <time>2014-02-06T15:25:53Z</time>
      </trkpt>
      <trkpt lat="43.43629" lon="2.77411">
        <ele>754.29</ele>
        <time>2014-02-06T15:25:56Z</time>
      </trkpt>
      <trkpt lat="43.43619" lon="2.77412">
        <ele>754.29</ele>
        <time>2014-02-06T15:26:02Z</time>
      </trkpt>
      <trkpt lat="43.43614" lon="2.77412">
        <ele>752.85</ele>
        <time>2014-02-06T15:26:06Z</time>
      </trkpt>
      <trkpt lat="43.4361" lon="2.77413">
        <ele>749.49</ele>
        <time>2014-02-06T15:26:10Z</time>
      </trkpt>
      <trkpt lat="43.43609" lon="2.77413">
        <ele>750.93</ele>
        <time>2014-02-06T15:26:11Z</time>
      </trkpt>
      <trkpt lat="43.43607" lon="2.77415">
        <ele>751.89</ele>
        <time>2014-02-06T15:26:13Z</time>
      </trkpt>
      <trkpt lat="43.43602" lon="2.77415">
        <ele>749.49</ele>
        <time>2014-02-06T15:26:19Z</time>
      </trkpt>
      <trkpt lat="43.43594" lon="2.77419">
        <ele>748.04</ele>
        <time>2014-02-06T15:26:25Z</time>
      </trkpt>
      <trkpt lat="43.43587" lon="2.77421">
        <ele>747.56</ele>
        <time>2014-02-06T15:26:31Z</time>
      </trkpt>
      <trkpt lat="43.43581" lon="2.7742">
        <ele>743.72</ele>
        <time>2014-02-06T15:26:36Z</time>
      </trkpt>
      <trkpt lat="43.43579" lon="2.7742">
        <ele>742.76</ele>
        <time>2014-02-06T15:26:38Z</time>
      </trkpt>
      <trkpt lat="43.43578" lon="2.77421">
        <ele>743.72</ele>
        <time>2014-02-06T15:26:39Z</time>
      </trkpt>
      <trkpt lat="43.43575" lon="2.77421">
        <ele>745.16</ele>
        <time>2014-02-06T15:26:42Z</time>
      </trkpt>
      <trkpt lat="43.43571" lon="2.7742">
        <ele>742.28</ele>
        <time>2014-02-06T15:26:45Z</time>
      </trkpt>
      <trkpt lat="43.43569" lon="2.77419">
        <ele>742.76</ele>
        <time>2014-02-06T15:26:46Z</time>
      </trkpt>
      <trkpt lat="43.43563" lon="2.77419">
        <ele>739.39</ele>
        <time>2014-02-06T15:26:50Z</time>
      </trkpt>
      <trkpt lat="43.4356" lon="2.77421">
        <ele>738.91</ele>
        <time>2014-02-06T15:26:53Z</time>
      </trkpt>
      <trkpt lat="43.43547" lon="2.77422">
        <ele>736.51</ele>
        <time>2014-02-06T15:27:05Z</time>
      </trkpt>
      <trkpt lat="43.43544" lon="2.77423">
        <ele>735.07</ele>
        <time>2014-02-06T15:27:07Z</time>
      </trkpt>
      <trkpt lat="43.43533" lon="2.77425">
        <ele>731.7</ele>
        <time>2014-02-06T15:27:15Z</time>
      </trkpt>
      <trkpt lat="43.43522" lon="2.77428">
        <ele>728.34</ele>
        <time>2014-02-06T15:27:24Z</time>
      </trkpt>
      <trkpt lat="43.43522" lon="2.77429">
        <ele>729.3</ele>
        <time>2014-02-06T15:27:27Z</time>
      </trkpt>
      <trkpt lat="43.43521" lon="2.77429">
        <ele>728.34</ele>
        <time>2014-02-06T15:27:29Z</time>
      </trkpt>
      <trkpt lat="43.43519" lon="2.77431">
        <ele>727.86</ele>
        <time>2014-02-06T15:27:32Z</time>
      </trkpt>
      <trkpt lat="43.43517" lon="2.77434">
        <ele>728.82</ele>
        <time>2014-02-06T15:27:34Z</time>
      </trkpt>
      <trkpt lat="43.43513" lon="2.77435">
        <ele>726.89</ele>
        <time>2014-02-06T15:27:37Z</time>
      </trkpt>
      <trkpt lat="43.43501" lon="2.77439">
        <ele>724.49</ele>
        <time>2014-02-06T15:27:46Z</time>
      </trkpt>
      <trkpt lat="43.43485" lon="2.77444">
        <ele>721.13</ele>
        <time>2014-02-06T15:27:58Z</time>
      </trkpt>
      <trkpt lat="43.43477" lon="2.7745">
        <ele>719.68</ele>
        <time>2014-02-06T15:28:06Z</time>
      </trkpt>
      <trkpt lat="43.43469" lon="2.77456">
        <ele>718.72</ele>
        <time>2014-02-06T15:28:14Z</time>
      </trkpt>
      <trkpt lat="43.43466" lon="2.77456">
        <ele>718.72</ele>
        <time>2014-02-06T15:28:17Z</time>
      </trkpt>
      <trkpt lat="43.4346" lon="2.77457">
        <ele>716.8</ele>
        <time>2014-02-06T15:28:26Z</time>
      </trkpt>
      <trkpt lat="43.43446" lon="2.77457">
        <ele>714.88</ele>
        <time>2014-02-06T15:28:38Z</time>
      </trkpt>
      <trkpt lat="43.43445" lon="2.77458">
        <ele>715.84</ele>
        <time>2014-02-06T15:28:39Z</time>
      </trkpt>
      <trkpt lat="43.43433" lon="2.77458">
        <ele>712.47</ele>
        <time>2014-02-06T15:28:48Z</time>
      </trkpt>
      <trkpt lat="43.43431" lon="2.77458">
        <ele>712.95</ele>
        <time>2014-02-06T15:28:49Z</time>
      </trkpt>
      <trkpt lat="43.43412" lon="2.77461">
        <ele>714.4</ele>
        <time>2014-02-06T15:29:04Z</time>
      </trkpt>
      <trkpt lat="43.43401" lon="2.77462">
        <ele>713.92</ele>
        <time>2014-02-06T15:29:12Z</time>
      </trkpt>
      <trkpt lat="43.43395" lon="2.77461">
        <ele>715.36</ele>
        <time>2014-02-06T15:29:16Z</time>
      </trkpt>
      <trkpt lat="43.43374" lon="2.7746">
        <ele>717.28</ele>
        <time>2014-02-06T15:29:31Z</time>
      </trkpt>
      <trkpt lat="43.43366" lon="2.77461">
        <ele>717.76</ele>
        <time>2014-02-06T15:29:38Z</time>
      </trkpt>
      <trkpt lat="43.43359" lon="2.77459">
        <ele>720.16</ele>
        <time>2014-02-06T15:29:43Z</time>
      </trkpt>
      <trkpt lat="43.4335" lon="2.77456">
        <ele>721.61</ele>
        <time>2014-02-06T15:29:52Z</time>
      </trkpt>
      <trkpt lat="43.43348" lon="2.77456">
        <ele>721.61</ele>
        <time>2014-02-06T15:29:55Z</time>
      </trkpt>
      <trkpt lat="43.43336" lon="2.77457">
        <ele>723.53</ele>
        <time>2014-02-06T15:30:08Z</time>
      </trkpt>
      <trkpt lat="43.43331" lon="2.77458">
        <ele>724.49</ele>
        <time>2014-02-06T15:30:19Z</time>
      </trkpt>
      <trkpt lat="43.43332" lon="2.77459">
        <ele>725.45</ele>
        <time>2014-02-06T15:30:21Z</time>
      </trkpt>
      <trkpt lat="43.43331" lon="2.77459">
        <ele>724.01</ele>
        <time>2014-02-06T15:30:23Z</time>
      </trkpt>
      <trkpt lat="43.43328" lon="2.77459">
        <ele>724.49</ele>
        <time>2014-02-06T15:30:26Z</time>
      </trkpt>
      <trkpt lat="43.4332" lon="2.7746">
        <ele>726.41</ele>
        <time>2014-02-06T15:30:34Z</time>
      </trkpt>
      <trkpt lat="43.43317" lon="2.77461">
        <ele>726.89</ele>
        <time>2014-02-06T15:30:38Z</time>
      </trkpt>
      <trkpt lat="43.43313" lon="2.77461">
        <ele>727.37</ele>
        <time>2014-02-06T15:30:42Z</time>
      </trkpt>
      <trkpt lat="43.43305" lon="2.7746">
        <ele>729.78</ele>
        <time>2014-02-06T15:30:55Z</time>
      </trkpt>
      <trkpt lat="43.43296" lon="2.7746">
        <ele>730.74</ele>
        <time>2014-02-06T15:31:04Z</time>
      </trkpt>
      <trkpt lat="43.43282" lon="2.77457">
        <ele>733.62</ele>
        <time>2014-02-06T15:31:18Z</time>
      </trkpt>
      <trkpt lat="43.43276" lon="2.77457">
        <ele>731.7</ele>
        <time>2014-02-06T15:31:24Z</time>
      </trkpt>
      <trkpt lat="43.43271" lon="2.77455">
        <ele>733.62</ele>
        <time>2014-02-06T15:31:28Z</time>
      </trkpt>
      <trkpt lat="43.43264" lon="2.7744">
        <ele>736.03</ele>
        <time>2014-02-06T15:31:41Z</time>
      </trkpt>
      <trkpt lat="43.43259" lon="2.77426">
        <ele>737.95</ele>
        <time>2014-02-06T15:31:53Z</time>
      </trkpt>
      <trkpt lat="43.43259" lon="2.77424">
        <ele>737.47</ele>
        <time>2014-02-06T15:31:59Z</time>
      </trkpt>
      <trkpt lat="43.43258" lon="2.77423">
        <ele>738.43</ele>
        <time>2014-02-06T15:32:02Z</time>
      </trkpt>
      <trkpt lat="43.43252" lon="2.77417">
        <ele>738.91</ele>
        <time>2014-02-06T15:32:09Z</time>
      </trkpt>
      <trkpt lat="43.43252" lon="2.77414">
        <ele>739.87</ele>
        <time>2014-02-06T15:32:11Z</time>
      </trkpt>
      <trkpt lat="43.43243" lon="2.77398">
        <ele>740.35</ele>
        <time>2014-02-06T15:32:26Z</time>
      </trkpt>
      <trkpt lat="43.43242" lon="2.77396">
        <ele>741.79</ele>
        <time>2014-02-06T15:32:30Z</time>
      </trkpt>
      <trkpt lat="43.43238" lon="2.77386">
        <ele>744.2</ele>
        <time>2014-02-06T15:32:40Z</time>
      </trkpt>
      <trkpt lat="43.43238" lon="2.77384">
        <ele>744.68</ele>
        <time>2014-02-06T15:32:49Z</time>
      </trkpt>
      <trkpt lat="43.43237" lon="2.77378">
        <ele>740.35</ele>
        <time>2014-02-06T15:32:57Z</time>
      </trkpt>
      <trkpt lat="43.43237" lon="2.77377">
        <ele>740.83</ele>
        <time>2014-02-06T15:32:58Z</time>
      </trkpt>
      <trkpt lat="43.43238" lon="2.77376">
        <ele>743.72</ele>
        <time>2014-02-06T15:33:11Z</time>
      </trkpt>
      <trkpt lat="43.43237" lon="2.77377">
        <ele>741.79</ele>
        <time>2014-02-06T15:33:18Z</time>
      </trkpt>
      <trkpt lat="43.43237" lon="2.77377">
        <ele>740.35</ele>
        <time>2014-02-06T15:33:23Z</time>
      </trkpt>
      <trkpt lat="43.43235" lon="2.77377">
        <ele>743.24</ele>
        <time>2014-02-06T15:33:25Z</time>
      </trkpt>
      <trkpt lat="43.43234" lon="2.77377">
        <ele>737.47</ele>
        <time>2014-02-06T15:33:26Z</time>
      </trkpt>
      <trkpt lat="43.43233" lon="2.77378">
        <ele>737.95</ele>
        <time>2014-02-06T15:33:27Z</time>
      </trkpt>
      <trkpt lat="43.43227" lon="2.77381">
        <ele>737.95</ele>
        <time>2014-02-06T15:33:32Z</time>
      </trkpt>
      <trkpt lat="43.43223" lon="2.77384">
        <ele>740.83</ele>
        <time>2014-02-06T15:33:35Z</time>
      </trkpt>
      <trkpt lat="43.43203" lon="2.77385">
        <ele>737.47</ele>
        <time>2014-02-06T15:33:49Z</time>
      </trkpt>
      <trkpt lat="43.43195" lon="2.77384">
        <ele>735.07</ele>
        <time>2014-02-06T15:33:55Z</time>
      </trkpt>
      <trkpt lat="43.43178" lon="2.77378">
        <ele>732.18</ele>
        <time>2014-02-06T15:34:10Z</time>
      </trkpt>
      <trkpt lat="43.43174" lon="2.77375">
        <ele>729.78</ele>
        <time>2014-02-06T15:34:14Z</time>
      </trkpt>
      <trkpt lat="43.4317" lon="2.77374">
        <ele>728.82</ele>
        <time>2014-02-06T15:34:17Z</time>
      </trkpt>
      <trkpt lat="43.43157" lon="2.77373">
        <ele>725.93</ele>
        <time>2014-02-06T15:34:30Z</time>
      </trkpt>
      <trkpt lat="43.43151" lon="2.77372">
        <ele>724.97</ele>
        <time>2014-02-06T15:34:35Z</time>
      </trkpt>
      <trkpt lat="43.43137" lon="2.7737">
        <ele>723.53</ele>
        <time>2014-02-06T15:34:44Z</time>
      </trkpt>
      <trkpt lat="43.43121" lon="2.77366">
        <ele>722.09</ele>
        <time>2014-02-06T15:34:58Z</time>
      </trkpt>
      <trkpt lat="43.4312" lon="2.77366">
        <ele>722.09</ele>
        <time>2014-02-06T15:35:00Z</time>
      </trkpt>
      <trkpt lat="43.43111" lon="2.77365">
        <ele>722.09</ele>
        <time>2014-02-06T15:35:08Z</time>
      </trkpt>
      <trkpt lat="43.43092" lon="2.7736">
        <ele>721.61</ele>
        <time>2014-02-06T15:35:23Z</time>
      </trkpt>
      <trkpt lat="43.43077" lon="2.77354">
        <ele>722.57</ele>
        <time>2014-02-06T15:35:37Z</time>
      </trkpt>
      <trkpt lat="43.43073" lon="2.77354">
        <ele>722.09</ele>
        <time>2014-02-06T15:35:40Z</time>
      </trkpt>
      <trkpt lat="43.43057" lon="2.77355">
        <ele>721.13</ele>
        <time>2014-02-06T15:35:52Z</time>
      </trkpt>
      <trkpt lat="43.43038" lon="2.77356">
        <ele>721.61</ele>
        <time>2014-02-06T15:36:07Z</time>
      </trkpt>
      <trkpt lat="43.43021" lon="2.77358">
        <ele>721.13</ele>
        <time>2014-02-06T15:36:21Z</time>
      </trkpt>
      <trkpt lat="43.43016" lon="2.77358">
        <ele>720.65</ele>
        <time>2014-02-06T15:36:25Z</time>
      </trkpt>
      <trkpt lat="43.42996" lon="2.77356">
        <ele>723.05</ele>
        <time>2014-02-06T15:36:41Z</time>
      </trkpt>
      <trkpt lat="43.42988" lon="2.77356">
        <ele>722.57</ele>
        <time>2014-02-06T15:36:47Z</time>
      </trkpt>
      <trkpt lat="43.42974" lon="2.77359">
        <ele>721.13</ele>
        <time>2014-02-06T15:36:58Z</time>
      </trkpt>
      <trkpt lat="43.42957" lon="2.7736">
        <ele>720.16</ele>
        <time>2014-02-06T15:37:12Z</time>
      </trkpt>
      <trkpt lat="43.42953" lon="2.7736">
        <ele>718.72</ele>
        <time>2014-02-06T15:37:15Z</time>
      </trkpt>
      <trkpt lat="43.42951" lon="2.77361">
        <ele>719.2</ele>
        <time>2014-02-06T15:37:17Z</time>
      </trkpt>
      <trkpt lat="43.42932" lon="2.77356">
        <ele>715.84</ele>
        <time>2014-02-06T15:37:31Z</time>
      </trkpt>
      <trkpt lat="43.42913" lon="2.77354">
        <ele>715.84</ele>
        <time>2014-02-06T15:37:46Z</time>
      </trkpt>
      <trkpt lat="43.42907" lon="2.77353">
        <ele>714.88</ele>
        <time>2014-02-06T15:37:51Z</time>
      </trkpt>
      <trkpt lat="43.42897" lon="2.77349">
        <ele>713.92</ele>
        <time>2014-02-06T15:37:59Z</time>
      </trkpt>
      <trkpt lat="43.42891" lon="2.77344">
        <ele>713.44</ele>
        <time>2014-02-06T15:38:05Z</time>
      </trkpt>
      <trkpt lat="43.42884" lon="2.77344">
        <ele>712.47</ele>
        <time>2014-02-06T15:38:10Z</time>
      </trkpt>
      <trkpt lat="43.42878" lon="2.77346">
        <ele>711.51</ele>
        <time>2014-02-06T15:38:16Z</time>
      </trkpt>
      <trkpt lat="43.42876" lon="2.77347">
        <ele>711.51</ele>
        <time>2014-02-06T15:38:19Z</time>
      </trkpt>
      <trkpt lat="43.42869" lon="2.77344">
        <ele>708.63</ele>
        <time>2014-02-06T15:38:24Z</time>
      </trkpt>
      <trkpt lat="43.42851" lon="2.77339">
        <ele>706.71</ele>
        <time>2014-02-06T15:38:38Z</time>
      </trkpt>
      <trkpt lat="43.42837" lon="2.77331">
        <ele>704.3</ele>
        <time>2014-02-06T15:38:49Z</time>
      </trkpt>
      <trkpt lat="43.4282" lon="2.77323">
        <ele>702.38</ele>
        <time>2014-02-06T15:39:03Z</time>
      </trkpt>
      <trkpt lat="43.42816" lon="2.7732">
        <ele>700.94</ele>
        <time>2014-02-06T15:39:06Z</time>
      </trkpt>
      <trkpt lat="43.42801" lon="2.77312">
        <ele>699.5</ele>
        <time>2014-02-06T15:39:18Z</time>
      </trkpt>
      <trkpt lat="43.42788" lon="2.77298">
        <ele>698.53</ele>
        <time>2014-02-06T15:39:31Z</time>
      </trkpt>
      <trkpt lat="43.42777" lon="2.77283">
        <ele>697.57</ele>
        <time>2014-02-06T15:39:43Z</time>
      </trkpt>
      <trkpt lat="43.42763" lon="2.77267">
        <ele>696.13</ele>
        <time>2014-02-06T15:39:57Z</time>
      </trkpt>
      <trkpt lat="43.42749" lon="2.77253">
        <ele>696.61</ele>
        <time>2014-02-06T15:40:10Z</time>
      </trkpt>
      <trkpt lat="43.42736" lon="2.77239">
        <ele>696.13</ele>
        <time>2014-02-06T15:40:22Z</time>
      </trkpt>
      <trkpt lat="43.42734" lon="2.77237">
        <ele>695.65</ele>
        <time>2014-02-06T15:40:24Z</time>
      </trkpt>
      <trkpt lat="43.42718" lon="2.77226">
        <ele>694.21</ele>
        <time>2014-02-06T15:40:38Z</time>
      </trkpt>
      <trkpt lat="43.42705" lon="2.77217">
        <ele>694.21</ele>
        <time>2014-02-06T15:40:50Z</time>
      </trkpt>
      <trkpt lat="43.42699" lon="2.77209">
        <ele>694.21</ele>
        <time>2014-02-06T15:40:58Z</time>
      </trkpt>
      <trkpt lat="43.42693" lon="2.77191">
        <ele>693.25</ele>
        <time>2014-02-06T15:41:10Z</time>
      </trkpt>
      <trkpt lat="43.42691" lon="2.77188">
        <ele>693.73</ele>
        <time>2014-02-06T15:41:12Z</time>
      </trkpt>
      <trkpt lat="43.42688" lon="2.77182">
        <ele>692.77</ele>
        <time>2014-02-06T15:41:16Z</time>
      </trkpt>
      <trkpt lat="43.42679" lon="2.77161">
        <ele>693.25</ele>
        <time>2014-02-06T15:41:30Z</time>
      </trkpt>
      <trkpt lat="43.42672" lon="2.77145">
        <ele>691.33</ele>
        <time>2014-02-06T15:41:42Z</time>
      </trkpt>
      <trkpt lat="43.42665" lon="2.77142">
        <ele>687.96</ele>
        <time>2014-02-06T15:41:47Z</time>
      </trkpt>
      <trkpt lat="43.42662" lon="2.77142">
        <ele>687.96</ele>
        <time>2014-02-06T15:41:50Z</time>
      </trkpt>
      <trkpt lat="43.42658" lon="2.77143">
        <ele>689.4</ele>
        <time>2014-02-06T15:41:53Z</time>
      </trkpt>
      <trkpt lat="43.42654" lon="2.77146">
        <ele>686.04</ele>
        <time>2014-02-06T15:41:56Z</time>
      </trkpt>
      <trkpt lat="43.42653" lon="2.77147">
        <ele>686.04</ele>
        <time>2014-02-06T15:41:57Z</time>
      </trkpt>
      <trkpt lat="43.4265" lon="2.77154">
        <ele>684.12</ele>
        <time>2014-02-06T15:42:09Z</time>
      </trkpt>
      <trkpt lat="43.4265" lon="2.77155">
        <ele>688.44</ele>
        <time>2014-02-06T15:42:26Z</time>
      </trkpt>
      <trkpt lat="43.4265" lon="2.77155">
        <ele>687.48</ele>
        <time>2014-02-06T15:42:27Z</time>
      </trkpt>
      <trkpt lat="43.4265" lon="2.77155">
        <ele>686.52</ele>
        <time>2014-02-06T15:42:29Z</time>
      </trkpt>
      <trkpt lat="43.4265" lon="2.77155">
        <ele>686.04</ele>
        <time>2014-02-06T15:42:49Z</time>
      </trkpt>
      <trkpt lat="43.4265" lon="2.77157">
        <ele>684.6</ele>
        <time>2014-02-06T15:43:00Z</time>
      </trkpt>
      <trkpt lat="43.42649" lon="2.77164">
        <ele>683.15</ele>
        <time>2014-02-06T15:43:06Z</time>
      </trkpt>
      <trkpt lat="43.42646" lon="2.77177">
        <ele>680.75</ele>
        <time>2014-02-06T15:43:15Z</time>
      </trkpt>
      <trkpt lat="43.42646" lon="2.7718">
        <ele>680.27</ele>
        <time>2014-02-06T15:43:17Z</time>
      </trkpt>
      <trkpt lat="43.42642" lon="2.77185">
        <ele>679.31</ele>
        <time>2014-02-06T15:43:21Z</time>
      </trkpt>
      <trkpt lat="43.42638" lon="2.77187">
        <ele>678.35</ele>
        <time>2014-02-06T15:43:25Z</time>
      </trkpt>
      <trkpt lat="43.42633" lon="2.77186">
        <ele>676.42</ele>
        <time>2014-02-06T15:43:31Z</time>
      </trkpt>
      <trkpt lat="43.42627" lon="2.77179">
        <ele>677.39</ele>
        <time>2014-02-06T15:43:37Z</time>
      </trkpt>
      <trkpt lat="43.42616" lon="2.77175">
        <ele>675.94</ele>
        <time>2014-02-06T15:43:45Z</time>
      </trkpt>
      <trkpt lat="43.42599" lon="2.77162">
        <ele>675.46</ele>
        <time>2014-02-06T15:44:00Z</time>
      </trkpt>
      <trkpt lat="43.42594" lon="2.7716">
        <ele>673.54</ele>
        <time>2014-02-06T15:44:04Z</time>
      </trkpt>
      <trkpt lat="43.42575" lon="2.77151">
        <ele>671.14</ele>
        <time>2014-02-06T15:44:20Z</time>
      </trkpt>
      <trkpt lat="43.42563" lon="2.77145">
        <ele>671.14</ele>
        <time>2014-02-06T15:44:30Z</time>
      </trkpt>
      <trkpt lat="43.4256" lon="2.77143">
        <ele>669.22</ele>
        <time>2014-02-06T15:44:33Z</time>
      </trkpt>
      <trkpt lat="43.42554" lon="2.77137">
        <ele>669.7</ele>
        <time>2014-02-06T15:44:39Z</time>
      </trkpt>
      <trkpt lat="43.42551" lon="2.77135">
        <ele>668.73</ele>
        <time>2014-02-06T15:44:42Z</time>
      </trkpt>
      <trkpt lat="43.42536" lon="2.77136">
        <ele>664.41</ele>
        <time>2014-02-06T15:44:53Z</time>
      </trkpt>
      <trkpt lat="43.42527" lon="2.77134">
        <ele>666.33</ele>
        <time>2014-02-06T15:44:59Z</time>
      </trkpt>
      <trkpt lat="43.42509" lon="2.77131">
        <ele>663.45</ele>
        <time>2014-02-06T15:45:14Z</time>
      </trkpt>
      <trkpt lat="43.42495" lon="2.77127">
        <ele>660.08</ele>
        <time>2014-02-06T15:45:26Z</time>
      </trkpt>
      <trkpt lat="43.42488" lon="2.77126">
        <ele>659.6</ele>
        <time>2014-02-06T15:45:32Z</time>
      </trkpt>
      <trkpt lat="43.42481" lon="2.7712">
        <ele>659.12</ele>
        <time>2014-02-06T15:45:44Z</time>
      </trkpt>
      <trkpt lat="43.42481" lon="2.7712">
        <ele>658.64</ele>
        <time>2014-02-06T15:45:46Z</time>
      </trkpt>
      <trkpt lat="43.42477" lon="2.77126">
        <ele>658.16</ele>
        <time>2014-02-06T15:45:57Z</time>
      </trkpt>
      <trkpt lat="43.42479" lon="2.77115">
        <ele>657.2</ele>
        <time>2014-02-06T15:46:09Z</time>
      </trkpt>
      <trkpt lat="43.42478" lon="2.77112">
        <ele>657.2</ele>
        <time>2014-02-06T15:46:11Z</time>
      </trkpt>
      <trkpt lat="43.42467" lon="2.77098">
        <ele>654.8</ele>
        <time>2014-02-06T15:46:25Z</time>
      </trkpt>
      <trkpt lat="43.42466" lon="2.77097">
        <ele>654.31</ele>
        <time>2014-02-06T15:46:26Z</time>
      </trkpt>
      <trkpt lat="43.42457" lon="2.77092">
        <ele>651.91</ele>
        <time>2014-02-06T15:46:35Z</time>
      </trkpt>
      <trkpt lat="43.42449" lon="2.77091">
        <ele>650.47</ele>
        <time>2014-02-06T15:46:42Z</time>
      </trkpt>
      <trkpt lat="43.42442" lon="2.77093">
        <ele>649.99</ele>
        <time>2014-02-06T15:46:48Z</time>
      </trkpt>
      <trkpt lat="43.42435" lon="2.77091">
        <ele>648.55</ele>
        <time>2014-02-06T15:46:54Z</time>
      </trkpt>
      <trkpt lat="43.42422" lon="2.77086">
        <ele>647.59</ele>
        <time>2014-02-06T15:47:08Z</time>
      </trkpt>
      <trkpt lat="43.42422" lon="2.77084">
        <ele>647.59</ele>
        <time>2014-02-06T15:47:33Z</time>
      </trkpt>
      <trkpt lat="43.42423" lon="2.77083">
        <ele>646.62</ele>
        <time>2014-02-06T15:48:04Z</time>
      </trkpt>
      <trkpt lat="43.42423" lon="2.77082">
        <ele>647.59</ele>
        <time>2014-02-06T15:48:31Z</time>
      </trkpt>
      <trkpt lat="43.42418" lon="2.77076">
        <ele>646.14</ele>
        <time>2014-02-06T15:48:42Z</time>
      </trkpt>
      <trkpt lat="43.42415" lon="2.77073">
        <ele>645.18</ele>
        <time>2014-02-06T15:48:46Z</time>
      </trkpt>
      <trkpt lat="43.42406" lon="2.7706">
        <ele>643.74</ele>
        <time>2014-02-06T15:49:00Z</time>
      </trkpt>
      <trkpt lat="43.42401" lon="2.77053">
        <ele>643.26</ele>
        <time>2014-02-06T15:49:11Z</time>
      </trkpt>
      <trkpt lat="43.42401" lon="2.77053">
        <ele>642.78</ele>
        <time>2014-02-06T15:49:12Z</time>
      </trkpt>
      <trkpt lat="43.42391" lon="2.77038">
        <ele>640.38</ele>
        <time>2014-02-06T15:49:23Z</time>
      </trkpt>
      <trkpt lat="43.42383" lon="2.77027">
        <ele>639.89</ele>
        <time>2014-02-06T15:49:32Z</time>
      </trkpt>
      <trkpt lat="43.42376" lon="2.77022">
        <ele>639.41</ele>
        <time>2014-02-06T15:49:38Z</time>
      </trkpt>
      <trkpt lat="43.42372" lon="2.77015">
        <ele>638.45</ele>
        <time>2014-02-06T15:49:43Z</time>
      </trkpt>
      <trkpt lat="43.42365" lon="2.77009">
        <ele>637.97</ele>
        <time>2014-02-06T15:49:50Z</time>
      </trkpt>
      <trkpt lat="43.42352" lon="2.76997">
        <ele>636.05</ele>
        <time>2014-02-06T15:50:02Z</time>
      </trkpt>
      <trkpt lat="43.42334" lon="2.76985">
        <ele>635.09</ele>
        <time>2014-02-06T15:50:16Z</time>
      </trkpt>
      <trkpt lat="43.42328" lon="2.76979">
        <ele>633.65</ele>
        <time>2014-02-06T15:50:22Z</time>
      </trkpt>
      <trkpt lat="43.42325" lon="2.76977">
        <ele>632.68</ele>
        <time>2014-02-06T15:50:25Z</time>
      </trkpt>
      <trkpt lat="43.42318" lon="2.76972">
        <ele>632.2</ele>
        <time>2014-02-06T15:50:31Z</time>
      </trkpt>
      <trkpt lat="43.42305" lon="2.76963">
        <ele>632.2</ele>
        <time>2014-02-06T15:50:45Z</time>
      </trkpt>
      <trkpt lat="43.42304" lon="2.76962">
        <ele>631.72</ele>
        <time>2014-02-06T15:50:46Z</time>
      </trkpt>
      <trkpt lat="43.42297" lon="2.76958">
        <ele>632.68</ele>
        <time>2014-02-06T15:50:52Z</time>
      </trkpt>
      <trkpt lat="43.42295" lon="2.76957">
        <ele>632.2</ele>
        <time>2014-02-06T15:50:54Z</time>
      </trkpt>
      <trkpt lat="43.42292" lon="2.76956">
        <ele>632.2</ele>
        <time>2014-02-06T15:50:56Z</time>
      </trkpt>
      <trkpt lat="43.42288" lon="2.76953">
        <ele>632.68</ele>
        <time>2014-02-06T15:51:10Z</time>
      </trkpt>
      <trkpt lat="43.42287" lon="2.76955">
        <ele>632.2</ele>
        <time>2014-02-06T15:51:22Z</time>
      </trkpt>
      <trkpt lat="43.42287" lon="2.76954">
        <ele>631.24</ele>
        <time>2014-02-06T15:51:28Z</time>
      </trkpt>
      <trkpt lat="43.42281" lon="2.76956">
        <ele>631.72</ele>
        <time>2014-02-06T15:51:33Z</time>
      </trkpt>
      <trkpt lat="43.42276" lon="2.76961">
        <ele>630.28</ele>
        <time>2014-02-06T15:51:38Z</time>
      </trkpt>
      <trkpt lat="43.42261" lon="2.76968">
        <ele>629.32</ele>
        <time>2014-02-06T15:51:52Z</time>
      </trkpt>
      <trkpt lat="43.42252" lon="2.76981">
        <ele>627.88</ele>
        <time>2014-02-06T15:52:03Z</time>
      </trkpt>
      <trkpt lat="43.42246" lon="2.76984">
        <ele>626.44</ele>
        <time>2014-02-06T15:52:09Z</time>
      </trkpt>
      <trkpt lat="43.42239" lon="2.76982">
        <ele>625.47</ele>
        <time>2014-02-06T15:52:21Z</time>
      </trkpt>
      <trkpt lat="43.42233" lon="2.76984">
        <ele>625.47</ele>
        <time>2014-02-06T15:52:33Z</time>
      </trkpt>
      <trkpt lat="43.4222" lon="2.76979">
        <ele>623.07</ele>
        <time>2014-02-06T15:52:45Z</time>
      </trkpt>
      <trkpt lat="43.42207" lon="2.76972">
        <ele>621.63</ele>
        <time>2014-02-06T15:52:57Z</time>
      </trkpt>
      <trkpt lat="43.42192" lon="2.76963">
        <ele>620.67</ele>
        <time>2014-02-06T15:53:09Z</time>
      </trkpt>
      <trkpt lat="43.42186" lon="2.7696">
        <ele>620.19</ele>
        <time>2014-02-06T15:53:15Z</time>
      </trkpt>
      <trkpt lat="43.42175" lon="2.76955">
        <ele>618.75</ele>
        <time>2014-02-06T15:53:23Z</time>
      </trkpt>
      <trkpt lat="43.42168" lon="2.76954">
        <ele>618.26</ele>
        <time>2014-02-06T15:53:29Z</time>
      </trkpt>
      <trkpt lat="43.42154" lon="2.76954">
        <ele>617.3</ele>
        <time>2014-02-06T15:53:41Z</time>
      </trkpt>
      <trkpt lat="43.42135" lon="2.76958">
        <ele>614.9</ele>
        <time>2014-02-06T15:53:57Z</time>
      </trkpt>
      <trkpt lat="43.42123" lon="2.76973">
        <ele>612.98</ele>
        <time>2014-02-06T15:54:11Z</time>
      </trkpt>
      <trkpt lat="43.42116" lon="2.76984">
        <ele>611.06</ele>
        <time>2014-02-06T15:54:19Z</time>
      </trkpt>
      <trkpt lat="43.42112" lon="2.76989">
        <ele>610.57</ele>
        <time>2014-02-06T15:54:23Z</time>
      </trkpt>
      <trkpt lat="43.42105" lon="2.76993">
        <ele>611.54</ele>
        <time>2014-02-06T15:54:29Z</time>
      </trkpt>
      <trkpt lat="43.42098" lon="2.76994">
        <ele>612.5</ele>
        <time>2014-02-06T15:54:40Z</time>
      </trkpt>
      <trkpt lat="43.42091" lon="2.76988">
        <ele>612.5</ele>
        <time>2014-02-06T15:54:47Z</time>
      </trkpt>
      <trkpt lat="43.42082" lon="2.76979">
        <ele>614.9</ele>
        <time>2014-02-06T15:54:56Z</time>
      </trkpt>
      <trkpt lat="43.42073" lon="2.76965">
        <ele>615.86</ele>
        <time>2014-02-06T15:55:08Z</time>
      </trkpt>
      <trkpt lat="43.4207" lon="2.7696">
        <ele>616.34</ele>
        <time>2014-02-06T15:55:12Z</time>
      </trkpt>
      <trkpt lat="43.42067" lon="2.76954">
        <ele>617.3</ele>
        <time>2014-02-06T15:55:16Z</time>
      </trkpt>
      <trkpt lat="43.42058" lon="2.76943">
        <ele>619.23</ele>
        <time>2014-02-06T15:55:28Z</time>
      </trkpt>
      <trkpt lat="43.42054" lon="2.76938">
        <ele>619.23</ele>
        <time>2014-02-06T15:55:36Z</time>
      </trkpt>
      <trkpt lat="43.42052" lon="2.76938">
        <ele>624.03</ele>
        <time>2014-02-06T15:55:38Z</time>
      </trkpt>
      <trkpt lat="43.42051" lon="2.76938">
        <ele>621.15</ele>
        <time>2014-02-06T15:55:39Z</time>
      </trkpt>
      <trkpt lat="43.42045" lon="2.76935">
        <ele>620.67</ele>
        <time>2014-02-06T15:55:45Z</time>
      </trkpt>
      <trkpt lat="43.42031" lon="2.76921">
        <ele>622.11</ele>
        <time>2014-02-06T15:55:58Z</time>
      </trkpt>
      <trkpt lat="43.42026" lon="2.76918">
        <ele>622.11</ele>
        <time>2014-02-06T15:56:09Z</time>
      </trkpt>
      <trkpt lat="43.42019" lon="2.7692">
        <ele>621.63</ele>
        <time>2014-02-06T15:56:26Z</time>
      </trkpt>
      <trkpt lat="43.42012" lon="2.76918">
        <ele>622.11</ele>
        <time>2014-02-06T15:56:39Z</time>
      </trkpt>
      <trkpt lat="43.42011" lon="2.76915">
        <ele>620.67</ele>
        <time>2014-02-06T15:56:50Z</time>
      </trkpt>
      <trkpt lat="43.4201" lon="2.76909">
        <ele>619.71</ele>
        <time>2014-02-06T15:57:05Z</time>
      </trkpt>
      <trkpt lat="43.42002" lon="2.76897">
        <ele>617.3</ele>
        <time>2014-02-06T15:57:17Z</time>
      </trkpt>
      <trkpt lat="43.41992" lon="2.76885">
        <ele>613.94</ele>
        <time>2014-02-06T15:57:28Z</time>
      </trkpt>
      <trkpt lat="43.41986" lon="2.76882">
        <ele>613.46</ele>
        <time>2014-02-06T15:57:33Z</time>
      </trkpt>
      <trkpt lat="43.41977" lon="2.76874">
        <ele>611.54</ele>
        <time>2014-02-06T15:57:42Z</time>
      </trkpt>
      <trkpt lat="43.41977" lon="2.7687">
        <ele>611.54</ele>
        <time>2014-02-06T15:57:46Z</time>
      </trkpt>
      <trkpt lat="43.4197" lon="2.76861">
        <ele>609.61</ele>
        <time>2014-02-06T15:57:53Z</time>
      </trkpt>
      <trkpt lat="43.41961" lon="2.76849">
        <ele>608.17</ele>
        <time>2014-02-06T15:58:04Z</time>
      </trkpt>
      <trkpt lat="43.41952" lon="2.76844">
        <ele>605.77</ele>
        <time>2014-02-06T15:58:11Z</time>
      </trkpt>
      <trkpt lat="43.41938" lon="2.76832">
        <ele>602.88</ele>
        <time>2014-02-06T15:58:25Z</time>
      </trkpt>
      <trkpt lat="43.41936" lon="2.7682">
        <ele>599.52</ele>
        <time>2014-02-06T15:58:38Z</time>
      </trkpt>
      <trkpt lat="43.4193" lon="2.76811">
        <ele>597.12</ele>
        <time>2014-02-06T15:58:50Z</time>
      </trkpt>
      <trkpt lat="43.41924" lon="2.76796">
        <ele>594.71</ele>
        <time>2014-02-06T15:59:03Z</time>
      </trkpt>
      <trkpt lat="43.41916" lon="2.76787">
        <ele>593.27</ele>
        <time>2014-02-06T15:59:16Z</time>
      </trkpt>
      <trkpt lat="43.4191" lon="2.76775">
        <ele>589.91</ele>
        <time>2014-02-06T15:59:29Z</time>
      </trkpt>
      <trkpt lat="43.41906" lon="2.76768">
        <ele>587.98</ele>
        <time>2014-02-06T15:59:37Z</time>
      </trkpt>
      <trkpt lat="43.41896" lon="2.76756">
        <ele>585.1</ele>
        <time>2014-02-06T15:59:51Z</time>
      </trkpt>
      <trkpt lat="43.41886" lon="2.76751">
        <ele>584.14</ele>
        <time>2014-02-06T16:00:03Z</time>
      </trkpt>
      <trkpt lat="43.41878" lon="2.76742">
        <ele>581.73</ele>
        <time>2014-02-06T16:00:15Z</time>
      </trkpt>
      <trkpt lat="43.41864" lon="2.76727">
        <ele>579.81</ele>
        <time>2014-02-06T16:00:28Z</time>
      </trkpt>
      <trkpt lat="43.4185" lon="2.7672">
        <ele>577.41</ele>
        <time>2014-02-06T16:00:39Z</time>
      </trkpt>
      <trkpt lat="43.41842" lon="2.76717">
        <ele>576.93</ele>
        <time>2014-02-06T16:00:45Z</time>
      </trkpt>
      <trkpt lat="43.4182" lon="2.76709">
        <ele>573.56</ele>
        <time>2014-02-06T16:01:01Z</time>
      </trkpt>
      <trkpt lat="43.41804" lon="2.76703">
        <ele>572.12</ele>
        <time>2014-02-06T16:01:14Z</time>
      </trkpt>
      <trkpt lat="43.41795" lon="2.76698">
        <ele>570.68</ele>
        <time>2014-02-06T16:01:22Z</time>
      </trkpt>
      <trkpt lat="43.41777" lon="2.76695">
        <ele>567.8</ele>
        <time>2014-02-06T16:01:37Z</time>
      </trkpt>
      <trkpt lat="43.41775" lon="2.76694">
        <ele>567.32</ele>
        <time>2014-02-06T16:01:39Z</time>
      </trkpt>
      <trkpt lat="43.41761" lon="2.76686">
        <ele>563.95</ele>
        <time>2014-02-06T16:01:50Z</time>
      </trkpt>
      <trkpt lat="43.41756" lon="2.76683">
        <ele>563.47</ele>
        <time>2014-02-06T16:01:53Z</time>
      </trkpt>
      <trkpt lat="43.41746" lon="2.76677">
        <ele>560.59</ele>
        <time>2014-02-06T16:02:07Z</time>
      </trkpt>
      <trkpt lat="43.41744" lon="2.76678">
        <ele>560.59</ele>
        <time>2014-02-06T16:02:09Z</time>
      </trkpt>
      <trkpt lat="43.41727" lon="2.76675">
        <ele>557.7</ele>
        <time>2014-02-06T16:02:22Z</time>
      </trkpt>
      <trkpt lat="43.41719" lon="2.76676">
        <ele>556.26</ele>
        <time>2014-02-06T16:02:31Z</time>
      </trkpt>
      <trkpt lat="43.41716" lon="2.76682">
        <ele>556.26</ele>
        <time>2014-02-06T16:02:34Z</time>
      </trkpt>
      <trkpt lat="43.4171" lon="2.76685">
        <ele>555.3</ele>
        <time>2014-02-06T16:02:47Z</time>
      </trkpt>
      <trkpt lat="43.41707" lon="2.76683">
        <ele>553.86</ele>
        <time>2014-02-06T16:03:03Z</time>
      </trkpt>
      <trkpt lat="43.41704" lon="2.76682">
        <ele>553.86</ele>
        <time>2014-02-06T16:03:18Z</time>
      </trkpt>
      <trkpt lat="43.41704" lon="2.76682">
        <ele>555.3</ele>
        <time>2014-02-06T16:03:29Z</time>
      </trkpt>
      <trkpt lat="43.41705" lon="2.76682">
        <ele>553.38</ele>
        <time>2014-02-06T16:03:31Z</time>
      </trkpt>
      <trkpt lat="43.41706" lon="2.76682">
        <ele>554.34</ele>
        <time>2014-02-06T16:03:33Z</time>
      </trkpt>
      <trkpt lat="43.41705" lon="2.7668">
        <ele>552.9</ele>
        <time>2014-02-06T16:03:35Z</time>
      </trkpt>
      <trkpt lat="43.41704" lon="2.76678">
        <ele>550.97</ele>
        <time>2014-02-06T16:03:37Z</time>
      </trkpt>
      <trkpt lat="43.41704" lon="2.76678">
        <ele>555.78</ele>
        <time>2014-02-06T16:03:41Z</time>
      </trkpt>
      <trkpt lat="43.41704" lon="2.76678">
        <ele>551.45</ele>
        <time>2014-02-06T16:03:46Z</time>
      </trkpt>
      <trkpt lat="43.41704" lon="2.76678">
        <ele>554.82</ele>
        <time>2014-02-06T16:03:47Z</time>
      </trkpt>
      <trkpt lat="43.41704" lon="2.76678">
        <ele>550.97</ele>
        <time>2014-02-06T16:03:52Z</time>
      </trkpt>
      <trkpt lat="43.41704" lon="2.76678">
        <ele>547.13</ele>
        <time>2014-02-06T16:03:53Z</time>
      </trkpt>
      <trkpt lat="43.41704" lon="2.76678">
        <ele>558.66</ele>
        <time>2014-02-06T16:03:54Z</time>
      </trkpt>
      <trkpt lat="43.41704" lon="2.76678">
        <ele>550.01</ele>
        <time>2014-02-06T16:03:55Z</time>
      </trkpt>
      <trkpt lat="43.41704" lon="2.76678">
        <ele>554.34</ele>
        <time>2014-02-06T16:03:56Z</time>
      </trkpt>
      <trkpt lat="43.41704" lon="2.76678">
        <ele>554.34</ele>
        <time>2014-02-06T16:03:57Z</time>
      </trkpt>
      <trkpt lat="43.41702" lon="2.76669">
        <ele>552.41</ele>
        <time>2014-02-06T16:04:03Z</time>
      </trkpt>
      <trkpt lat="43.41704" lon="2.76646">
        <ele>552.41</ele>
        <time>2014-02-06T16:04:18Z</time>
      </trkpt>
      <trkpt lat="43.41706" lon="2.76642">
        <ele>552.41</ele>
        <time>2014-02-06T16:04:21Z</time>
      </trkpt>
      <trkpt lat="43.41716" lon="2.76635">
        <ele>550.49</ele>
        <time>2014-02-06T16:04:33Z</time>
      </trkpt>
      <trkpt lat="43.4173" lon="2.76629">
        <ele>548.57</ele>
        <time>2014-02-06T16:04:44Z</time>
      </trkpt>
      <trkpt lat="43.41733" lon="2.76629">
        <ele>548.57</ele>
        <time>2014-02-06T16:04:46Z</time>
      </trkpt>
      <trkpt lat="43.41739" lon="2.76625">
        <ele>547.61</ele>
        <time>2014-02-06T16:04:52Z</time>
      </trkpt>
      <trkpt lat="43.41741" lon="2.76615">
        <ele>548.57</ele>
        <time>2014-02-06T16:04:58Z</time>
      </trkpt>
      <trkpt lat="43.41738" lon="2.76595">
        <ele>550.01</ele>
        <time>2014-02-06T16:05:11Z</time>
      </trkpt>
      <trkpt lat="43.41732" lon="2.76577">
        <ele>552.9</ele>
        <time>2014-02-06T16:05:25Z</time>
      </trkpt>
      <trkpt lat="43.41723" lon="2.76563">
        <ele>553.38</ele>
        <time>2014-02-06T16:05:36Z</time>
      </trkpt>
      <trkpt lat="43.41719" lon="2.76559">
        <ele>552.9</ele>
        <time>2014-02-06T16:05:41Z</time>
      </trkpt>
      <trkpt lat="43.4171" lon="2.76547">
        <ele>552.9</ele>
        <time>2014-02-06T16:05:55Z</time>
      </trkpt>
      <trkpt lat="43.41702" lon="2.76541">
        <ele>551.93</ele>
        <time>2014-02-06T16:06:05Z</time>
      </trkpt>
      <trkpt lat="43.41695" lon="2.76532">
        <ele>553.86</ele>
        <time>2014-02-06T16:06:19Z</time>
      </trkpt>
      <trkpt lat="43.41685" lon="2.76521">
        <ele>554.82</ele>
        <time>2014-02-06T16:06:33Z</time>
      </trkpt>
      <trkpt lat="43.41673" lon="2.76512">
        <ele>555.78</ele>
        <time>2014-02-06T16:06:45Z</time>
      </trkpt>
      <trkpt lat="43.4167" lon="2.76509">
        <ele>556.26</ele>
        <time>2014-02-06T16:06:48Z</time>
      </trkpt>
      <trkpt lat="43.41659" lon="2.76501">
        <ele>556.26</ele>
        <time>2014-02-06T16:06:59Z</time>
      </trkpt>
      <trkpt lat="43.41651" lon="2.76494">
        <ele>557.22</ele>
        <time>2014-02-06T16:07:07Z</time>
      </trkpt>
      <trkpt lat="43.4164" lon="2.76485">
        <ele>557.7</ele>
        <time>2014-02-06T16:07:19Z</time>
      </trkpt>
      <trkpt lat="43.41637" lon="2.76479">
        <ele>557.7</ele>
        <time>2014-02-06T16:07:25Z</time>
      </trkpt>
      <trkpt lat="43.41627" lon="2.76463">
        <ele>558.18</ele>
        <time>2014-02-06T16:07:38Z</time>
      </trkpt>
      <trkpt lat="43.41621" lon="2.76457">
        <ele>558.18</ele>
        <time>2014-02-06T16:07:47Z</time>
      </trkpt>
      <trkpt lat="43.41615" lon="2.76441">
        <ele>557.7</ele>
        <time>2014-02-06T16:07:59Z</time>
      </trkpt>
      <trkpt lat="43.41612" lon="2.76427">
        <ele>557.22</ele>
        <time>2014-02-06T16:08:09Z</time>
      </trkpt>
      <trkpt lat="43.41609" lon="2.76411">
        <ele>556.74</ele>
        <time>2014-02-06T16:08:20Z</time>
      </trkpt>
      <trkpt lat="43.41608" lon="2.76405">
        <ele>557.22</ele>
        <time>2014-02-06T16:08:23Z</time>
      </trkpt>
      <trkpt lat="43.41607" lon="2.76382">
        <ele>555.3</ele>
        <time>2014-02-06T16:08:37Z</time>
      </trkpt>
      <trkpt lat="43.41606" lon="2.76361">
        <ele>556.26</ele>
        <time>2014-02-06T16:08:50Z</time>
      </trkpt>
      <trkpt lat="43.41603" lon="2.76351">
        <ele>555.78</ele>
        <time>2014-02-06T16:08:56Z</time>
      </trkpt>
      <trkpt lat="43.41603" lon="2.76337">
        <ele>554.82</ele>
        <time>2014-02-06T16:09:04Z</time>
      </trkpt>
      <trkpt lat="43.41604" lon="2.76332">
        <ele>554.34</ele>
        <time>2014-02-06T16:09:07Z</time>
      </trkpt>
      <trkpt lat="43.41605" lon="2.76321">
        <ele>554.34</ele>
        <time>2014-02-06T16:09:14Z</time>
      </trkpt>
      <trkpt lat="43.41605" lon="2.76318">
        <ele>554.82</ele>
        <time>2014-02-06T16:09:16Z</time>
      </trkpt>
      <trkpt lat="43.41608" lon="2.76313">
        <ele>555.78</ele>
        <time>2014-02-06T16:09:20Z</time>
      </trkpt>
      <trkpt lat="43.41613" lon="2.76304">
        <ele>556.74</ele>
        <time>2014-02-06T16:09:27Z</time>
      </trkpt>
      <trkpt lat="43.41617" lon="2.76298">
        <ele>558.18</ele>
        <time>2014-02-06T16:09:32Z</time>
      </trkpt>
      <trkpt lat="43.41622" lon="2.76284">
        <ele>559.62</ele>
        <time>2014-02-06T16:09:44Z</time>
      </trkpt>
      <trkpt lat="43.41629" lon="2.76271">
        <ele>560.59</ele>
        <time>2014-02-06T16:09:55Z</time>
      </trkpt>
      <trkpt lat="43.41635" lon="2.76258">
        <ele>562.51</ele>
        <time>2014-02-06T16:10:08Z</time>
      </trkpt>
      <trkpt lat="43.41639" lon="2.76246">
        <ele>562.99</ele>
        <time>2014-02-06T16:10:23Z</time>
      </trkpt>
      <trkpt lat="43.4164" lon="2.76241">
        <ele>562.99</ele>
        <time>2014-02-06T16:10:37Z</time>
      </trkpt>
      <trkpt lat="43.4164" lon="2.76239">
        <ele>561.55</ele>
        <time>2014-02-06T16:10:52Z</time>
      </trkpt>
      <trkpt lat="43.41638" lon="2.76237">
        <ele>560.11</ele>
        <time>2014-02-06T16:11:05Z</time>
      </trkpt>
      <trkpt lat="43.41635" lon="2.76232">
        <ele>559.14</ele>
        <time>2014-02-06T16:11:17Z</time>
      </trkpt>
      <trkpt lat="43.41631" lon="2.76229">
        <ele>559.62</ele>
        <time>2014-02-06T16:11:33Z</time>
      </trkpt>
      <trkpt lat="43.41629" lon="2.76228">
        <ele>559.62</ele>
        <time>2014-02-06T16:11:49Z</time>
      </trkpt>
      <trkpt lat="43.41627" lon="2.76227">
        <ele>559.62</ele>
        <time>2014-02-06T16:11:52Z</time>
      </trkpt>
      <trkpt lat="43.41614" lon="2.7622">
        <ele>558.18</ele>
        <time>2014-02-06T16:12:04Z</time>
      </trkpt>
      <trkpt lat="43.41613" lon="2.7622">
        <ele>558.18</ele>
        <time>2014-02-06T16:12:18Z</time>
      </trkpt>
      <trkpt lat="43.41604" lon="2.76215">
        <ele>556.74</ele>
        <time>2014-02-06T16:12:32Z</time>
      </trkpt>
      <trkpt lat="43.41598" lon="2.76208">
        <ele>559.14</ele>
        <time>2014-02-06T16:12:45Z</time>
      </trkpt>
      <trkpt lat="43.41597" lon="2.76202">
        <ele>560.11</ele>
        <time>2014-02-06T16:12:51Z</time>
      </trkpt>
      <trkpt lat="43.41596" lon="2.76192">
        <ele>561.55</ele>
        <time>2014-02-06T16:13:06Z</time>
      </trkpt>
      <trkpt lat="43.41595" lon="2.7618">
        <ele>562.99</ele>
        <time>2014-02-06T16:13:18Z</time>
      </trkpt>
      <trkpt lat="43.41591" lon="2.76164">
        <ele>565.87</ele>
        <time>2014-02-06T16:13:33Z</time>
      </trkpt>
      <trkpt lat="43.41588" lon="2.76159">
        <ele>567.8</ele>
        <time>2014-02-06T16:13:46Z</time>
      </trkpt>
      <trkpt lat="43.41585" lon="2.76151">
        <ele>569.24</ele>
        <time>2014-02-06T16:13:55Z</time>
      </trkpt>
      <trkpt lat="43.41582" lon="2.76145">
        <ele>571.16</ele>
        <time>2014-02-06T16:14:02Z</time>
      </trkpt>
      <trkpt lat="43.41582" lon="2.7614">
        <ele>570.68</ele>
        <time>2014-02-06T16:14:06Z</time>
      </trkpt>
      <trkpt lat="43.41583" lon="2.76128">
        <ele>574.04</ele>
        <time>2014-02-06T16:14:15Z</time>
      </trkpt>
      <trkpt lat="43.41583" lon="2.76127">
        <ele>574.04</ele>
        <time>2014-02-06T16:14:16Z</time>
      </trkpt>
      <trkpt lat="43.41583" lon="2.76124">
        <ele>573.08</ele>
        <time>2014-02-06T16:14:18Z</time>
      </trkpt>
      <trkpt lat="43.41581" lon="2.76114">
        <ele>575.49</ele>
        <time>2014-02-06T16:14:26Z</time>
      </trkpt>
      <trkpt lat="43.4158" lon="2.76111">
        <ele>574.04</ele>
        <time>2014-02-06T16:14:29Z</time>
      </trkpt>
      <trkpt lat="43.41578" lon="2.76103">
        <ele>576.93</ele>
        <time>2014-02-06T16:14:35Z</time>
      </trkpt>
      <trkpt lat="43.41577" lon="2.76102">
        <ele>576.45</ele>
        <time>2014-02-06T16:14:36Z</time>
      </trkpt>
      <trkpt lat="43.41574" lon="2.76089">
        <ele>578.37</ele>
        <time>2014-02-06T16:14:47Z</time>
      </trkpt>
      <trkpt lat="43.41573" lon="2.7608">
        <ele>581.25</ele>
        <time>2014-02-06T16:14:54Z</time>
      </trkpt>
      <trkpt lat="43.41572" lon="2.76079">
        <ele>577.41</ele>
        <time>2014-02-06T16:14:55Z</time>
      </trkpt>
      <trkpt lat="43.41572" lon="2.76077">
        <ele>581.73</ele>
        <time>2014-02-06T16:14:57Z</time>
      </trkpt>
      <trkpt lat="43.41572" lon="2.76075">
        <ele>577.41</ele>
        <time>2014-02-06T16:14:58Z</time>
      </trkpt>
      <trkpt lat="43.41572" lon="2.76074">
        <ele>580.29</ele>
        <time>2014-02-06T16:14:59Z</time>
      </trkpt>
      <trkpt lat="43.41569" lon="2.76062">
        <ele>583.66</ele>
        <time>2014-02-06T16:15:09Z</time>
      </trkpt>
      <trkpt lat="43.41567" lon="2.76047">
        <ele>583.66</ele>
        <time>2014-02-06T16:15:22Z</time>
      </trkpt>
      <trkpt lat="43.41566" lon="2.76042">
        <ele>586.54</ele>
        <time>2014-02-06T16:15:26Z</time>
      </trkpt>
      <trkpt lat="43.41565" lon="2.76041">
        <ele>583.66</ele>
        <time>2014-02-06T16:15:27Z</time>
      </trkpt>
      <trkpt lat="43.41565" lon="2.76034">
        <ele>587.02</ele>
        <time>2014-02-06T16:15:33Z</time>
      </trkpt>
      <trkpt lat="43.41561" lon="2.76022">
        <ele>591.35</ele>
        <time>2014-02-06T16:15:45Z</time>
      </trkpt>
      <trkpt lat="43.41561" lon="2.76021">
        <ele>590.87</ele>
        <time>2014-02-06T16:15:46Z</time>
      </trkpt>
      <trkpt lat="43.41561" lon="2.7602">
        <ele>587.02</ele>
        <time>2014-02-06T16:15:47Z</time>
      </trkpt>
      <trkpt lat="43.41561" lon="2.76018">
        <ele>588.95</ele>
        <time>2014-02-06T16:15:48Z</time>
      </trkpt>
      <trkpt lat="43.41566" lon="2.76006">
        <ele>591.35</ele>
        <time>2014-02-06T16:16:00Z</time>
      </trkpt>
      <trkpt lat="43.41566" lon="2.76003">
        <ele>592.31</ele>
        <time>2014-02-06T16:16:12Z</time>
      </trkpt>
      <trkpt lat="43.41567" lon="2.76">
        <ele>592.79</ele>
        <time>2014-02-06T16:16:32Z</time>
      </trkpt>
      <trkpt lat="43.41564" lon="2.75986">
        <ele>592.79</ele>
        <time>2014-02-06T16:16:47Z</time>
      </trkpt>
      <trkpt lat="43.41563" lon="2.75983">
        <ele>596.64</ele>
        <time>2014-02-06T16:16:50Z</time>
      </trkpt>
      <trkpt lat="43.41563" lon="2.75982">
        <ele>592.79</ele>
        <time>2014-02-06T16:16:51Z</time>
      </trkpt>
      <trkpt lat="43.41564" lon="2.75979">
        <ele>596.15</ele>
        <time>2014-02-06T16:16:53Z</time>
      </trkpt>
      <trkpt lat="43.41564" lon="2.75975">
        <ele>597.12</ele>
        <time>2014-02-06T16:16:56Z</time>
      </trkpt>
      <trkpt lat="43.41564" lon="2.75969">
        <ele>596.64</ele>
        <time>2014-02-06T16:17:03Z</time>
      </trkpt>
      <trkpt lat="43.41564" lon="2.75964">
        <ele>599.52</ele>
        <time>2014-02-06T16:17:11Z</time>
      </trkpt>
      <trkpt lat="43.41562" lon="2.7595">
        <ele>600</ele>
        <time>2014-02-06T16:17:22Z</time>
      </trkpt>
      <trkpt lat="43.4156" lon="2.75947">
        <ele>600.48</ele>
        <time>2014-02-06T16:17:25Z</time>
      </trkpt>
      <trkpt lat="43.41559" lon="2.75935">
        <ele>602.88</ele>
        <time>2014-02-06T16:17:35Z</time>
      </trkpt>
      <trkpt lat="43.4156" lon="2.75928">
        <ele>603.36</ele>
        <time>2014-02-06T16:17:49Z</time>
      </trkpt>
      <trkpt lat="43.41561" lon="2.75924">
        <ele>603.36</ele>
        <time>2014-02-06T16:17:52Z</time>
      </trkpt>
      <trkpt lat="43.41563" lon="2.75906">
        <ele>607.21</ele>
        <time>2014-02-06T16:18:06Z</time>
      </trkpt>
      <trkpt lat="43.41562" lon="2.75903">
        <ele>607.69</ele>
        <time>2014-02-06T16:18:11Z</time>
      </trkpt>
      <trkpt lat="43.4156" lon="2.75896">
        <ele>609.61</ele>
        <time>2014-02-06T16:18:24Z</time>
      </trkpt>
      <trkpt lat="43.41558" lon="2.75894">
        <ele>608.65</ele>
        <time>2014-02-06T16:18:38Z</time>
      </trkpt>
      <trkpt lat="43.41554" lon="2.75892">
        <ele>603.36</ele>
        <time>2014-02-06T16:18:50Z</time>
      </trkpt>
      <trkpt lat="43.41554" lon="2.75892">
        <ele>621.15</ele>
        <time>2014-02-06T16:18:51Z</time>
      </trkpt>
      <trkpt lat="43.41554" lon="2.75892">
        <ele>609.61</ele>
        <time>2014-02-06T16:18:52Z</time>
      </trkpt>
      <trkpt lat="43.41554" lon="2.75891">
        <ele>615.38</ele>
        <time>2014-02-06T16:19:01Z</time>
      </trkpt>
      <trkpt lat="43.41554" lon="2.75891">
        <ele>619.71</ele>
        <time>2014-02-06T16:19:03Z</time>
      </trkpt>
      <trkpt lat="43.41554" lon="2.75891">
        <ele>612.02</ele>
        <time>2014-02-06T16:19:04Z</time>
      </trkpt>
      <trkpt lat="43.41554" lon="2.75891">
        <ele>586.54</ele>
        <time>2014-02-06T16:19:05Z</time>
      </trkpt>
      <trkpt lat="43.41554" lon="2.75891">
        <ele>616.34</ele>
        <time>2014-02-06T16:19:06Z</time>
      </trkpt>
      <trkpt lat="43.41554" lon="2.75891">
        <ele>613.46</ele>
        <time>2014-02-06T16:19:07Z</time>
      </trkpt>
      <trkpt lat="43.41554" lon="2.75891">
        <ele>609.61</ele>
        <time>2014-02-06T16:19:08Z</time>
      </trkpt>
      <trkpt lat="43.41554" lon="2.75892">
        <ele>609.13</ele>
        <time>2014-02-06T16:19:09Z</time>
      </trkpt>
      <trkpt lat="43.41553" lon="2.75889">
        <ele>608.65</ele>
        <time>2014-02-06T16:19:25Z</time>
      </trkpt>
      <trkpt lat="43.41543" lon="2.75873">
        <ele>608.17</ele>
        <time>2014-02-06T16:19:37Z</time>
      </trkpt>
      <trkpt lat="43.41542" lon="2.75864">
        <ele>607.21</ele>
        <time>2014-02-06T16:19:50Z</time>
      </trkpt>
      <trkpt lat="43.41541" lon="2.75862">
        <ele>607.69</ele>
        <time>2014-02-06T16:19:52Z</time>
      </trkpt>
      <trkpt lat="43.41539" lon="2.75857">
        <ele>607.69</ele>
        <time>2014-02-06T16:19:56Z</time>
      </trkpt>
      <trkpt lat="43.41536" lon="2.75849">
        <ele>607.21</ele>
        <time>2014-02-06T16:20:07Z</time>
      </trkpt>
      <trkpt lat="43.41529" lon="2.75836">
        <ele>606.25</ele>
        <time>2014-02-06T16:20:16Z</time>
      </trkpt>
      <trkpt lat="43.41516" lon="2.75822">
        <ele>605.29</ele>
        <time>2014-02-06T16:20:29Z</time>
      </trkpt>
      <trkpt lat="43.41508" lon="2.75815">
        <ele>604.81</ele>
        <time>2014-02-06T16:20:41Z</time>
      </trkpt>
      <trkpt lat="43.41508" lon="2.75816">
        <ele>604.81</ele>
        <time>2014-02-06T16:20:44Z</time>
      </trkpt>
      <trkpt lat="43.41507" lon="2.75823">
        <ele>606.25</ele>
        <time>2014-02-06T16:20:52Z</time>
      </trkpt>
      <trkpt lat="43.41502" lon="2.75828">
        <ele>608.65</ele>
        <time>2014-02-06T16:21:05Z</time>
      </trkpt>
      <trkpt lat="43.41495" lon="2.75835">
        <ele>611.06</ele>
        <time>2014-02-06T16:21:18Z</time>
      </trkpt>
      <trkpt lat="43.41494" lon="2.75835">
        <ele>610.57</ele>
        <time>2014-02-06T16:21:19Z</time>
      </trkpt>
      <trkpt lat="43.41489" lon="2.75842">
        <ele>613.46</ele>
        <time>2014-02-06T16:21:31Z</time>
      </trkpt>
      <trkpt lat="43.41484" lon="2.75848">
        <ele>614.9</ele>
        <time>2014-02-06T16:21:44Z</time>
      </trkpt>
      <trkpt lat="43.41483" lon="2.75849">
        <ele>615.86</ele>
        <time>2014-02-06T16:22:05Z</time>
      </trkpt>
      <trkpt lat="43.41483" lon="2.75849">
        <ele>611.06</ele>
        <time>2014-02-06T16:22:20Z</time>
      </trkpt>
      <trkpt lat="43.41483" lon="2.75849">
        <ele>619.71</ele>
        <time>2014-02-06T16:22:21Z</time>
      </trkpt>
      <trkpt lat="43.41483" lon="2.75849">
        <ele>615.86</ele>
        <time>2014-02-06T16:22:22Z</time>
      </trkpt>
      <trkpt lat="43.41484" lon="2.75848">
        <ele>618.26</ele>
        <time>2014-02-06T16:22:25Z</time>
      </trkpt>
      <trkpt lat="43.41484" lon="2.75848">
        <ele>614.9</ele>
        <time>2014-02-06T16:22:53Z</time>
      </trkpt>
      <trkpt lat="43.41484" lon="2.75848">
        <ele>618.26</ele>
        <time>2014-02-06T16:22:56Z</time>
      </trkpt>
      <trkpt lat="43.41484" lon="2.75848">
        <ele>609.13</ele>
        <time>2014-02-06T16:22:57Z</time>
      </trkpt>
      <trkpt lat="43.41484" lon="2.75848">
        <ele>616.82</ele>
        <time>2014-02-06T16:22:58Z</time>
      </trkpt>
      <trkpt lat="43.41481" lon="2.75857">
        <ele>620.19</ele>
        <time>2014-02-06T16:23:03Z</time>
      </trkpt>
      <trkpt lat="43.41479" lon="2.75861">
        <ele>618.75</ele>
        <time>2014-02-06T16:23:06Z</time>
      </trkpt>
      <trkpt lat="43.41473" lon="2.75866">
        <ele>622.59</ele>
        <time>2014-02-06T16:23:14Z</time>
      </trkpt>
      <trkpt lat="43.41469" lon="2.7587">
        <ele>624.03</ele>
        <time>2014-02-06T16:23:19Z</time>
      </trkpt>
      <trkpt lat="43.41465" lon="2.75874">
        <ele>626.44</ele>
        <time>2014-02-06T16:23:25Z</time>
      </trkpt>
      <trkpt lat="43.41459" lon="2.75879">
        <ele>627.4</ele>
        <time>2014-02-06T16:23:34Z</time>
      </trkpt>
      <trkpt lat="43.41455" lon="2.75884">
        <ele>629.32</ele>
        <time>2014-02-06T16:23:39Z</time>
      </trkpt>
      <trkpt lat="43.4145" lon="2.75893">
        <ele>628.36</ele>
        <time>2014-02-06T16:23:48Z</time>
      </trkpt>
      <trkpt lat="43.41444" lon="2.75897">
        <ele>630.28</ele>
        <time>2014-02-06T16:24:01Z</time>
      </trkpt>
      <trkpt lat="43.41441" lon="2.75897">
        <ele>632.2</ele>
        <time>2014-02-06T16:24:09Z</time>
      </trkpt>
      <trkpt lat="43.41433" lon="2.759">
        <ele>632.68</ele>
        <time>2014-02-06T16:24:22Z</time>
      </trkpt>
      <trkpt lat="43.41427" lon="2.75902">
        <ele>635.57</ele>
        <time>2014-02-06T16:24:36Z</time>
      </trkpt>
      <trkpt lat="43.41425" lon="2.75903">
        <ele>636.53</ele>
        <time>2014-02-06T16:24:41Z</time>
      </trkpt>
      <trkpt lat="43.41419" lon="2.75904">
        <ele>638.45</ele>
        <time>2014-02-06T16:24:54Z</time>
      </trkpt>
      <trkpt lat="43.41418" lon="2.75904">
        <ele>638.93</ele>
        <time>2014-02-06T16:25:10Z</time>
      </trkpt>
      <trkpt lat="43.41415" lon="2.75903">
        <ele>639.41</ele>
        <time>2014-02-06T16:25:14Z</time>
      </trkpt>
      <trkpt lat="43.4141" lon="2.75903">
        <ele>643.26</ele>
        <time>2014-02-06T16:25:24Z</time>
      </trkpt>
      <trkpt lat="43.41404" lon="2.75902">
        <ele>645.18</ele>
        <time>2014-02-06T16:25:39Z</time>
      </trkpt>
      <trkpt lat="43.414" lon="2.75902">
        <ele>646.62</ele>
        <time>2014-02-06T16:25:57Z</time>
      </trkpt>
      <trkpt lat="43.41396" lon="2.75903">
        <ele>649.03</ele>
        <time>2014-02-06T16:26:11Z</time>
      </trkpt>
      <trkpt lat="43.41393" lon="2.75904">
        <ele>649.03</ele>
        <time>2014-02-06T16:26:27Z</time>
      </trkpt>
      <trkpt lat="43.41389" lon="2.75904">
        <ele>649.99</ele>
        <time>2014-02-06T16:26:48Z</time>
      </trkpt>
      <trkpt lat="43.41386" lon="2.75905">
        <ele>651.91</ele>
        <time>2014-02-06T16:26:53Z</time>
      </trkpt>
      <trkpt lat="43.41384" lon="2.75905">
        <ele>654.31</ele>
        <time>2014-02-06T16:27:03Z</time>
      </trkpt>
      <trkpt lat="43.41381" lon="2.75905">
        <ele>655.28</ele>
        <time>2014-02-06T16:27:11Z</time>
      </trkpt>
      <trkpt lat="43.41377" lon="2.75905">
        <ele>656.72</ele>
        <time>2014-02-06T16:27:27Z</time>
      </trkpt>
      <trkpt lat="43.41373" lon="2.75907">
        <ele>658.64</ele>
        <time>2014-02-06T16:27:35Z</time>
      </trkpt>
      <trkpt lat="43.41369" lon="2.75911">
        <ele>660.08</ele>
        <time>2014-02-06T16:27:50Z</time>
      </trkpt>
      <trkpt lat="43.41366" lon="2.75915">
        <ele>662.01</ele>
        <time>2014-02-06T16:28:01Z</time>
      </trkpt>
      <trkpt lat="43.41366" lon="2.75915">
        <ele>661.04</ele>
        <time>2014-02-06T16:28:03Z</time>
      </trkpt>
      <trkpt lat="43.41362" lon="2.75918">
        <ele>663.45</ele>
        <time>2014-02-06T16:28:17Z</time>
      </trkpt>
      <trkpt lat="43.41358" lon="2.75921">
        <ele>664.89</ele>
        <time>2014-02-06T16:28:30Z</time>
      </trkpt>
      <trkpt lat="43.41357" lon="2.75922">
        <ele>665.85</ele>
        <time>2014-02-06T16:28:34Z</time>
      </trkpt>
      <trkpt lat="43.41356" lon="2.75922">
        <ele>662.01</ele>
        <time>2014-02-06T16:28:43Z</time>
      </trkpt>
      <trkpt lat="43.41356" lon="2.75923">
        <ele>665.85</ele>
        <time>2014-02-06T16:28:44Z</time>
      </trkpt>
      <trkpt lat="43.41355" lon="2.75923">
        <ele>662.49</ele>
        <time>2014-02-06T16:28:45Z</time>
      </trkpt>
      <trkpt lat="43.41355" lon="2.75923">
        <ele>667.29</ele>
        <time>2014-02-06T16:28:46Z</time>
      </trkpt>
      <trkpt lat="43.41351" lon="2.75925">
        <ele>662.97</ele>
        <time>2014-02-06T16:28:53Z</time>
      </trkpt>
      <trkpt lat="43.41351" lon="2.75926">
        <ele>666.33</ele>
        <time>2014-02-06T16:28:54Z</time>
      </trkpt>
      <trkpt lat="43.4135" lon="2.75927">
        <ele>670.18</ele>
        <time>2014-02-06T16:29:05Z</time>
      </trkpt>
      <trkpt lat="43.41343" lon="2.75932">
        <ele>669.7</ele>
        <time>2014-02-06T16:29:20Z</time>
      </trkpt>
      <trkpt lat="43.41339" lon="2.75932">
        <ele>671.62</ele>
        <time>2014-02-06T16:29:35Z</time>
      </trkpt>
      <trkpt lat="43.41333" lon="2.75927">
        <ele>673.06</ele>
        <time>2014-02-06T16:29:47Z</time>
      </trkpt>
      <trkpt lat="43.41327" lon="2.75917">
        <ele>673.06</ele>
        <time>2014-02-06T16:30:01Z</time>
      </trkpt>
      <trkpt lat="43.4132" lon="2.75911">
        <ele>670.66</ele>
        <time>2014-02-06T16:30:16Z</time>
      </trkpt>
      <trkpt lat="43.41316" lon="2.75899">
        <ele>669.7</ele>
        <time>2014-02-06T16:30:30Z</time>
      </trkpt>
      <trkpt lat="43.41316" lon="2.75897">
        <ele>670.66</ele>
        <time>2014-02-06T16:30:39Z</time>
      </trkpt>
      <trkpt lat="43.41315" lon="2.75895">
        <ele>669.22</ele>
        <time>2014-02-06T16:31:04Z</time>
      </trkpt>
      <trkpt lat="43.41316" lon="2.75886">
        <ele>669.22</ele>
        <time>2014-02-06T16:31:17Z</time>
      </trkpt>
      <trkpt lat="43.41316" lon="2.75885">
        <ele>669.22</ele>
        <time>2014-02-06T16:31:18Z</time>
      </trkpt>
      <trkpt lat="43.41314" lon="2.75877">
        <ele>668.73</ele>
        <time>2014-02-06T16:31:30Z</time>
      </trkpt>
      <trkpt lat="43.41314" lon="2.75877">
        <ele>667.29</ele>
        <time>2014-02-06T16:31:41Z</time>
      </trkpt>
      <trkpt lat="43.41312" lon="2.75874">
        <ele>666.33</ele>
        <time>2014-02-06T16:31:43Z</time>
      </trkpt>
      <trkpt lat="43.41303" lon="2.7586">
        <ele>662.97</ele>
        <time>2014-02-06T16:31:54Z</time>
      </trkpt>
      <trkpt lat="43.41299" lon="2.75857">
        <ele>662.97</ele>
        <time>2014-02-06T16:31:57Z</time>
      </trkpt>
      <trkpt lat="43.41291" lon="2.7584">
        <ele>661.52</ele>
        <time>2014-02-06T16:32:08Z</time>
      </trkpt>
      <trkpt lat="43.41284" lon="2.75833">
        <ele>659.12</ele>
        <time>2014-02-06T16:32:16Z</time>
      </trkpt>
      <trkpt lat="43.41272" lon="2.75823">
        <ele>656.24</ele>
        <time>2014-02-06T16:32:28Z</time>
      </trkpt>
      <trkpt lat="43.41271" lon="2.75823">
        <ele>655.76</ele>
        <time>2014-02-06T16:32:29Z</time>
      </trkpt>
      <trkpt lat="43.41257" lon="2.75806">
        <ele>652.39</ele>
        <time>2014-02-06T16:32:46Z</time>
      </trkpt>
      <trkpt lat="43.41246" lon="2.75796">
        <ele>649.03</ele>
        <time>2014-02-06T16:32:59Z</time>
      </trkpt>
      <trkpt lat="43.41237" lon="2.75786">
        <ele>646.14</ele>
        <time>2014-02-06T16:33:10Z</time>
      </trkpt>
      <trkpt lat="43.41236" lon="2.75785">
        <ele>645.66</ele>
        <time>2014-02-06T16:33:11Z</time>
      </trkpt>
      <trkpt lat="43.41224" lon="2.75771">
        <ele>643.26</ele>
        <time>2014-02-06T16:33:26Z</time>
      </trkpt>
      <trkpt lat="43.41213" lon="2.75752">
        <ele>639.89</ele>
        <time>2014-02-06T16:33:40Z</time>
      </trkpt>
      <trkpt lat="43.41209" lon="2.75732">
        <ele>639.41</ele>
        <time>2014-02-06T16:33:54Z</time>
      </trkpt>
      <trkpt lat="43.41208" lon="2.75731">
        <ele>638.93</ele>
        <time>2014-02-06T16:33:57Z</time>
      </trkpt>
      <trkpt lat="43.41202" lon="2.75741">
        <ele>637.01</ele>
        <time>2014-02-06T16:34:05Z</time>
      </trkpt>
      <trkpt lat="43.41191" lon="2.75762">
        <ele>635.57</ele>
        <time>2014-02-06T16:34:21Z</time>
      </trkpt>
      <trkpt lat="43.41182" lon="2.7578">
        <ele>633.17</ele>
        <time>2014-02-06T16:34:35Z</time>
      </trkpt>
      <trkpt lat="43.41172" lon="2.75799">
        <ele>630.76</ele>
        <time>2014-02-06T16:34:50Z</time>
      </trkpt>
      <trkpt lat="43.41169" lon="2.75807">
        <ele>630.76</ele>
        <time>2014-02-06T16:34:57Z</time>
      </trkpt>
      <trkpt lat="43.41163" lon="2.75818">
        <ele>627.4</ele>
        <time>2014-02-06T16:35:07Z</time>
      </trkpt>
      <trkpt lat="43.41162" lon="2.75819">
        <ele>627.4</ele>
        <time>2014-02-06T16:35:08Z</time>
      </trkpt>
      <trkpt lat="43.41159" lon="2.75825">
        <ele>626.92</ele>
        <time>2014-02-06T16:35:13Z</time>
      </trkpt>
      <trkpt lat="43.41155" lon="2.75835">
        <ele>625.47</ele>
        <time>2014-02-06T16:35:20Z</time>
      </trkpt>
      <trkpt lat="43.41151" lon="2.75852">
        <ele>622.11</ele>
        <time>2014-02-06T16:35:31Z</time>
      </trkpt>
      <trkpt lat="43.41148" lon="2.75859">
        <ele>621.63</ele>
        <time>2014-02-06T16:35:38Z</time>
      </trkpt>
      <trkpt lat="43.41147" lon="2.75863">
        <ele>622.11</ele>
        <time>2014-02-06T16:35:40Z</time>
      </trkpt>
      <trkpt lat="43.41145" lon="2.75867">
        <ele>621.63</ele>
        <time>2014-02-06T16:35:43Z</time>
      </trkpt>
      <trkpt lat="43.41147" lon="2.75889">
        <ele>619.71</ele>
        <time>2014-02-06T16:35:56Z</time>
      </trkpt>
      <trkpt lat="43.41147" lon="2.7589">
        <ele>619.71</ele>
        <time>2014-02-06T16:35:57Z</time>
      </trkpt>
      <trkpt lat="43.41148" lon="2.75893">
        <ele>618.26</ele>
        <time>2014-02-06T16:35:59Z</time>
      </trkpt>
      <trkpt lat="43.41147" lon="2.75898">
        <ele>617.3</ele>
        <time>2014-02-06T16:36:04Z</time>
      </trkpt>
      <trkpt lat="43.4114" lon="2.75899">
        <ele>616.82</ele>
        <time>2014-02-06T16:36:11Z</time>
      </trkpt>
      <trkpt lat="43.41136" lon="2.75896">
        <ele>615.38</ele>
        <time>2014-02-06T16:36:14Z</time>
      </trkpt>
      <trkpt lat="43.41124" lon="2.75882">
        <ele>614.42</ele>
        <time>2014-02-06T16:36:28Z</time>
      </trkpt>
      <trkpt lat="43.41116" lon="2.75875">
        <ele>612.98</ele>
        <time>2014-02-06T16:36:36Z</time>
      </trkpt>
      <trkpt lat="43.41112" lon="2.75871">
        <ele>611.54</ele>
        <time>2014-02-06T16:36:40Z</time>
      </trkpt>
      <trkpt lat="43.41096" lon="2.7586">
        <ele>610.57</ele>
        <time>2014-02-06T16:36:55Z</time>
      </trkpt>
      <trkpt lat="43.41093" lon="2.75856">
        <ele>610.09</ele>
        <time>2014-02-06T16:36:58Z</time>
      </trkpt>
      <trkpt lat="43.4108" lon="2.75845">
        <ele>605.77</ele>
        <time>2014-02-06T16:37:09Z</time>
      </trkpt>
      <trkpt lat="43.41069" lon="2.75836">
        <ele>603.36</ele>
        <time>2014-02-06T16:37:24Z</time>
      </trkpt>
      <trkpt lat="43.41062" lon="2.75823">
        <ele>600</ele>
        <time>2014-02-06T16:37:36Z</time>
      </trkpt>
      <trkpt lat="43.41059" lon="2.75808">
        <ele>597.6</ele>
        <time>2014-02-06T16:37:48Z</time>
      </trkpt>
      <trkpt lat="43.41059" lon="2.75801">
        <ele>598.08</ele>
        <time>2014-02-06T16:37:52Z</time>
      </trkpt>
      <trkpt lat="43.41058" lon="2.7579">
        <ele>595.19</ele>
        <time>2014-02-06T16:37:59Z</time>
      </trkpt>
      <trkpt lat="43.41049" lon="2.75783">
        <ele>593.75</ele>
        <time>2014-02-06T16:38:09Z</time>
      </trkpt>
      <trkpt lat="43.41046" lon="2.75787">
        <ele>592.31</ele>
        <time>2014-02-06T16:38:13Z</time>
      </trkpt>
      <trkpt lat="43.41042" lon="2.75794">
        <ele>589.91</ele>
        <time>2014-02-06T16:38:17Z</time>
      </trkpt>
      <trkpt lat="43.41031" lon="2.75807">
        <ele>587.98</ele>
        <time>2014-02-06T16:38:30Z</time>
      </trkpt>
      <trkpt lat="43.4102" lon="2.75812">
        <ele>585.1</ele>
        <time>2014-02-06T16:38:41Z</time>
      </trkpt>
      <trkpt lat="43.41011" lon="2.75819">
        <ele>581.73</ele>
        <time>2014-02-06T16:38:54Z</time>
      </trkpt>
      <trkpt lat="43.41" lon="2.75826">
        <ele>578.37</ele>
        <time>2014-02-06T16:39:05Z</time>
      </trkpt>
      <trkpt lat="43.40992" lon="2.75836">
        <ele>576.93</ele>
        <time>2014-02-06T16:39:14Z</time>
      </trkpt>
      <trkpt lat="43.40988" lon="2.75842">
        <ele>576.93</ele>
        <time>2014-02-06T16:39:18Z</time>
      </trkpt>
      <trkpt lat="43.40987" lon="2.75848">
        <ele>575.97</ele>
        <time>2014-02-06T16:39:22Z</time>
      </trkpt>
      <trkpt lat="43.40987" lon="2.75852">
        <ele>576.45</ele>
        <time>2014-02-06T16:39:24Z</time>
      </trkpt>
      <trkpt lat="43.40988" lon="2.75871">
        <ele>578.37</ele>
        <time>2014-02-06T16:39:35Z</time>
      </trkpt>
      <trkpt lat="43.40989" lon="2.75888">
        <ele>576.93</ele>
        <time>2014-02-06T16:39:45Z</time>
      </trkpt>
      <trkpt lat="43.40991" lon="2.75905">
        <ele>578.37</ele>
        <time>2014-02-06T16:39:56Z</time>
      </trkpt>
      <trkpt lat="43.40992" lon="2.75906">
        <ele>578.85</ele>
        <time>2014-02-06T16:39:57Z</time>
      </trkpt>
      <trkpt lat="43.40994" lon="2.75915">
        <ele>578.37</ele>
        <time>2014-02-06T16:40:02Z</time>
      </trkpt>
      <trkpt lat="43.40996" lon="2.75924">
        <ele>578.85</ele>
        <time>2014-02-06T16:40:07Z</time>
      </trkpt>
      <trkpt lat="43.40997" lon="2.75933">
        <ele>578.37</ele>
        <time>2014-02-06T16:40:12Z</time>
      </trkpt>
      <trkpt lat="43.41007" lon="2.75952">
        <ele>577.89</ele>
        <time>2014-02-06T16:40:26Z</time>
      </trkpt>
      <trkpt lat="43.41011" lon="2.75958">
        <ele>579.33</ele>
        <time>2014-02-06T16:40:31Z</time>
      </trkpt>
      <trkpt lat="43.4102" lon="2.75971">
        <ele>579.33</ele>
        <time>2014-02-06T16:40:43Z</time>
      </trkpt>
      <trkpt lat="43.41033" lon="2.75979">
        <ele>579.81</ele>
        <time>2014-02-06T16:40:57Z</time>
      </trkpt>
      <trkpt lat="43.4104" lon="2.75983">
        <ele>580.29</ele>
        <time>2014-02-06T16:41:03Z</time>
      </trkpt>
      <trkpt lat="43.41045" lon="2.75987">
        <ele>579.81</ele>
        <time>2014-02-06T16:41:08Z</time>
      </trkpt>
      <trkpt lat="43.41058" lon="2.76003">
        <ele>580.77</ele>
        <time>2014-02-06T16:41:22Z</time>
      </trkpt>
      <trkpt lat="43.41057" lon="2.76014">
        <ele>581.25</ele>
        <time>2014-02-06T16:41:30Z</time>
      </trkpt>
      <trkpt lat="43.41054" lon="2.76019">
        <ele>581.73</ele>
        <time>2014-02-06T16:41:34Z</time>
      </trkpt>
      <trkpt lat="43.41052" lon="2.76021">
        <ele>582.7</ele>
        <time>2014-02-06T16:41:36Z</time>
      </trkpt>
      <trkpt lat="43.41048" lon="2.76023">
        <ele>581.25</ele>
        <time>2014-02-06T16:41:40Z</time>
      </trkpt>
      <trkpt lat="43.41046" lon="2.76025">
        <ele>581.25</ele>
        <time>2014-02-06T16:41:42Z</time>
      </trkpt>
      <trkpt lat="43.41044" lon="2.76027">
        <ele>581.73</ele>
        <time>2014-02-06T16:41:45Z</time>
      </trkpt>
      <trkpt lat="43.41034" lon="2.76031">
        <ele>578.85</ele>
        <time>2014-02-06T16:41:55Z</time>
      </trkpt>
      <trkpt lat="43.41031" lon="2.76033">
        <ele>579.33</ele>
        <time>2014-02-06T16:41:58Z</time>
      </trkpt>
      <trkpt lat="43.41018" lon="2.7604">
        <ele>575.97</ele>
        <time>2014-02-06T16:42:10Z</time>
      </trkpt>
      <trkpt lat="43.41003" lon="2.76051">
        <ele>574.53</ele>
        <time>2014-02-06T16:42:24Z</time>
      </trkpt>
      <trkpt lat="43.40988" lon="2.76066">
        <ele>572.6</ele>
        <time>2014-02-06T16:42:40Z</time>
      </trkpt>
      <trkpt lat="43.40976" lon="2.76076">
        <ele>569.24</ele>
        <time>2014-02-06T16:42:53Z</time>
      </trkpt>
      <trkpt lat="43.40962" lon="2.76092">
        <ele>565.87</ele>
        <time>2014-02-06T16:43:09Z</time>
      </trkpt>
      <trkpt lat="43.40959" lon="2.76095">
        <ele>565.87</ele>
        <time>2014-02-06T16:43:13Z</time>
      </trkpt>
      <trkpt lat="43.40945" lon="2.7611">
        <ele>562.99</ele>
        <time>2014-02-06T16:43:26Z</time>
      </trkpt>
      <trkpt lat="43.40934" lon="2.76132">
        <ele>560.11</ele>
        <time>2014-02-06T16:43:42Z</time>
      </trkpt>
      <trkpt lat="43.40921" lon="2.76146">
        <ele>556.26</ele>
        <time>2014-02-06T16:43:57Z</time>
      </trkpt>
      <trkpt lat="43.40909" lon="2.76155">
        <ele>553.38</ele>
        <time>2014-02-06T16:44:10Z</time>
      </trkpt>
      <trkpt lat="43.40896" lon="2.76162">
        <ele>550.97</ele>
        <time>2014-02-06T16:44:23Z</time>
      </trkpt>
      <trkpt lat="43.40878" lon="2.76173">
        <ele>548.09</ele>
        <time>2014-02-06T16:44:39Z</time>
      </trkpt>
      <trkpt lat="43.40877" lon="2.76174">
        <ele>547.61</ele>
        <time>2014-02-06T16:44:41Z</time>
      </trkpt>
      <trkpt lat="43.40862" lon="2.76183">
        <ele>546.65</ele>
        <time>2014-02-06T16:44:55Z</time>
      </trkpt>
      <trkpt lat="43.40858" lon="2.76185">
        <ele>545.69</ele>
        <time>2014-02-06T16:44:59Z</time>
      </trkpt>
      <trkpt lat="43.40849" lon="2.7619">
        <ele>543.28</ele>
        <time>2014-02-06T16:45:07Z</time>
      </trkpt>
      <trkpt lat="43.40842" lon="2.76193">
        <ele>542.32</ele>
        <time>2014-02-06T16:45:15Z</time>
      </trkpt>
      <trkpt lat="43.40827" lon="2.762">
        <ele>538.96</ele>
        <time>2014-02-06T16:45:28Z</time>
      </trkpt>
      <trkpt lat="43.40822" lon="2.76204">
        <ele>538.48</ele>
        <time>2014-02-06T16:45:35Z</time>
      </trkpt>
      <trkpt lat="43.40813" lon="2.76214">
        <ele>534.63</ele>
        <time>2014-02-06T16:45:45Z</time>
      </trkpt>
      <trkpt lat="43.40802" lon="2.76227">
        <ele>531.27</ele>
        <time>2014-02-06T16:45:57Z</time>
      </trkpt>
      <trkpt lat="43.40787" lon="2.76241">
        <ele>527.9</ele>
        <time>2014-02-06T16:46:13Z</time>
      </trkpt>
      <trkpt lat="43.40782" lon="2.76246">
        <ele>525.5</ele>
        <time>2014-02-06T16:46:20Z</time>
      </trkpt>
      <trkpt lat="43.40772" lon="2.76258">
        <ele>523.58</ele>
        <time>2014-02-06T16:46:33Z</time>
      </trkpt>
      <trkpt lat="43.40765" lon="2.7627">
        <ele>520.69</ele>
        <time>2014-02-06T16:46:43Z</time>
      </trkpt>
      <trkpt lat="43.40758" lon="2.76281">
        <ele>517.81</ele>
        <time>2014-02-06T16:46:54Z</time>
      </trkpt>
      <trkpt lat="43.40752" lon="2.76287">
        <ele>516.85</ele>
        <time>2014-02-06T16:47:01Z</time>
      </trkpt>
      <trkpt lat="43.4074" lon="2.76311">
        <ele>513</ele>
        <time>2014-02-06T16:47:17Z</time>
      </trkpt>
      <trkpt lat="43.40729" lon="2.7633">
        <ele>510.12</ele>
        <time>2014-02-06T16:47:31Z</time>
      </trkpt>
      <trkpt lat="43.4072" lon="2.7635">
        <ele>507.71</ele>
        <time>2014-02-06T16:47:46Z</time>
      </trkpt>
      <trkpt lat="43.40718" lon="2.76357">
        <ele>506.75</ele>
        <time>2014-02-06T16:47:50Z</time>
      </trkpt>
      <trkpt lat="43.40715" lon="2.76364">
        <ele>507.23</ele>
        <time>2014-02-06T16:47:56Z</time>
      </trkpt>
      <trkpt lat="43.40706" lon="2.76381">
        <ele>506.27</ele>
        <time>2014-02-06T16:48:09Z</time>
      </trkpt>
      <trkpt lat="43.40703" lon="2.76387">
        <ele>506.27</ele>
        <time>2014-02-06T16:48:13Z</time>
      </trkpt>
      <trkpt lat="43.40697" lon="2.76395">
        <ele>505.79</ele>
        <time>2014-02-06T16:48:21Z</time>
      </trkpt>
      <trkpt lat="43.40693" lon="2.76396">
        <ele>504.83</ele>
        <time>2014-02-06T16:48:25Z</time>
      </trkpt>
      <trkpt lat="43.40692" lon="2.76385">
        <ele>501.95</ele>
        <time>2014-02-06T16:48:37Z</time>
      </trkpt>
      <trkpt lat="43.40692" lon="2.76376">
        <ele>500.5</ele>
        <time>2014-02-06T16:48:52Z</time>
      </trkpt>
      <trkpt lat="43.40692" lon="2.76373">
        <ele>500.5</ele>
        <time>2014-02-06T16:49:12Z</time>
      </trkpt>
      <trkpt lat="43.40692" lon="2.76373">
        <ele>494.26</ele>
        <time>2014-02-06T16:49:29Z</time>
      </trkpt>
      <trkpt lat="43.40692" lon="2.76373">
        <ele>501.46</ele>
        <time>2014-02-06T16:49:30Z</time>
      </trkpt>
      <trkpt lat="43.40694" lon="2.76364">
        <ele>498.58</ele>
        <time>2014-02-06T16:49:42Z</time>
      </trkpt>
      <trkpt lat="43.40694" lon="2.76346">
        <ele>496.66</ele>
        <time>2014-02-06T16:49:56Z</time>
      </trkpt>
      <trkpt lat="43.40697" lon="2.76327">
        <ele>493.29</ele>
        <time>2014-02-06T16:50:09Z</time>
      </trkpt>
      <trkpt lat="43.40697" lon="2.76319">
        <ele>492.33</ele>
        <time>2014-02-06T16:50:16Z</time>
      </trkpt>
      <trkpt lat="43.40696" lon="2.76303">
        <ele>490.89</ele>
        <time>2014-02-06T16:50:26Z</time>
      </trkpt>
      <trkpt lat="43.40693" lon="2.76279">
        <ele>488.01</ele>
        <time>2014-02-06T16:50:41Z</time>
      </trkpt>
      <trkpt lat="43.40691" lon="2.76263">
        <ele>484.64</ele>
        <time>2014-02-06T16:50:53Z</time>
      </trkpt>
      <trkpt lat="43.40688" lon="2.76242">
        <ele>481.76</ele>
        <time>2014-02-06T16:51:06Z</time>
      </trkpt>
      <trkpt lat="43.40686" lon="2.76218">
        <ele>479.84</ele>
        <time>2014-02-06T16:51:20Z</time>
      </trkpt>
      <trkpt lat="43.40687" lon="2.76209">
        <ele>479.35</ele>
        <time>2014-02-06T16:51:26Z</time>
      </trkpt>
      <trkpt lat="43.40687" lon="2.76183">
        <ele>477.43</ele>
        <time>2014-02-06T16:51:40Z</time>
      </trkpt>
      <trkpt lat="43.40691" lon="2.76151">
        <ele>475.99</ele>
        <time>2014-02-06T16:51:54Z</time>
      </trkpt>
      <trkpt lat="43.40688" lon="2.76121">
        <ele>475.03</ele>
        <time>2014-02-06T16:52:09Z</time>
      </trkpt>
      <trkpt lat="43.40675" lon="2.76119">
        <ele>475.51</ele>
        <time>2014-02-06T16:52:26Z</time>
      </trkpt>
      <trkpt lat="43.40666" lon="2.76125">
        <ele>476.95</ele>
        <time>2014-02-06T16:52:39Z</time>
      </trkpt>
      <trkpt lat="43.40663" lon="2.76128">
        <ele>476.95</ele>
        <time>2014-02-06T16:52:44Z</time>
      </trkpt>
      <trkpt lat="43.40649" lon="2.76143">
        <ele>477.91</ele>
        <time>2014-02-06T16:52:59Z</time>
      </trkpt>
      <trkpt lat="43.40636" lon="2.76155">
        <ele>481.28</ele>
        <time>2014-02-06T16:53:14Z</time>
      </trkpt>
      <trkpt lat="43.40631" lon="2.76161">
        <ele>481.28</ele>
        <time>2014-02-06T16:53:19Z</time>
      </trkpt>
      <trkpt lat="43.40621" lon="2.76174">
        <ele>483.2</ele>
        <time>2014-02-06T16:53:31Z</time>
      </trkpt>
      <trkpt lat="43.40608" lon="2.76192">
        <ele>485.12</ele>
        <time>2014-02-06T16:53:47Z</time>
      </trkpt>
      <trkpt lat="43.40607" lon="2.76193">
        <ele>485.12</ele>
        <time>2014-02-06T16:53:48Z</time>
      </trkpt>
      <trkpt lat="43.40601" lon="2.76197">
        <ele>485.12</ele>
        <time>2014-02-06T16:53:52Z</time>
      </trkpt>
      <trkpt lat="43.40582" lon="2.76204">
        <ele>487.53</ele>
        <time>2014-02-06T16:54:10Z</time>
      </trkpt>
      <trkpt lat="43.40566" lon="2.76213">
        <ele>487.53</ele>
        <time>2014-02-06T16:54:25Z</time>
      </trkpt>
      <trkpt lat="43.40553" lon="2.7622">
        <ele>488.97</ele>
        <time>2014-02-06T16:54:39Z</time>
      </trkpt>
      <trkpt lat="43.40535" lon="2.76227">
        <ele>489.93</ele>
        <time>2014-02-06T16:54:56Z</time>
      </trkpt>
      <trkpt lat="43.40518" lon="2.76234">
        <ele>489.93</ele>
        <time>2014-02-06T16:55:13Z</time>
      </trkpt>
      <trkpt lat="43.40502" lon="2.7624">
        <ele>490.41</ele>
        <time>2014-02-06T16:55:28Z</time>
      </trkpt>
      <trkpt lat="43.40488" lon="2.76246">
        <ele>490.41</ele>
        <time>2014-02-06T16:55:42Z</time>
      </trkpt>
      <trkpt lat="43.40476" lon="2.76251">
        <ele>489.93</ele>
        <time>2014-02-06T16:55:57Z</time>
      </trkpt>
      <trkpt lat="43.40466" lon="2.76251">
        <ele>488.97</ele>
        <time>2014-02-06T16:56:13Z</time>
      </trkpt>
      <trkpt lat="43.40444" lon="2.76263">
        <ele>489.93</ele>
        <time>2014-02-06T16:56:28Z</time>
      </trkpt>
      <trkpt lat="43.4043" lon="2.76267">
        <ele>488.49</ele>
        <time>2014-02-06T16:56:41Z</time>
      </trkpt>
      <trkpt lat="43.4041" lon="2.76271">
        <ele>487.05</ele>
        <time>2014-02-06T16:56:57Z</time>
      </trkpt>
      <trkpt lat="43.40398" lon="2.76273">
        <ele>486.08</ele>
        <time>2014-02-06T16:57:11Z</time>
      </trkpt>
      <trkpt lat="43.40379" lon="2.76265">
        <ele>485.12</ele>
        <time>2014-02-06T16:57:26Z</time>
      </trkpt>
      <trkpt lat="43.40363" lon="2.76263">
        <ele>485.12</ele>
        <time>2014-02-06T16:57:34Z</time>
      </trkpt>
      <trkpt lat="43.40343" lon="2.76256">
        <ele>484.64</ele>
        <time>2014-02-06T16:57:46Z</time>
      </trkpt>
      <trkpt lat="43.40326" lon="2.7625">
        <ele>482.24</ele>
        <time>2014-02-06T16:58:02Z</time>
      </trkpt>
      <trkpt lat="43.40314" lon="2.76235">
        <ele>478.87</ele>
        <time>2014-02-06T16:58:15Z</time>
      </trkpt>
      <trkpt lat="43.40307" lon="2.76214">
        <ele>476.47</ele>
        <time>2014-02-06T16:58:30Z</time>
      </trkpt>
      <trkpt lat="43.40303" lon="2.76194">
        <ele>475.03</ele>
        <time>2014-02-06T16:58:44Z</time>
      </trkpt>
      <trkpt lat="43.40302" lon="2.76187">
        <ele>473.59</ele>
        <time>2014-02-06T16:58:49Z</time>
      </trkpt>
      <trkpt lat="43.40299" lon="2.76167">
        <ele>471.18</ele>
        <time>2014-02-06T16:59:02Z</time>
      </trkpt>
      <trkpt lat="43.40298" lon="2.76145">
        <ele>469.26</ele>
        <time>2014-02-06T16:59:15Z</time>
      </trkpt>
      <trkpt lat="43.40296" lon="2.76132">
        <ele>468.3</ele>
        <time>2014-02-06T16:59:25Z</time>
      </trkpt>
      <trkpt lat="43.40284" lon="2.76128">
        <ele>468.3</ele>
        <time>2014-02-06T16:59:39Z</time>
      </trkpt>
      <trkpt lat="43.40271" lon="2.7614">
        <ele>466.38</ele>
        <time>2014-02-06T16:59:54Z</time>
      </trkpt>
      <trkpt lat="43.40255" lon="2.76152">
        <ele>469.74</ele>
        <time>2014-02-06T17:00:10Z</time>
      </trkpt>
      <trkpt lat="43.40239" lon="2.76166">
        <ele>469.74</ele>
        <time>2014-02-06T17:00:25Z</time>
      </trkpt>
      <trkpt lat="43.40224" lon="2.76177">
        <ele>470.7</ele>
        <time>2014-02-06T17:00:41Z</time>
      </trkpt>
      <trkpt lat="43.40223" lon="2.76178">
        <ele>470.7</ele>
        <time>2014-02-06T17:00:42Z</time>
      </trkpt>
      <trkpt lat="43.4022" lon="2.76181">
        <ele>469.74</ele>
        <time>2014-02-06T17:00:44Z</time>
      </trkpt>
      <trkpt lat="43.40205" lon="2.76202">
        <ele>467.82</ele>
        <time>2014-02-06T17:00:59Z</time>
      </trkpt>
      <trkpt lat="43.40194" lon="2.76224">
        <ele>466.38</ele>
        <time>2014-02-06T17:01:14Z</time>
      </trkpt>
      <trkpt lat="43.40193" lon="2.76225">
        <ele>466.38</ele>
        <time>2014-02-06T17:01:15Z</time>
      </trkpt>
      <trkpt lat="43.40184" lon="2.76248">
        <ele>465.42</ele>
        <time>2014-02-06T17:01:31Z</time>
      </trkpt>
      <trkpt lat="43.40173" lon="2.76266">
        <ele>463.49</ele>
        <time>2014-02-06T17:01:47Z</time>
      </trkpt>
      <trkpt lat="43.40154" lon="2.76276">
        <ele>462.05</ele>
        <time>2014-02-06T17:02:03Z</time>
      </trkpt>
      <trkpt lat="43.40137" lon="2.7629">
        <ele>461.57</ele>
        <time>2014-02-06T17:02:21Z</time>
      </trkpt>
      <trkpt lat="43.40123" lon="2.76304">
        <ele>461.57</ele>
        <time>2014-02-06T17:02:35Z</time>
      </trkpt>
      <trkpt lat="43.40118" lon="2.76312">
        <ele>461.09</ele>
        <time>2014-02-06T17:02:42Z</time>
      </trkpt>
      <trkpt lat="43.40105" lon="2.76334">
        <ele>461.09</ele>
        <time>2014-02-06T17:02:58Z</time>
      </trkpt>
      <trkpt lat="43.40092" lon="2.76345">
        <ele>463.49</ele>
        <time>2014-02-06T17:03:11Z</time>
      </trkpt>
      <trkpt lat="43.40086" lon="2.76342">
        <ele>463.49</ele>
        <time>2014-02-06T17:03:17Z</time>
      </trkpt>
      <trkpt lat="43.40082" lon="2.76338">
        <ele>463.97</ele>
        <time>2014-02-06T17:03:21Z</time>
      </trkpt>
      <trkpt lat="43.40077" lon="2.76329">
        <ele>463.97</ele>
        <time>2014-02-06T17:03:27Z</time>
      </trkpt>
      <trkpt lat="43.4007" lon="2.76307">
        <ele>464.93</ele>
        <time>2014-02-06T17:03:44Z</time>
      </trkpt>
      <trkpt lat="43.40068" lon="2.76297">
        <ele>465.42</ele>
        <time>2014-02-06T17:03:50Z</time>
      </trkpt>
      <trkpt lat="43.40067" lon="2.76293">
        <ele>465.9</ele>
        <time>2014-02-06T17:03:55Z</time>
      </trkpt>
      <trkpt lat="43.40066" lon="2.76288">
        <ele>466.38</ele>
        <time>2014-02-06T17:03:58Z</time>
      </trkpt>
      <trkpt lat="43.40066" lon="2.76277">
        <ele>466.86</ele>
        <time>2014-02-06T17:04:05Z</time>
      </trkpt>
      <trkpt lat="43.40065" lon="2.76274">
        <ele>467.34</ele>
        <time>2014-02-06T17:04:07Z</time>
      </trkpt>
      <trkpt lat="43.40065" lon="2.76259">
        <ele>467.34</ele>
        <time>2014-02-06T17:04:18Z</time>
      </trkpt>
      <trkpt lat="43.40066" lon="2.76251">
        <ele>468.78</ele>
        <time>2014-02-06T17:04:27Z</time>
      </trkpt>
      <trkpt lat="43.40068" lon="2.76229">
        <ele>471.18</ele>
        <time>2014-02-06T17:04:41Z</time>
      </trkpt>
      <trkpt lat="43.40071" lon="2.76211">
        <ele>471.66</ele>
        <time>2014-02-06T17:04:53Z</time>
      </trkpt>
      <trkpt lat="43.40071" lon="2.76189">
        <ele>472.63</ele>
        <time>2014-02-06T17:05:09Z</time>
      </trkpt>
      <trkpt lat="43.4007" lon="2.76167">
        <ele>474.07</ele>
        <time>2014-02-06T17:05:23Z</time>
      </trkpt>
      <trkpt lat="43.40066" lon="2.76148">
        <ele>475.03</ele>
        <time>2014-02-06T17:05:36Z</time>
      </trkpt>
      <trkpt lat="43.40063" lon="2.76124">
        <ele>476.47</ele>
        <time>2014-02-06T17:05:53Z</time>
      </trkpt>
      <trkpt lat="43.40055" lon="2.76105">
        <ele>476.95</ele>
        <time>2014-02-06T17:06:07Z</time>
      </trkpt>
      <trkpt lat="43.40049" lon="2.76093">
        <ele>477.43</ele>
        <time>2014-02-06T17:06:18Z</time>
      </trkpt>
      <trkpt lat="43.40048" lon="2.76089">
        <ele>477.43</ele>
        <time>2014-02-06T17:06:21Z</time>
      </trkpt>
      <trkpt lat="43.40045" lon="2.76083">
        <ele>478.39</ele>
        <time>2014-02-06T17:06:26Z</time>
      </trkpt>
      <trkpt lat="43.40037" lon="2.76067">
        <ele>478.39</ele>
        <time>2014-02-06T17:06:37Z</time>
      </trkpt>
      <trkpt lat="43.40037" lon="2.76065">
        <ele>477.91</ele>
        <time>2014-02-06T17:06:39Z</time>
      </trkpt>
      <trkpt lat="43.40034" lon="2.76056">
        <ele>478.39</ele>
        <time>2014-02-06T17:06:45Z</time>
      </trkpt>
      <trkpt lat="43.40032" lon="2.76051">
        <ele>478.39</ele>
        <time>2014-02-06T17:06:48Z</time>
      </trkpt>
      <trkpt lat="43.4003" lon="2.7604">
        <ele>478.39</ele>
        <time>2014-02-06T17:06:57Z</time>
      </trkpt>
      <trkpt lat="43.40026" lon="2.76017">
        <ele>480.32</ele>
        <time>2014-02-06T17:07:12Z</time>
      </trkpt>
      <trkpt lat="43.40023" lon="2.76">
        <ele>480.8</ele>
        <time>2014-02-06T17:07:25Z</time>
      </trkpt>
      <trkpt lat="43.40021" lon="2.75988">
        <ele>480.32</ele>
        <time>2014-02-06T17:07:32Z</time>
      </trkpt>
      <trkpt lat="43.40019" lon="2.75982">
        <ele>479.84</ele>
        <time>2014-02-06T17:07:36Z</time>
      </trkpt>
      <trkpt lat="43.40016" lon="2.75971">
        <ele>479.84</ele>
        <time>2014-02-06T17:07:46Z</time>
      </trkpt>
      <trkpt lat="43.40013" lon="2.75966">
        <ele>479.35</ele>
        <time>2014-02-06T17:07:50Z</time>
      </trkpt>
      <trkpt lat="43.40008" lon="2.75949">
        <ele>479.84</ele>
        <time>2014-02-06T17:08:02Z</time>
      </trkpt>
      <trkpt lat="43.40006" lon="2.75944">
        <ele>478.87</ele>
        <time>2014-02-06T17:08:06Z</time>
      </trkpt>
      <trkpt lat="43.39995" lon="2.75923">
        <ele>480.32</ele>
        <time>2014-02-06T17:08:21Z</time>
      </trkpt>
      <trkpt lat="43.39984" lon="2.75903">
        <ele>481.28</ele>
        <time>2014-02-06T17:08:37Z</time>
      </trkpt>
      <trkpt lat="43.39983" lon="2.759">
        <ele>481.76</ele>
        <time>2014-02-06T17:08:39Z</time>
      </trkpt>
      <trkpt lat="43.39979" lon="2.75887">
        <ele>481.76</ele>
        <time>2014-02-06T17:08:48Z</time>
      </trkpt>
      <trkpt lat="43.39972" lon="2.75867">
        <ele>482.24</ele>
        <time>2014-02-06T17:09:02Z</time>
      </trkpt>
      <trkpt lat="43.39965" lon="2.75848">
        <ele>483.68</ele>
        <time>2014-02-06T17:09:16Z</time>
      </trkpt>
      <trkpt lat="43.39959" lon="2.75839">
        <ele>483.2</ele>
        <time>2014-02-06T17:09:23Z</time>
      </trkpt>
      <trkpt lat="43.39958" lon="2.75836">
        <ele>483.2</ele>
        <time>2014-02-06T17:09:25Z</time>
      </trkpt>
      <trkpt lat="43.39953" lon="2.75822">
        <ele>483.68</ele>
        <time>2014-02-06T17:09:35Z</time>
      </trkpt>
      <trkpt lat="43.39952" lon="2.75819">
        <ele>484.64</ele>
        <time>2014-02-06T17:09:37Z</time>
      </trkpt>
      <trkpt lat="43.39942" lon="2.75801">
        <ele>483.68</ele>
        <time>2014-02-06T17:09:53Z</time>
      </trkpt>
      <trkpt lat="43.39941" lon="2.758">
        <ele>483.68</ele>
        <time>2014-02-06T17:09:54Z</time>
      </trkpt>
      <trkpt lat="43.39931" lon="2.75785">
        <ele>484.64</ele>
        <time>2014-02-06T17:10:07Z</time>
      </trkpt>
      <trkpt lat="43.39928" lon="2.75782">
        <ele>484.16</ele>
        <time>2014-02-06T17:10:10Z</time>
      </trkpt>
      <trkpt lat="43.39915" lon="2.75762">
        <ele>484.16</ele>
        <time>2014-02-06T17:10:27Z</time>
      </trkpt>
      <trkpt lat="43.39913" lon="2.7576">
        <ele>484.64</ele>
        <time>2014-02-06T17:10:29Z</time>
      </trkpt>
      <trkpt lat="43.39911" lon="2.75759">
        <ele>483.68</ele>
        <time>2014-02-06T17:10:31Z</time>
      </trkpt>
      <trkpt lat="43.39906" lon="2.75753">
        <ele>487.53</ele>
        <time>2014-02-06T17:10:37Z</time>
      </trkpt>
      <trkpt lat="43.39904" lon="2.75751">
        <ele>488.49</ele>
        <time>2014-02-06T17:10:39Z</time>
      </trkpt>
      <trkpt lat="43.39902" lon="2.75748">
        <ele>485.12</ele>
        <time>2014-02-06T17:10:41Z</time>
      </trkpt>
      <trkpt lat="43.39889" lon="2.75731">
        <ele>486.08</ele>
        <time>2014-02-06T17:10:57Z</time>
      </trkpt>
      <trkpt lat="43.39882" lon="2.75719">
        <ele>487.53</ele>
        <time>2014-02-06T17:11:07Z</time>
      </trkpt>
      <trkpt lat="43.39875" lon="2.75711">
        <ele>487.05</ele>
        <time>2014-02-06T17:11:14Z</time>
      </trkpt>
      <trkpt lat="43.39867" lon="2.75699">
        <ele>487.53</ele>
        <time>2014-02-06T17:11:24Z</time>
      </trkpt>
      <trkpt lat="43.39856" lon="2.75677">
        <ele>487.53</ele>
        <time>2014-02-06T17:11:41Z</time>
      </trkpt>
      <trkpt lat="43.39856" lon="2.75676">
        <ele>487.05</ele>
        <time>2014-02-06T17:11:42Z</time>
      </trkpt>
      <trkpt lat="43.39851" lon="2.75663">
        <ele>486.56</ele>
        <time>2014-02-06T17:11:51Z</time>
      </trkpt>
      <trkpt lat="43.39851" lon="2.75656">
        <ele>487.05</ele>
        <time>2014-02-06T17:11:56Z</time>
      </trkpt>
      <trkpt lat="43.39846" lon="2.75639">
        <ele>487.05</ele>
        <time>2014-02-06T17:12:09Z</time>
      </trkpt>
      <trkpt lat="43.39843" lon="2.75629">
        <ele>486.56</ele>
        <time>2014-02-06T17:12:16Z</time>
      </trkpt>
      <trkpt lat="43.39838" lon="2.75614">
        <ele>486.56</ele>
        <time>2014-02-06T17:12:27Z</time>
      </trkpt>
      <trkpt lat="43.39832" lon="2.75592">
        <ele>487.05</ele>
        <time>2014-02-06T17:12:42Z</time>
      </trkpt>
      <trkpt lat="43.39829" lon="2.75576">
        <ele>486.56</ele>
        <time>2014-02-06T17:12:57Z</time>
      </trkpt>
      <trkpt lat="43.39829" lon="2.75575">
        <ele>487.53</ele>
        <time>2014-02-06T17:13:17Z</time>
      </trkpt>
      <trkpt lat="43.39829" lon="2.75574">
        <ele>486.56</ele>
        <time>2014-02-06T17:13:32Z</time>
      </trkpt>
      <trkpt lat="43.39829" lon="2.75573">
        <ele>487.05</ele>
        <time>2014-02-06T17:13:55Z</time>
      </trkpt>
      <trkpt lat="43.39828" lon="2.75572">
        <ele>487.05</ele>
        <time>2014-02-06T17:14:13Z</time>
      </trkpt>
      <trkpt lat="43.39828" lon="2.75572">
        <ele>487.05</ele>
        <time>2014-02-06T17:14:33Z</time>
      </trkpt>
      <trkpt lat="43.39828" lon="2.75572">
        <ele>487.53</ele>
        <time>2014-02-06T17:14:53Z</time>
      </trkpt>
      <trkpt lat="43.39828" lon="2.75572">
        <ele>487.05</ele>
        <time>2014-02-06T17:15:13Z</time>
      </trkpt>
      <trkpt lat="43.39828" lon="2.75572">
        <ele>486.56</ele>
        <time>2014-02-06T17:15:31Z</time>
      </trkpt>
      <trkpt lat="43.39828" lon="2.75572">
        <ele>481.76</ele>
        <time>2014-02-06T17:15:43Z</time>
      </trkpt>
      <trkpt lat="43.39828" lon="2.75572">
        <ele>482.24</ele>
        <time>2014-02-06T17:15:44Z</time>
      </trkpt>
      <trkpt lat="43.39828" lon="2.75572">
        <ele>485.6</ele>
        <time>2014-02-06T17:15:46Z</time>
      </trkpt>
      <trkpt lat="43.39828" lon="2.75572">
        <ele>481.76</ele>
        <time>2014-02-06T17:15:47Z</time>
      </trkpt>
      <trkpt lat="43.39828" lon="2.75572">
        <ele>489.45</ele>
        <time>2014-02-06T17:15:48Z</time>
      </trkpt>
      <trkpt lat="43.39828" lon="2.75572">
        <ele>486.08</ele>
        <time>2014-02-06T17:15:49Z</time>
      </trkpt>
      <trkpt lat="43.39828" lon="2.75572">
        <ele>480.8</ele>
        <time>2014-02-06T17:15:57Z</time>
      </trkpt>
      <trkpt lat="43.39828" lon="2.75572">
        <ele>488.01</ele>
        <time>2014-02-06T17:15:58Z</time>
      </trkpt>
    </trkseg>
  </trk>
</gpx>